GFSGL_con_mlcape_000.txt.gz
CAPE
2186 2229 2185 2155 2305 2642 2539 2826 2470 1744 895 582 444 109 109 73 26 20 12 0 0 0 0 0 24 101 55 37 44 20 30 23 17 0 2 5 13 34 29 78 38 13 6
2162 2394 2240 2143 2151 2415 2700 2545 1715 1247 418 358 268 174 64 45 43 70 18 0 0 0 0 5 92 99 94 81 85 80 72 59 55 16 0 4 16 7 30 51 50 38 27
2125 2300 2225 2087 2226 2275 2355 1404 981 364 0 8 0 3 81 83 41 92 135 80 2 0 6 62 94 130 73 84 89 36 71 68 67 61 52 49 18 7 27 42 65 29 21
2014 2336 2396 2227 2146 2248 1595 401 199 0 0 0 0 0 18 190 109 157 163 156 27 22 100 184 236 283 125 109 79 105 128 96 84 45 77 41 36 29 39 39 30 41 23
2149 2244 2473 2458 2233 1556 871 317 67 0 0 0 0 0 0 186 114 173 158 96 95 160 219 314 366 480 192 129 69 43 79 32 60 52 58 52 18 25 60 42 34 54 31
2282 2404 2426 2505 1825 875 604 395 100 0 0 0 0 0 0 33 8 5 74 137 191 331 404 495 431 246 330 111 27 0 0 0 23 7 17 5 3 89 73 39 48 33 32
2343 2436 2594 2306 1507 752 568 499 300 3 0 0 0 0 0 17 12 14 37 80 160 291 595 349 235 147 179 257 162 47 0 0 0 35 99 83 103 50 54 29 43 38 2
2375 2429 2475 1963 1334 968 648 659 336 46 0 22 28 2 0 0 110 37 28 167 300 661 520 259 136 125 138 212 214 97 89 100 124 73 34 15 29 14 0 1 2 2 3
2192 2253 1991 1622 1190 928 824 661 606 175 61 246 299 210 128 137 124 43 54 156 343 440 180 79 16 16 141 11 22 51 79 77 24 0 0 0 0 0 0 0 0 7 7
2119 2102 1712 1406 1252 969 1015 874 550 575 357 247 301 261 133 398 57 2 14 166 187 55 66 69 46 59 0 0 0 29 14 23 13 0 0 2 0 1 0 2 5 6 15
2109 1997 1503 1387 1560 1364 1138 806 778 650 425 490 394 376 316 48 259 12 0 112 87 51 42 94 133 0 0 0 0 0 0 0 0 0 0 0 0 1 8 16 2 0 0
2198 1802 1548 1553 1459 1510 1041 743 535 494 592 480 405 614 346 530 197 33 1 4 27 137 282 145 13 0 0 0 0 0 0 0 0 0 0 0 0 0 0 0 0 0 0
1892 1642 1538 1398 1229 1200 950 636 578 533 579 466 497 571 411 579 208 0 0 0 1 230 236 14 0 0 0 0 0 0 0 0 0 0 0 0 0 0 0 0 0 0 0
1679 1646 1385 1422 1172 894 847 807 855 837 747 641 684 551 264 374 265 23 0 0 0 0 0 0 0 0 0 0 0 0 0 0 0 0 0 0 0 0 0 0 0 0 1
1532 1446 1330 1047 989 1230 777 425 802 137 155 370 259 97 55 272 354 195 48 51 57 8 0 0 0 1 1 4 5 1 0 0 0 0 0 0 0 0 0 0 0 0 5
1238 1288 1199 1180 1278 1161 611 69 0 0 0 0 0 44 95 27 1 0 0 0 0 0 0 0 0 0 0 1 2 0 0 0 0 0 0 0 0 0 0 0 0 0 2
1224 1159 1004 862 657 641 603 276 63 0 0 0 0 0 0 0 0 0 0 0 0 0 0 0 0 0 0 0 0 0 0 0 0 0 0 0 0 0 0 0 0 0 0
1001 620 624 548 516 353 302 305 302 257 112 0 0 0 0 0 0 0 0 0 0 0 0 0 0 0 0 0 0 0 0 0 0 0 0 0 0 0 0 0 0 0 0
218 188 239 115 65 58 98 127 206 246 168 88 0 0 0 0 0 0 0 0 0 0 0 0 0 0 0 0 0 0 0 0 0 0 0 0 0 0 0 0 0 0 0
0 0 18 112 214 239 310 246 267 237 269 238 36 0 0 0 0 0 0 0 0 0 0 0 0 0 0 0 0 0 0 0 0 0 0 0 0 0 0 0 0 0 0
96 133 128 202 137 92 103 100 90 129 159 113 120 54 0 0 7 5 1 0 0 0 0 0 0 0 0 0 0 0 0 0 0 0 0 0 0 0 0 0 0 0 0
141 72 42 7 25 77 104 178 201 162 125 106 106 0 0 0 4 10 8 0 0 0 0 0 0 0 0 0 0 0 0 0 0 0 0 0 0 0 0 0 0 0 0
39 41 82 170 183 120 178 167 204 171 172 148 108 45 0 2 6 6 4 0 0 0 0 0 0 0 0 0 0 0 0 0 0 0 0 0 0 0 0 0 0 0 0
123 138 126 81 41 28 46 86 130 85 102 55 38 30 20 5 20 5 0 0 0 0 0 0 0 0 0 0 0 0 0 0 0 0 0 0 0 0 0 0 0 0 0
60 49 35 26 20 12 57 27 25 25 11 35 32 11 14 27 20 0 0 6 3 1 0 0 0 0 0 0 0 0 0 0 0 0 0 0 0 0 0 0 0 0 0
0 0 0 0 0 0 0 2 2 3 2 2 6 10 12 20 21 23 13 17 16 9 1 0 0 0 0 0 0 0 0 0 0 0 0 0 0 0 0 0 0 0 0

GFSGL_con_mlcape_003.txt.gz
CAPE
2749 2575 2660 2707 2819 2859 2570 2200 2207 1496 1664 804 955 583 173 161 166 115 62 13 33 21 3 0 0 36 0 12 23 29 15 18 8 0 4 21 52 53 41 63 83 76 38
2673 2911 2868 2810 2675 2627 2697 2551 2570 2021 1771 961 732 596 61 77 54 104 87 7 4 2 0 0 25 61 240 299 26 62 54 32 15 12 1 0 13 70 54 44 31 27 47
2392 2696 2849 2602 2765 2596 2717 2769 2788 2593 1807 882 599 444 24 11 36 60 64 70 36 14 5 36 108 222 254 192 236 121 72 95 100 37 27 22 22 27 21 80 117 65 51
1843 2064 2668 2906 2750 2572 2812 2725 2606 2115 1393 531 392 181 31 93 81 82 94 110 152 117 79 140 209 285 322 296 300 339 242 198 109 78 56 57 41 19 57 36 27 34 47
2007 2175 2725 3144 2755 2591 2662 2884 2246 1639 962 350 117 74 57 96 183 272 122 95 247 261 94 177 286 380 449 332 329 168 150 127 117 120 96 49 95 71 57 75 60 43 35
2542 2603 2998 3362 2942 2615 2752 2573 1719 1316 657 209 4 0 17 0 0 17 101 27 145 173 138 263 441 661 222 145 134 135 48 13 24 33 33 22 46 58 48 42 17 21 1
2755 3033 3350 3637 3138 2641 2467 1964 1450 909 585 159 0 19 18 103 0 0 0 36 56 128 201 341 735 349 225 253 139 76 17 44 39 28 51 119 92 121 70 35 3 4 0
3104 3188 3416 3535 3039 2252 1682 1484 1224 1153 872 349 98 21 30 114 0 0 0 1 9 76 223 510 662 547 410 108 85 62 123 331 169 101 123 218 86 26 14 0 0 0 0
3054 3261 3484 3544 2822 2074 1525 1336 1412 1427 1307 532 176 69 230 281 0 0 0 6 60 158 329 540 735 277 74 27 22 24 118 165 227 87 18 0 0 0 0 0 0 1 3
3035 3205 3433 3231 2418 1856 1398 1306 1481 1720 1341 649 347 355 538 575 88 1 11 47 66 85 404 808 132 43 53 21 51 97 169 175 104 43 54 0 0 0 0 0 10 28 23
2575 2803 3016 2517 1910 1582 1462 1566 1372 1333 955 501 331 607 751 752 435 24 4 55 38 104 281 233 77 6 0 0 0 0 66 0 46 0 0 0 16 9 1 17 21 0 0
2604 2675 2360 1931 1695 1692 1550 1347 1083 911 944 812 727 973 941 780 301 21 0 0 60 214 225 161 292 0 0 0 0 0 0 0 0 0 0 15 13 0 0 0 0 0 0
2832 2344 1920 1774 1807 1952 1765 1537 1134 1086 885 882 1010 761 745 689 652 9 0 0 0 26 173 0 1 0 0 0 0 0 0 0 0 2 9 0 0 0 0 0 0 0 0
2445 1865 1693 1738 1720 1591 1729 1173 754 653 769 942 980 1039 950 795 457 206 17 1 0 3 0 3 0 0 0 0 0 0 0 0 6 0 0 0 0 0 0 0 0 0 0
1990 1924 2163 1832 1586 1458 924 646 970 866 522 887 864 744 721 380 500 347 45 68 121 74 57 34 0 1 7 9 7 2 6 9 0 0 0 0 0 0 0 0 0 0 0
2161 2118 1979 1660 1824 1170 601 149 0 0 0 0 0 54 81 16 0 0 0 0 0 0 0 1 0 10 15 12 13 16 10 1 0 0 0 0 0 0 0 0 0 0 0
2062 1898 1785 1532 1409 1182 931 840 495 0 0 0 0 0 1 0 0 0 0 0 0 0 0 0 4 6 8 5 1 0 0 0 0 0 0 0 0 0 0 0 0 0 0
1704 1351 1263 1413 1078 966 877 629 314 120 44 7 0 0 0 0 0 0 0 0 0 0 0 0 2 3 0 0 0 0 0 0 0 0 0 0 0 0 0 0 0 0 0
1193 879 956 719 615 448 358 215 250 346 232 37 0 0 0 0 0 0 0 0 1 13 7 0 0 0 0 0 0 0 0 0 0 0 0 0 0 0 0 0 0 0 0
579 480 545 335 199 166 168 139 148 181 156 118 57 0 0 0 0 0 0 0 0 0 1 0 0 0 0 0 0 0 0 0 0 0 0 0 0 0 0 0 0 0 0
71 154 141 277 125 149 132 120 106 110 110 108 138 27 0 0 4 18 16 0 0 0 0 0 0 0 0 0 0 0 0 0 0 0 0 0 0 0 0 0 0 0 0
180 166 172 152 46 8 44 76 80 76 90 119 26 2 0 0 16 26 19 4 1 6 4 0 0 0 0 0 0 0 0 0 0 0 0 0 0 0 0 0 0 0 0
138 91 44 17 36 38 76 96 77 97 118 108 86 98 25 7 14 26 8 5 2 4 4 0 0 0 0 0 0 0 0 0 0 0 0 0 0 0 0 0 0 0 0
83 98 84 115 124 127 74 37 27 21 56 43 38 13 19 13 18 10 14 8 5 1 1 2 0 0 0 0 0 0 0 0 0 0 0 0 0 0 0 0 0 0 0
123 100 85 82 72 32 21 14 39 46 16 12 22 25 26 21 4 3 11 6 2 5 1 2 0 0 0 0 0 0 0 0 0 0 0 0 0 0 0 0 0 0 0
26 37 39 38 23 6 1 1 13 21 25 18 15 15 24 13 9 15 20 9 1 2 5 6 2 0 0 0 0 0 0 0 0 0 0 0 0 0 0 0 0 0 0

GFSGL_con_mlcape_006.txt.gz
CAPE
3641 3415 3423 3402 3211 2497 3088 2639 1896 1696 1189 951 601 1138 1024 751 441 294 39 19 4 0 0 0 2 46 4 7 98 36 15 3 0 5 0 1 3 11 13 25 46 41 73
3353 3317 3362 3397 3455 3218 2545 3057 2371 2564 1715 1043 1175 1192 1145 505 494 321 25 0 162 84 203 106 30 51 61 42 106 89 64 62 89 4 0 0 0 14 15 30 25 19 15
3173 3154 3214 3302 3409 3306 3116 2661 2936 2523 2093 1919 1361 1289 845 345 485 275 193 55 70 14 11 41 57 110 140 173 238 189 128 166 102 48 51 58 5 0 0 1 0 40 101
2931 2968 3030 3009 3125 3064 3197 3107 2812 2795 2417 2328 1768 1433 942 387 354 280 353 236 90 43 114 73 117 199 173 197 148 161 202 182 94 41 77 40 61 20 46 34 21 27 50
2480 2963 3029 3203 3099 3093 3031 3135 3065 3173 3052 2804 1919 1390 914 325 393 376 324 264 177 207 271 98 91 266 384 332 253 189 244 106 24 5 28 1 6 45 40 44 35 32 22
1840 2499 2813 3129 3375 3225 3097 3211 3222 3399 3083 2658 1500 962 571 246 212 166 456 383 288 263 300 156 199 294 229 89 84 91 89 33 44 17 14 1 11 40 40 20 57 20 0
1796 2366 2511 3007 3488 3345 3261 3220 3420 3247 2700 1981 1159 573 369 265 100 59 281 280 59 201 327 109 75 219 322 248 193 119 76 47 22 0 0 10 38 52 50 33 36 21 0
2322 2499 2755 3250 3637 3486 3353 3271 3383 2879 2344 1786 963 319 123 191 12 6 0 44 22 206 186 39 46 142 552 602 334 186 67 84 97 74 55 64 121 167 46 4 0 0 0
2364 3234 3280 4019 3996 3741 3432 3211 2939 2490 2055 1696 971 321 206 230 56 0 0 0 0 19 5 11 179 505 726 64 96 38 25 75 201 153 94 93 111 0 0 0 0 0 0
3218 3589 4078 4397 3972 3385 2954 2542 2171 1836 1703 1750 1326 562 351 408 135 14 0 0 0 1 5 91 165 184 430 76 42 68 175 129 225 199 57 4 2 0 0 4 3 1 7
3740 3887 4329 4194 3582 2743 2278 1869 1532 1664 2069 1615 898 555 392 307 572 107 6 26 101 160 27 69 298 269 47 7 4 24 30 0 4 0 0 0 0 10 55 69 35 8 0
3769 4002 4186 3525 2751 2189 1800 1729 1834 1547 1298 1056 758 573 700 719 659 283 47 35 258 163 89 295 148 2 0 0 0 0 0 0 0 0 0 0 8 8 0 0 0 0 0
3414 3759 3456 2734 2153 1840 1885 1544 1317 1283 1189 972 912 939 805 760 655 215 51 6 0 5 112 50 1 0 0 0 0 0 0 0 0 0 0 9 0 0 0 0 0 0 0
3344 2914 2420 2119 2097 2079 1955 1609 1435 1319 1221 996 1142 706 723 698 734 307 92 6 0 0 0 0 0 0 0 0 0 0 0 0 0 0 0 0 0 0 0 0 0 0 0
2600 2267 1951 1885 1895 1972 963 844 1027 264 441 1076 791 625 869 829 815 640 426 210 64 7 21 16 0 0 0 0 1 8 6 8 12 16 0 0 0 0 0 0 0 0 0
2250 1848 1946 1798 1638 933 490 124 0 3 0 0 0 326 8 45 202 206 3 0 3 42 55 185 86 33 73 33 22 19 21 21 14 0 0 0 0 0 0 0 0 0 0
2106 2311 1916 1722 1526 1130 697 467 213 0 0 0 0 0 0 0 0 0 0 0 0 0 34 9 0 11 5 2 0 0 0 0 0 0 0 0 0 0 0 0 0 0 0
2183 1823 1820 1697 1815 1606 1412 1048 734 128 0 0 0 0 0 0 0 0 0 0 0 0 0 0 0 2 0 0 0 0 0 0 0 0 0 0 0 0 0 0 0 0 0
2046 1867 1728 1733 1658 1401 1183 973 875 279 122 0 0 0 0 0 0 0 0 0 0 0 2 9 2 0 0 0 0 0 0 0 0 0 0 0 0 0 0 0 0 0 0
1312 1271 1311 428 608 751 623 353 239 195 34 1 0 0 0 0 0 0 0 0 0 0 9 12 0 0 0 0 0 0 0 0 0 0 0 0 0 0 0 0 0 0 0
793 682 396 285 377 248 189 124 136 131 161 96 52 0 0 0 0 0 0 0 0 0 2 0 0 0 0 0 0 0 0 0 0 0 0 0 0 0 0 0 0 0 0
201 313 330 268 73 141 135 70 48 39 38 102 94 0 0 1 8 10 8 11 7 0 13 0 2 0 1 0 0 0 0 0 0 0 0 0 0 0 0 0 0 0 0
115 73 121 16 36 32 43 120 109 62 80 59 0 0 0 8 11 2 5 13 1 2 2 0 0 0 0 0 0 0 0 0 0 0 0 0 0 0 0 0 0 0 0
61 63 50 51 38 66 92 129 67 25 68 52 78 79 32 10 5 3 6 11 4 10 0 0 0 0 0 0 0 0 0 0 0 0 0 0 0 0 0 0 0 0 0
26 93 82 75 92 30 9 9 36 54 21 18 30 32 29 14 10 0 0 6 8 0 0 0 0 0 0 0 0 0 0 0 0 0 0 0 0 0 0 0 0 0 0
7 44 28 25 42 45 25 7 24 28 27 29 22 18 42 32 21 6 7 6 10 7 5 2 5 0 0 0 0 0 0 0 0 0 0 0 0 0 0 0 0 0 0

GFSGL_con_mlcape_009.txt.gz
CAPE
2785 2690 2470 2181 2072 1702 1734 1349 1582 1495 1066 957 879 1201 1027 563 256 178 62 14 52 1 0 0 0 2 10 9 34 38 9 18 8 4 0 5 5 0 0 0 0 7 16
2844 2907 2719 2555 2556 2151 1606 1927 1818 1506 1317 1168 1036 782 997 751 389 228 126 68 15 48 0 2 0 0 38 32 55 74 128 120 25 38 39 27 34 35 4 1 0 7 7
3096 3043 3020 2772 2842 2696 2078 2182 2409 1544 1532 1126 787 779 731 713 573 384 192 65 52 64 19 25 21 23 5 78 115 157 165 120 89 48 2 31 13 10 19 1 0 3 13
3299 3218 2970 2866 2836 2996 2901 2164 2602 2661 2067 1396 1046 777 779 709 606 470 330 191 12 97 77 151 143 24 30 147 133 114 128 107 74 39 43 13 13 25 8 25 0 0 0
3061 3206 2974 2889 2929 3039 3025 3040 2288 2577 2443 2151 1500 1192 951 760 585 439 351 271 5 108 132 163 160 152 210 186 152 173 123 1 30 57 47 6 0 0 0 0 0 0 0
2846 2999 2920 2931 2974 3072 3105 3040 3035 2523 2637 2367 2045 1607 1324 880 566 396 377 314 143 251 140 193 127 52 194 202 310 168 136 122 109 22 16 15 0 1 0 10 0 0 0
2452 2851 2890 2766 2950 2945 3037 2972 3035 3013 2878 2777 2314 1872 1501 1019 463 353 362 277 234 186 215 240 337 137 150 253 188 97 103 120 105 61 8 0 0 0 21 4 0 0 0
1988 2564 2735 2899 2801 3055 3075 3045 3123 3103 3069 2817 2437 1859 1461 823 328 170 142 207 303 326 393 345 329 150 123 135 140 180 184 130 83 46 32 23 30 30 53 50 20 0 0
1712 1958 2493 2618 2957 3206 3217 3175 3215 3136 2829 2652 2078 1576 868 450 244 70 15 69 185 249 156 164 169 68 61 91 67 30 29 60 44 160 226 174 58 74 131 10 0 0 0
1436 1723 2241 2471 2853 3399 3337 3280 3072 2731 2250 1986 1757 1074 582 311 112 27 5 6 0 0 4 48 25 4 116 86 38 37 37 23 40 13 0 1 0 0 0 0 4 6 5
1363 2309 2676 3038 3530 3402 3134 2851 2341 2239 2153 1952 1569 1012 477 230 112 44 0 9 8 0 0 1 22 4 17 47 49 3 6 0 0 0 0 0 0 0 0 1 10 1 0
2662 3242 3610 3554 3263 2989 2680 2347 2285 1989 1751 1564 1363 851 380 252 273 50 19 53 17 9 43 142 13 108 51 6 0 0 0 0 0 0 0 0 0 0 0 0 0 0 0
3705 3725 3309 3043 2958 2549 1993 1798 1642 1395 1262 1083 883 706 630 610 476 348 195 33 0 73 53 44 0 0 0 0 0 0 0 0 0 0 0 0 0 0 0 0 0 0 0
3515 3237 2856 2714 2190 1740 1477 1374 1348 1253 1084 942 813 651 601 630 463 214 4 0 0 0 0 0 0 0 0 0 0 0 0 0 0 0 0 0 0 0 0 0 0 0 0
2969 2377 2188 1999 1850 1052 419 691 832 316 833 922 1025 801 492 599 610 386 110 43 29 34 0 0 0 0 0 0 0 0 0 0 0 0 0 0 0 0 0 0 0 0 0
2206 2014 1956 1645 885 569 410 142 0 7 11 215 331 427 85 216 518 364 126 38 0 0 0 0 0 0 0 0 2 5 8 10 13 0 0 0 0 0 0 0 0 0 0
2163 1929 1712 1238 980 799 597 540 288 0 0 0 0 2 2 1 22 59 12 0 1 23 29 53 42 0 0 0 0 0 0 0 0 0 0 0 0 0 0 0 0 0 0
2110 1746 1690 1412 1209 937 717 445 223 80 3 0 0 0 0 0 0 0 0 0 0 0 0 0 0 0 0 0 0 0 0 0 0 0 0 0 0 0 0 0 0 0 0
1970 1840 1757 1614 1313 1017 781 538 184 23 0 0 0 0 0 0 0 0 0 0 0 0 0 0 0 0 0 0 0 0 0 0 0 0 0 0 0 0 0 0 0 0 0
1958 1799 1724 1616 1318 1203 902 849 465 114 0 0 0 0 0 0 0 0 0 0 0 0 0 0 0 0 0 0 0 0 0 0 0 0 0 0 0 0 0 0 0 0 0
792 720 617 994 805 782 708 581 455 145 5 0 0 0 0 0 0 0 0 0 0 0 0 0 0 0 0 0 0 0 0 0 0 0 0 0 0 0 0 0 0 0 0
501 269 202 196 209 57 34 32 13 30 18 18 6 0 0 0 0 0 0 0 0 0 0 0 0 1 0 0 0 0 0 0 0 0 0 0 0 0 0 0 0 0 0
140 84 88 52 28 14 2 4 0 14 39 30 0 0 0 0 0 0 0 0 1 1 0 0 0 0 0 0 0 0 0 0 0 0 0 0 0 0 0 0 0 0 0
66 34 36 36 2 8 8 6 1 0 1 0 0 0 0 0 0 0 0 0 1 1 0 0 0 0 0 0 0 0 0 0 0 0 0 0 0 0 0 0 0 0 0
43 17 25 35 34 16 5 1 8 4 5 24 8 0 0 0 0 0 0 0 0 0 0 0 0 0 0 0 0 0 0 0 0 0 0 0 0 0 0 0 0 0 0
7 10 1 5 5 0 4 4 0 0 1 8 43 33 32 19 4 1 0 0 0 0 0 0 0 0 0 0 0 0 0 0 0 0 0 0 0 0 0 0 0 0 0

GFSGL_con_mlcape_012.txt.gz
CAPE
1612 1558 1572 1458 1341 1548 1468 1396 1280 1185 975 1079 1029 943 597 321 196 85 9 5 0 6 22 4 0 0 0 0 0 0 14 3 0 2 3 0 1 0 0 0 0 0 0
1697 1785 1703 1785 1742 1418 1370 1380 1408 1331 1160 1148 1037 1022 785 513 303 199 77 5 0 0 1 7 0 1 6 12 1 8 45 27 1 6 18 22 23 15 17 9 2 6 0
1852 1965 2064 2007 2013 1740 1472 1556 1438 1326 1049 1026 735 889 906 706 521 290 139 9 0 0 0 0 0 2 4 3 17 6 67 97 70 50 60 41 29 20 2 1 0 0 0
2215 2153 2129 2183 2154 2102 1814 1567 1547 1499 1249 1232 1041 869 971 809 595 450 258 137 36 22 0 0 0 1 12 4 13 77 121 120 113 104 48 33 27 8 2 0 0 0 0
2242 2390 2266 2287 2415 2410 2202 1846 1745 1845 1448 1441 1176 1120 886 874 728 533 401 229 95 81 59 23 49 51 132 76 29 86 103 95 117 93 8 13 3 0 0 0 0 0 0
2375 2375 2473 2532 2584 2566 2597 2446 1988 1962 2078 1730 1380 1074 977 887 743 570 502 397 190 129 38 0 57 148 162 105 56 89 92 122 60 24 22 4 0 0 0 0 0 0 0
2389 2615 2725 2619 2612 2643 2702 2715 2609 2229 2091 2071 1832 1584 1352 1118 838 533 487 496 344 246 96 0 14 120 135 106 50 27 65 90 102 29 17 0 0 0 0 0 0 0 0
2412 2594 2862 2797 2637 2683 2737 2748 2733 2729 2395 2313 2036 1909 1755 1128 841 677 591 434 345 235 92 4 66 203 218 64 39 35 60 36 46 43 33 15 5 17 25 22 4 0 0
2249 2413 2641 2768 2623 2705 2670 2782 2710 2787 2644 2660 2383 2048 1674 116 682 560 299 271 274 194 67 119 224 297 150 27 57 52 2 8 58 45 45 54 55 76 13 0 1 0 0
1907 2173 2495 2666 2593 2583 2714 2757 2785 2810 2808 2574 2427 1920 320 295 471 374 226 80 128 105 137 237 244 179 108 21 28 2 8 32 32 0 0 0 0 0 0 0 0 0 0
1731 1982 2223 2587 2605 2594 2770 2824 2898 2765 2740 2535 2082 1620 699 1125 766 448 17 3 3 3 14 24 5 8 3 5 39 35 57 18 3 0 0 0 0 0 0 0 0 0 0
1528 1727 1758 2309 2522 2750 2850 2792 2695 2531 2476 2032 1709 1404 1004 885 582 144 10 2 0 0 6 0 0 5 0 0 0 0 0 0 0 0 0 0 0 0 0 0 0 0 0
1229 1498 1773 2240 2593 2697 2639 2621 2281 2179 1886 1816 1649 1245 876 562 216 29 0 0 1 54 0 0 0 0 0 0 0 0 0 0 0 0 0 0 0 0 0 0 0 0 0
1792 2343 2486 2381 2358 2396 2150 2046 1707 1741 1599 1275 1190 966 675 361 139 25 0 0 0 0 0 0 0 0 0 0 0 0 0 0 0 0 0 0 0 0 0 0 0 0 0
2337 2390 2231 1785 1999 1409 675 753 974 651 1028 1060 761 685 605 495 361 220 77 7 2 0 0 0 0 0 0 0 0 0 0 0 0 0 0 0 0 0 0 0 0 0 0
2137 2168 2058 1187 672 474 281 40 0 15 300 558 572 483 149 395 302 115 5 0 0 0 0 0 0 0 0 0 0 0 0 0 0 0 0 0 0 0 0 0 0 0 0
2335 1975 1278 941 635 143 149 72 365 0 0 55 332 228 194 151 129 62 0 0 0 0 0 0 0 0 0 0 0 0 0 0 0 0 0 0 0 0 0 0 0 0 0
1489 705 593 443 294 217 223 234 101 160 169 6 0 0 0 21 30 14 0 0 0 0 0 0 0 0 0 0 0 0 0 0 0 0 0 0 0 0 0 0 0 0 0
1325 1032 737 533 439 366 196 73 20 9 0 0 0 0 0 0 0 0 0 0 0 0 0 0 0 0 0 0 0 0 0 0 0 0 0 0 0 0 0 0 0 0 0
1378 1091 1124 949 709 528 218 89 12 0 0 0 0 0 0 0 0 0 0 0 0 0 0 0 0 0 0 0 0 0 0 0 0 0 0 0 0 0 0 0 0 0 0
1129 1355 1242 1141 1091 852 683 277 26 0 0 0 1 0 0 0 0 0 0 0 0 0 0 0 0 0 0 0 0 0 0 0 0 0 0 0 0 0 0 0 0 0 0
113 168 72 430 520 538 350 129 146 30 9 3 0 0 0 0 0 0 0 0 0 0 0 0 0 0 0 0 0 0 0 0 0 0 0 0 0 0 0 0 0 0 0
0 1 9 2 0 49 59 24 128 81 44 0 0 0 0 0 0 0 0 0 0 0 0 0 0 0 0 0 0 0 0 0 0 0 0 0 0 0 0 0 0 0 0
21 4 7 0 0 0 0 1 7 72 75 26 1 0 0 0 0 0 0 0 0 0 0 0 0 0 0 0 0 0 0 0 0 0 0 0 0 0 0 0 0 0 0
23 5 13 17 4 0 1 4 6 20 44 23 2 0 0 0 0 0 0 0 0 0 0 0 0 0 0 0 0 0 0 0 0 0 0 0 0 0 0 0 0 0 0
51 55 28 9 3 0 0 0 1 0 8 8 5 0 0 0 0 0 0 0 0 0 0 0 0 0 0 0 0 0 0 0 0 0 0 0 0 0 0 0 0 0 0

GFSGL_con_mlcape_015.txt.gz
CAPE
662 846 929 1001 1036 991 903 901 783 870 939 953 983 1163 764 560 339 115 8 0 0 0 0 0 0 0 0 0 0 0 0 0 0 4 0 0 0 0 0 0 0 0 0
761 883 879 863 996 1111 965 953 903 1047 1030 1127 1050 1005 789 625 488 282 101 38 0 0 0 0 0 0 0 0 0 0 0 0 0 0 4 13 10 17 0 0 0 0 0
951 1011 1077 1071 1001 1072 1129 1146 1027 1089 1105 1017 985 1004 872 772 518 362 164 166 45 0 0 0 0 0 0 0 0 0 0 0 1 0 5 2 20 14 16 0 0 0 0
1130 1243 1241 1269 1271 1119 1153 1256 1247 1176 1197 1117 1006 1055 1046 911 639 400 289 290 148 38 0 0 0 0 0 0 0 0 0 0 12 30 45 29 11 17 7 0 0 0 0
1166 1412 1398 1429 1496 1502 1397 1302 1276 1244 1237 1132 1070 1032 1168 1038 800 602 423 429 287 155 19 9 0 0 0 3 5 11 2 0 46 58 69 39 8 6 3 0 0 0 0
1381 1445 1611 1649 1706 1733 1722 1612 1463 1372 1410 1214 1141 1007 910 971 779 607 530 356 297 185 146 53 8 0 10 41 24 52 6 12 37 32 23 18 7 0 0 0 0 0 0
1576 1703 1842 1817 1847 1933 1978 1903 1746 1580 1585 1292 1156 1054 978 1052 1026 733 504 526 399 239 327 173 17 9 4 61 73 53 27 9 10 1 5 8 1 1 0 0 0 0 0
1741 1854 2057 2093 1947 2090 2228 2145 2037 1824 1816 1547 1307 1132 1112 1135 900 773 628 231 98 292 302 297 69 42 0 20 67 42 16 15 18 1 2 2 16 2 0 0 0 0 0
1827 1996 2178 2281 2217 2310 2288 2368 2368 2195 1896 1883 1582 1452 1513 1412 998 987 676 87 247 327 322 162 124 60 2 47 34 10 0 29 19 14 6 8 9 1 0 0 0 0 0
1953 2049 2264 2445 2406 2399 2416 2416 2496 2508 2203 1986 2001 1822 1858 1704 1080 999 379 371 493 447 217 82 79 89 48 77 65 4 8 1 5 4 0 0 0 0 0 0 0 0 0
1837 2144 2337 2547 2596 2501 2470 2476 2568 2583 2470 2270 2250 2089 2041 1843 898 499 151 634 587 374 91 8 38 51 36 3 3 4 3 0 0 0 0 0 0 0 0 0 0 0 0
1591 1827 2227 2394 2668 2602 2514 2488 2579 2642 2639 2566 2387 1842 1590 1322 903 321 502 378 205 83 0 2 11 1 0 0 0 0 0 0 0 0 0 0 0 0 0 0 0 0 0
1462 1549 1677 2094 2460 2463 2489 2561 2648 2734 2692 2506 1974 1539 1262 1008 837 517 161 31 9 0 0 0 0 0 0 0 0 0 0 0 0 0 0 0 0 0 0 0 0 0 0
1228 1429 1551 1796 2213 2346 2543 2646 2638 2619 2458 2037 1519 1144 918 687 556 29 6 0 0 0 0 0 0 0 0 0 0 0 0 0 0 0 0 0 0 0 0 0 0 0 0
1027 1196 1388 1754 2279 2358 1790 2301 2416 1813 1731 1319 966 728 723 654 385 78 5 0 0 0 0 0 0 0 0 0 0 0 0 0 0 0 0 0 0 0 0 0 0 0 0
1308 1559 1854 1975 1109 882 985 722 179 409 621 471 96 0 189 148 52 24 8 2 0 0 0 0 0 0 0 0 0 0 0 0 0 0 0 0 0 0 0 0 0 0 0
1644 2040 1473 701 665 849 911 871 547 149 14 0 29 126 236 220 45 80 1 0 0 0 8 0 0 0 0 0 0 0 0 0 0 0 0 0 0 0 0 0 0 0 0
3 107 479 487 579 580 495 182 0 0 0 0 0 0 56 48 30 0 0 0 0 0 0 0 0 0 0 0 0 0 0 0 0 0 0 0 0 0 0 0 0 0 0
33 0 2 97 98 4 3 0 0 0 1 0 6 1 0 0 0 0 0 0 0 0 0 0 0 0 0 0 0 0 0 0 0 0 0 0 0 0 0 0 0 0 0
36 67 95 6 36 0 0 0 3 42 63 46 57 4 0 0 0 1 0 0 0 0 0 0 0 0 0 0 0 0 0 0 0 0 0 0 0 0 0 0 0 0 0
233 125 64 44 37 17 37 73 54 36 53 18 0 0 0 20 11 0 5 0 0 0 0 0 0 0 0 0 0 0 0 0 0 0 0 0 0 0 0 0 0 0 0
266 391 337 274 226 201 116 41 7 1 0 0 0 0 0 0 0 0 0 0 0 0 0 0 0 0 0 0 0 0 0 0 0 0 0 0 0 0 0 0 0 0 0
0 0 72 275 201 83 69 32 6 1 0 0 0 0 0 0 0 0 0 0 0 0 0 0 0 0 0 0 0 0 0 0 0 0 0 0 0 0 0 0 0 0 0
7 3 0 0 0 1 1 0 2 2 0 0 1 0 0 0 0 0 0 0 0 0 0 0 0 0 0 0 0 0 0 0 0 0 0 0 0 0 0 0 0 0 0
0 0 0 0 0 0 0 0 0 0 1 0 6 0 0 0 0 0 0 0 0 0 0 0 0 0 0 0 0 0 0 0 0 0 0 0 0 0 0 0 0 0 0
1 5 0 5 1 0 0 0 0 0 0 0 0 0 0 0 0 0 0 0 0 0 0 0 0 0 0 0 0 0 0 0 0 0 0 0 0 0 0 0 0 0 0

GFSGL_con_mlcape_018.txt.gz
CAPE
648 760 767 737 749 726 671 643 659 716 747 828 767 985 958 796 661 528 263 89 11 0 0 0 0 0 0 0 0 0 0 0 0 0 0 0 0 0 0 0 0 0 0
476 805 858 857 870 811 733 721 695 726 764 847 751 942 915 756 719 651 497 187 60 0 0 0 0 0 0 0 0 0 0 0 0 0 0 0 7 0 6 1 0 0 0
451 611 861 922 917 879 803 807 767 791 777 815 816 839 892 733 783 662 549 422 188 23 1 0 0 0 0 0 0 0 0 0 0 0 0 0 0 0 0 0 0 0 0
575 566 703 837 899 955 925 866 789 846 830 861 895 951 1013 986 816 717 568 567 396 190 83 0 0 0 0 0 0 0 0 0 0 0 0 7 19 10 1 0 0 0 0
617 676 759 862 857 901 1030 997 964 918 926 938 896 1043 1080 1005 906 725 633 674 554 411 187 65 0 0 0 0 0 0 0 3 0 0 1 20 7 11 2 2 0 0 0
714 737 892 1038 1085 1024 984 1053 1081 1048 1090 1015 929 966 1104 1076 944 816 823 771 652 487 341 124 70 15 0 0 0 0 4 15 13 0 0 4 7 1 0 1 0 0 0
773 925 1090 1215 1285 1312 1239 1135 1097 1119 1123 1116 1078 1004 1033 1186 986 940 920 976 828 535 419 381 362 141 59 29 0 0 0 25 23 8 4 1 5 4 0 0 0 0 0
935 1035 1257 1424 1437 1479 1517 1371 1283 1236 1173 1206 1196 1118 1041 1082 1004 974 827 1033 782 585 522 564 566 481 196 101 34 0 9 31 24 21 22 17 0 3 1 0 0 0 0
1142 1239 1352 1530 1592 1629 1687 1638 1595 1498 1367 1383 1302 1205 1211 1171 992 835 763 885 850 722 600 405 366 466 314 181 50 0 13 15 6 0 0 1 0 0 0 0 0 0 0
1309 1424 1547 1650 1692 1722 1877 1890 1849 1755 1619 1579 1400 1285 1313 1416 906 715 780 847 791 748 248 265 234 520 235 70 5 15 52 15 0 0 0 0 0 0 0 0 0 0 0
1336 1666 1770 1849 1944 1945 2005 2148 2164 2104 1979 1797 1635 1480 1542 1479 1034 746 592 803 974 787 297 636 401 188 82 7 18 90 52 14 0 0 0 0 0 0 0 0 0 0 0
1319 1624 1838 2054 2184 2212 2263 2233 2343 2402 2392 2120 1866 1841 1710 1497 1102 648 757 927 865 275 699 609 281 26 18 2 0 3 0 0 0 0 0 0 0 0 0 0 0 0 0
1110 1431 1896 2115 2303 2325 2428 2417 2493 2510 2483 2323 2120 2100 1686 742 806 882 610 573 185 534 587 186 3 0 0 0 0 0 0 0 0 0 0 0 0 0 0 0 0 0 0
888 987 1458 2011 2291 2543 2576 2534 2572 2614 2576 2289 2228 2120 1532 867 734 279 173 112 46 68 0 0 0 0 0 0 0 0 0 0 0 0 0 0 0 0 0 0 0 0 0
621 937 1124 1421 1833 2328 2507 2554 2610 2684 2592 2493 2233 1429 1082 795 296 7 9 7 10 0 0 0 0 0 0 0 0 0 0 0 0 0 0 0 0 0 0 0 0 0 0
0 190 695 1180 1487 2090 1459 1271 1200 2165 2066 1757 1150 740 323 57 6 0 41 17 0 0 0 0 0 0 0 0 0 0 0 0 0 0 0 0 0 0 0 0 0 0 0
0 267 889 1070 1240 1043 1258 1316 1272 427 569 432 463 270 10 0 0 0 0 0 0 0 2 0 0 0 0 0 0 0 0 0 0 0 0 0 0 0 0 0 0 0 0
7 25 1109 1157 857 831 711 760 570 500 201 0 0 0 0 0 0 0 0 0 0 0 0 7 0 0 0 0 0 0 0 0 0 0 0 0 0 0 0 0 0 0 0
1 1 64 120 41 426 264 237 67 12 0 0 0 0 0 0 0 0 0 1 12 3 9 0 0 0 0 0 0 0 0 0 0 0 0 0 0 0 0 0 0 0 0
0 0 0 0 0 0 1 0 1 0 0 0 0 0 1 0 0 0 3 5 0 4 0 0 0 0 0 0 0 0 0 0 0 0 0 0 0 0 0 0 0 0 0
0 0 0 14 16 0 0 9 1 0 0 0 0 0 0 78 91 23 0 2 5 0 0 0 0 0 0 0 0 0 0 0 0 0 0 0 0 0 0 0 0 0 0
17 2 2 0 1 0 0 0 0 0 0 1 1 0 0 44 6 2 0 0 2 0 0 0 0 0 0 0 0 0 0 0 0 0 0 0 0 0 0 0 0 0 0
0 7 4 1 5 6 2 0 0 0 0 0 0 0 0 0 0 0 1 13 0 0 0 0 0 0 0 0 0 0 0 0 0 0 0 0 0 0 0 0 0 0 0
2 0 20 34 22 6 17 11 4 3 2 0 0 0 0 0 11 8 4 5 0 0 0 0 0 0 0 0 0 0 0 0 0 0 0 0 0 0 0 0 0 0 0
2 2 0 0 0 3 2 17 2 0 0 0 0 0 0 0 0 3 7 0 0 0 0 0 0 0 0 0 0 0 0 0 0 0 0 0 0 0 0 0 0 0 0
0 0 0 1 0 2 1 3 0 0 0 1 0 0 0 0 0 0 0 0 0 0 0 0 0 0 0 0 0 0 0 0 0 0 0 0 0 0 0 0 0 0 0

GFSGL_con_mlcape_021.txt.gz
CAPE
992 1050 1004 1013 1020 1010 1105 1158 1116 1191 1174 1250 1273 1244 1353 1365 1464 1345 1223 912 494 280 135 41 16 9 0 0 0 0 0 0 0 0 0 12 8 10 1 27 0 52 35
1008 1112 1096 1140 1176 1131 1125 1190 1241 1147 1218 1348 1426 1408 1407 1587 1526 1374 1258 1066 768 457 333 86 0 0 0 0 0 0 0 0 0 7 1 8 10 71 77 74 68 0 23
1016 1094 1204 1259 1298 1280 1246 1308 1352 1305 1297 1342 1448 1437 1489 1527 1485 1344 1380 1318 932 742 499 164 56 0 0 0 0 0 0 0 0 0 0 20 22 19 47 75 77 37 0
962 1062 1189 1267 1292 1380 1423 1410 1411 1401 1314 1328 1430 1497 1544 1528 1470 1347 1272 1393 1205 938 733 402 147 10 0 0 2 2 2 0 0 0 0 0 27 72 51 20 17 24 0
981 1001 1141 1345 1457 1525 1514 1466 1475 1488 1384 1356 1371 1472 1514 1496 1437 1408 1242 1270 1360 1085 887 558 240 165 5 0 12 17 0 0 0 0 2 0 0 49 70 37 29 35 16
946 922 1076 1363 1533 1568 1600 1571 1542 1490 1484 1466 1412 1442 1422 1418 1278 953 1254 1475 1390 1242 1161 810 460 146 32 0 0 3 8 0 0 7 12 4 69 94 66 37 58 66 63
838 1095 1236 1301 1438 1554 1614 1648 1543 1551 1510 1493 1454 1494 1471 1484 1010 727 862 1518 1455 1332 1309 1150 748 432 197 97 0 0 0 0 1 237 147 52 32 111 94 26 55 53 83
880 1099 1264 1325 1393 1537 1536 1599 1690 1713 1619 1610 1513 1509 1536 1606 1062 683 679 1174 1523 1501 1360 1269 1035 769 559 376 346 85 18 40 0 0 170 237 102 150 8 57 105 158 90
826 995 1186 1350 1400 1571 1641 1614 1705 1776 1856 1781 1800 1655 1569 1631 1173 753 655 1115 1475 1533 1486 1259 1115 1023 925 355 400 412 364 326 89 1 16 0 0 0 19 38 6 0 1
888 1100 1483 1652 1685 1686 1823 1966 1955 1868 1829 1860 1892 1815 1669 1651 1330 859 778 1247 1390 1486 1293 1100 701 1006 542 221 413 566 446 204 61 0 0 0 0 0 0 0 0 0 0
1301 1532 1654 1753 1823 1902 2042 2087 2206 2203 2116 2034 1967 1922 1802 1604 1905 943 770 1319 1488 1153 1071 939 976 302 88 177 207 712 289 333 5 0 0 0 0 0 0 0 0 0 0
1556 1722 1912 1937 2003 2142 2229 2363 2419 2361 2289 2291 2172 2136 1985 1953 1527 1018 719 1036 1325 1191 1041 714 634 165 174 80 42 295 41 11 1 0 0 0 0 0 0 0 0 0 0
1552 1743 2014 2250 2363 2414 2493 2510 2561 2581 2415 2403 2221 2078 1927 1792 1839 845 616 745 909 1070 742 561 365 209 47 2 2 0 0 3 0 0 0 0 0 0 0 0 0 0 0
1480 1766 2096 2267 2472 2673 2718 2789 2766 2633 2562 2543 2411 2169 2032 1893 1518 592 611 359 343 235 129 11 40 5 0 11 0 0 0 0 0 0 0 0 0 0 0 0 0 0 0
436 1119 1439 2023 2352 2660 2820 2938 2871 2892 2728 2542 2580 2420 2107 1120 571 371 367 20 15 16 10 1 0 13 0 1 0 0 0 0 0 0 0 0 0 0 0 0 0 0 0
0 15 289 848 1489 2090 2503 2896 1838 1789 2474 2363 2366 2345 1629 758 247 177 60 5 1 0 0 0 10 1 0 0 0 0 0 0 0 0 0 0 0 0 0 0 0 0 0
79 55 261 1073 1124 1057 1897 2535 2053 1295 1104 1846 1844 1347 848 136 266 150 98 0 0 0 0 0 0 0 0 0 0 0 0 0 0 0 0 0 0 0 0 0 0 0 0
10 29 217 20 42 367 717 1061 1345 930 1076 750 472 634 326 48 135 0 0 0 0 0 0 0 0 0 0 0 0 0 0 0 0 0 0 0 0 0 0 0 0 0 0
13 60 32 0 0 0 0 0 0 72 509 32 4 2 0 0 0 0 0 0 0 1 2 2 2 4 10 0 0 0 0 0 0 0 0 0 0 0 0 0 0 0 0
42 0 9 40 0 0 0 0 0 0 0 0 1 0 0 0 0 0 0 0 2 0 62 54 23 33 10 0 0 0 0 0 0 0 0 0 0 0 0 0 0 0 0
45 46 0 5 5 2 0 0 0 0 0 0 8 0 1 0 0 1 3 1 5 1 46 88 13 19 0 0 0 0 0 0 0 0 0 0 0 0 0 0 0 0 0
16 6 3 3 2 2 0 0 0 1 2 3 0 0 1 3 5 5 3 13 14 32 70 57 0 0 0 0 0 0 0 0 0 0 0 0 0 0 0 0 0 0 0
30 14 0 2 4 3 4 3 2 2 0 0 0 1 2 3 3 3 3 0 0 13 9 0 0 0 0 0 0 0 0 0 0 0 0 0 0 0 0 0 0 0 0
1 2 1 3 7 4 6 4 2 2 3 5 4 1 3 8 0 0 0 0 4 3 13 10 0 0 0 0 0 0 0 0 0 0 0 0 0 0 0 0 0 0 0
0 0 0 0 0 0 3 1 0 0 1 2 2 2 1 0 0 0 4 10 3 11 1 0 0 0 0 0 0 0 0 0 0 0 0 0 0 0 0 0 0 0 0
0 0 0 0 0 0 0 0 0 0 0 0 0 0 0 0 0 2 0 14 22 23 0 0 0 0 0 0 0 0 0 0 0 0 0 0 0 0 0 0 0 0 0

GFSGL_con_mlcape_024.txt.gz
CAPE
1848 1979 1918 1833 1851 2000 1989 2211 2274 1944 1971 1960 1890 1844 1692 1898 2105 2275 2099 1630 1849 1469 716 378 290 43 0 0 0 0 0 0 0 0 0 3 42 97 8 0 38 60 67
1725 2086 2066 2065 1988 1828 2052 2117 2299 2100 2157 2155 2068 2025 1809 1747 2023 2211 2243 1598 1866 1648 1287 747 510 146 93 16 1 0 0 0 0 0 0 0 41 72 237 238 158 65 78
1822 1877 1939 1982 2030 2010 2233 2140 2294 2373 2341 1963 2227 2266 2092 1870 1896 2084 2284 2150 1877 1893 1606 1261 876 291 143 10 10 0 0 0 0 0 0 8 11 43 168 311 209 194 101
1404 1720 1965 2208 2137 2199 2312 2302 2338 2471 2445 2335 2370 2495 2319 2131 1953 1938 2212 2202 2058 1989 1974 1653 1201 665 268 192 42 30 2 1 0 0 0 0 11 32 10 10 125 311 110
1407 1518 2005 2277 2487 2428 2373 2483 2450 2545 2507 2520 2456 2532 2550 2187 1882 2084 2153 2127 2158 2142 2099 2018 1628 1068 504 355 116 110 77 62 0 6 0 0 0 21 17 15 20 21 67
1519 1667 1891 2310 2524 2518 2564 2574 2562 2540 2625 2595 2429 2554 2501 2249 1713 1462 2039 2154 2263 2290 2213 2158 1870 1094 574 218 76 49 225 198 59 4 4 11 2 16 35 22 26 13 29
1517 1905 2029 2293 2441 2588 2595 2659 2584 2585 2645 2633 2639 2609 2643 2644 1673 1284 1338 1922 2237 2189 2275 2315 2136 1646 839 745 86 6 23 76 118 235 239 166 154 312 298 159 39 75 53
1784 1894 2156 2219 2417 2532 2641 2691 2733 2729 2604 2712 2764 2708 2686 2779 2143 1299 1126 1595 2167 2217 2129 2349 2373 2068 1514 1073 980 267 91 88 54 18 136 396 499 458 461 263 185 53 148
1749 1750 2007 2119 2175 2406 2696 2763 2830 2735 2770 2803 2862 2869 2772 2712 2229 1600 1156 1481 1642 2252 2356 2475 2457 2414 2119 952 1174 1150 637 397 127 64 41 87 148 73 123 88 25 17 21
1768 1919 2105 2296 2406 2380 2589 2826 2898 2879 2811 2618 2737 2862 2897 2768 2497 1689 1381 1603 1565 1736 2275 2512 2040 2308 2002 1063 994 1405 1389 927 511 390 176 21 0 0 0 6 20 28 5
1827 1862 2116 2468 2562 2580 2727 2935 2864 2804 2548 2814 2843 2921 3006 2826 2925 1724 1380 1753 1771 1742 1538 1991 2351 1531 1086 875 696 1248 1186 946 518 382 245 136 11 0 0 0 0 0 0
1916 2002 2304 2608 2544 2412 2943 3083 2914 2851 2879 2830 2905 2929 2914 3093 2561 1770 1429 1405 1871 1826 1784 1780 1980 1123 608 420 283 555 506 438 567 135 134 44 6 0 0 0 0 0 0
2083 2203 2427 2716 2751 2601 2959 3043 3025 3083 2737 2877 2768 2825 2834 2865 3012 2139 1191 1385 1301 1973 1921 1774 1448 785 304 135 57 165 283 226 188 121 156 57 22 2 0 0 0 0 0
2632 2780 2826 2990 3017 2916 2767 2884 2892 2861 3051 2819 2833 2944 2878 2792 2805 2644 1282 800 1074 1202 1228 829 429 85 10 4 0 0 183 223 240 157 123 61 5 0 0 0 0 0 0
2685 2675 2828 2853 2897 2975 3115 2842 2853 2968 2882 3099 2991 2876 2982 2816 2824 2491 1142 522 738 529 312 176 93 30 14 5 1 3 50 77 97 103 81 24 0 0 0 0 0 0 0
717 656 922 1236 1511 2128 2362 2831 2218 2214 2027 2153 2189 2653 2912 2756 2243 1765 692 651 399 6 185 117 35 85 11 2 15 18 11 38 73 40 28 0 0 0 0 0 0 0 0
936 875 974 973 1388 1228 1326 1595 1859 2093 2298 2144 2070 1882 1902 2193 1485 1051 518 367 47 103 308 119 82 4 0 0 0 0 2 45 33 21 0 0 0 0 0 0 0 0 0
547 321 457 435 635 886 926 773 732 754 930 1325 1237 668 783 931 953 487 90 9 0 145 160 39 9 0 0 0 0 3 1 14 10 2 1 0 0 0 1 0 0 0 0
461 436 203 1 0 0 6 1 0 0 0 20 1 0 1 1 83 103 0 59 3 37 20 0 0 0 0 0 3 1 5 41 7 5 0 0 0 0 0 0 0 0 0
214 0 11 215 155 135 89 37 0 0 6 2 0 0 0 0 0 2 1 2 2 3 4 18 7 1 13 31 4 3 1 3 2 0 0 0 0 0 0 0 0 0 0
172 57 0 3 6 10 29 1 1 2 0 8 6 0 0 0 0 0 0 3 6 8 15 50 68 44 53 38 9 0 0 2 0 0 0 0 0 0 0 0 0 0 0
133 49 20 7 7 3 5 5 10 9 16 4 1 0 0 0 0 0 0 41 99 65 53 107 67 64 58 57 0 0 1 0 0 0 0 0 0 0 0 0 0 0 0
47 178 76 64 48 3 4 3 4 4 3 1 2 0 0 0 0 2 16 12 45 71 165 122 178 132 83 27 0 0 0 0 0 0 0 0 0 0 0 0 0 0 0
0 5 4 5 3 12 11 8 5 0 3 1 0 0 1 3 7 17 4 20 62 72 27 12 7 3 0 0 0 0 0 0 0 0 0 0 0 0 0 0 0 0 0
0 0 1 4 6 6 5 5 6 4 2 2 2 1 1 1 1 1 1 0 0 0 0 0 1 4 18 28 0 0 0 0 0 0 0 0 0 0 0 0 0 0 0
0 0 0 0 0 1 0 0 1 2 3 1 2 3 5 2 0 0 0 0 0 0 6 18 25 25 19 3 0 0 0 0 0 0 0 0 0 0 0 0 0 0 0

GFSGL_con_mlcape_027.txt.gz
CAPE
2561 2555 2451 2578 2639 2781 2488 2694 2502 2586 2731 1972 2438 2146 2262 2351 2496 2583 2186 1863 2299 2135 1640 1145 788 321 13 5 0 0 0 0 0 0 3 5 0 1 1 0 0 12 0
2531 2729 2628 2601 2573 2633 2719 2507 2869 2738 2759 3068 2625 2685 2607 2428 2509 2616 2575 1635 2196 2249 1977 1425 875 678 301 71 32 49 0 0 0 0 7 44 45 48 115 234 111 32 55
2324 2497 2920 2780 2718 2499 2749 2827 2839 2966 2962 2843 2949 3017 2901 2580 2459 2759 2795 2596 2289 2307 2194 2041 1414 1045 765 69 19 43 25 31 48 0 0 0 4 134 267 404 428 246 150
1972 2107 2437 2904 2771 2866 2782 3027 2955 3065 3094 3028 2924 3075 3106 3015 2626 2649 2727 2772 2603 2401 2451 2385 2083 1550 1146 764 478 107 157 58 41 22 0 0 3 49 75 30 95 180 244
2151 2264 2375 2819 3087 3141 3078 3037 3178 3151 3197 3188 3127 3098 3380 3248 2640 2620 2471 2719 2891 2717 2544 2693 2516 2060 1453 1111 578 441 117 125 0 18 34 9 0 17 121 99 37 43 179
2220 2258 2453 2725 3168 3312 3318 3320 3439 3264 3371 3377 3251 3110 3125 3259 2527 1992 2541 2599 2831 3018 2861 2855 2677 2115 1448 962 646 571 505 391 172 2 0 29 106 42 50 49 84 41 16
1847 2472 2353 2746 3034 3382 3570 3542 3497 3533 3521 3478 3394 3358 3234 3325 2604 1836 1823 2565 2815 3004 3023 2882 2843 2260 1894 1355 658 424 238 368 399 405 81 125 303 250 261 332 197 202 30
2231 2235 2637 2570 3109 3404 3575 3603 3684 3667 3551 3581 3593 3564 3429 3416 2990 2126 1676 2012 2578 2896 2901 2984 2976 2405 2304 1931 1514 792 481 296 306 153 423 588 412 528 703 490 383 285 122
2165 2610 2489 2849 3051 3440 3518 3595 3712 3696 3700 3588 3672 3655 3586 3504 3085 2599 1867 2003 2297 2448 2874 3005 2902 2908 2854 1720 1831 1698 997 567 353 119 23 216 207 312 417 373 90 76 3
2333 2552 2881 3052 3179 3435 3571 3610 3720 3764 3734 3654 3626 3674 3673 3698 3480 2759 2303 2392 2250 2455 2601 2964 2544 2800 2754 1783 1863 1943 1768 1208 719 261 35 4 35 53 78 278 87 67 38
1982 2383 3129 3254 3507 3502 3490 3674 3868 3877 3573 3687 3584 3651 3734 3735 3774 3032 2351 2775 2420 2333 2506 2648 2955 2204 2470 1869 1747 2144 1910 1687 983 698 219 192 154 279 146 19 19 10 7
2066 2484 2988 3274 3252 3149 3671 3727 3863 3879 3794 3635 3713 3541 3651 3794 3559 3323 2510 2426 2762 2376 2416 2467 2647 2317 1850 1870 1495 1933 1794 1651 1387 654 364 308 186 146 128 32 2 3 0
2581 2912 3147 3344 3421 3262 3583 3756 3674 3713 3293 3272 3237 3417 3475 3384 3813 3302 2525 2206 2336 2492 2469 2597 2093 1736 1509 1347 1204 959 1063 1270 1050 367 281 205 137 121 97 1 0 0 0
2763 2869 2991 3145 3324 3398 3092 3430 3240 3137 3200 3250 2969 3200 2948 3164 3291 3719 2857 1865 1786 1960 2187 2190 1310 1042 1269 1581 638 493 627 745 646 279 164 116 108 75 10 0 0 0 0
3283 3264 3275 3198 3240 3465 3455 2943 3108 3217 3028 3151 3189 2969 2995 3139 3198 3296 3346 3175 2064 1444 1760 1442 711 390 727 444 475 327 217 297 279 271 119 106 66 4 0 0 0 0 0
2881 3092 2986 2865 3106 3183 3138 3420 2826 2654 2399 2281 2001 2039 2658 2623 2244 2048 2573 2576 1986 1281 1274 1099 697 503 394 290 243 119 67 145 87 97 55 26 36 0 0 0 0 0 0
1729 1479 1232 817 1104 1276 1642 1855 1951 2062 2026 2138 1678 1013 655 475 944 1110 1250 1543 1414 1035 1599 925 562 335 312 176 102 84 37 4 47 2 21 45 21 0 0 0 0 0 0
688 482 948 884 1090 1345 1445 1243 916 630 515 386 22 0 0 0 0 28 135 137 290 601 1293 1029 430 191 150 61 42 82 51 3 1 21 56 46 2 0 0 0 0 1 0
661 715 644 303 70 138 436 515 270 97 60 0 0 0 0 0 0 0 0 1 212 3 363 724 144 78 15 2 38 29 2 3 3 100 37 11 7 3 0 0 0 0 0
162 15 131 419 388 506 421 344 75 7 1 0 0 0 0 0 0 0 0 0 0 4 0 23 50 20 2 3 14 33 17 63 16 54 2 0 1 0 0 2 0 0 0
127 117 62 164 100 126 190 161 101 68 21 0 0 0 0 0 4 1 2 0 2 15 5 0 0 1 2 10 11 54 54 24 5 18 5 0 0 0 0 0 0 0 0
83 36 16 8 3 5 4 4 5 2 1 0 0 3 0 4 5 4 7 2 0 0 14 16 1 4 5 103 66 83 70 23 7 12 0 0 0 0 0 0 0 0 0
26 16 3 0 20 22 7 1 4 2 3 2 2 3 4 7 7 3 18 23 9 31 13 34 35 58 79 104 72 48 33 8 12 5 1 0 0 0 0 0 0 0 0
7 1 1 0 0 2 0 1 2 0 2 2 2 3 2 1 0 0 3 15 21 0 43 53 52 89 56 20 2 3 31 9 9 14 0 0 0 0 0 0 0 0 0
0 0 1 3 3 1 1 2 3 2 1 3 3 1 0 0 2 2 0 0 0 1 1 11 19 49 18 19 10 10 2 0 5 0 0 0 0 0 0 0 0 0 0
0 0 0 0 0 0 0 0 1 0 0 0 2 2 1 0 2 3 2 0 0 0 0 0 0 0 9 13 13 3 1 3 3 0 0 1 2 2 1 0 0 0 0

GFSGL_con_mlcape_030.txt.gz
CAPE
2794 2733 2654 2772 2136 1992 2201 1746 2322 1537 2562 1436 2820 2549 2390 2389 2474 2658 2368 2171 2239 2066 2096 1592 1061 135 25 65 22 9 0 0 0 0 33 0 0 0 0 0 0 0 0
3072 3058 2856 2820 2992 2512 1769 2118 2351 2908 1878 2855 2267 2388 2625 2429 2500 2529 2623 1937 2326 2335 2087 1870 1597 870 189 215 404 14 0 0 0 0 23 0 0 0 3 33 0 0 41
3041 3160 3062 2958 2893 2949 2899 2013 2529 2541 3141 2403 3083 2710 2487 2588 2421 2737 2697 2615 1922 2693 2649 2230 1680 1381 904 126 143 285 51 123 209 7 15 104 111 254 48 45 203 217 70
2846 3120 3097 3146 3000 2976 2919 2976 2355 2854 2691 2870 2816 3053 3096 2830 2780 2660 2751 2778 2645 2203 2730 2725 2276 1572 1247 954 103 28 381 145 65 175 44 0 150 214 314 121 202 289 296
2107 2901 2977 3057 3275 3042 3036 3023 3196 2810 2866 2913 2923 3005 3022 3211 3035 2803 2691 2802 2904 2725 2517 2790 2655 2273 1618 1438 879 514 42 482 448 187 189 201 67 92 259 242 126 49 124
2227 2371 2689 2904 3067 3445 3260 3216 3230 3294 3216 3235 3283 3144 3101 3223 3153 2793 2745 2798 2985 2853 2807 2657 2858 2559 2188 1593 1375 813 672 102 224 296 230 159 172 110 205 122 109 29 18
2429 2588 2613 2825 2987 3228 3478 3443 3385 3419 3488 3413 3447 3465 3225 3261 3061 2772 2625 2787 2846 2893 2898 2926 2851 2779 2487 2024 1436 1207 719 632 336 166 96 104 226 254 281 280 252 153 86
2378 2477 3167 3033 3056 3276 3469 3626 3673 3671 3688 3624 3638 3672 3564 3513 3156 2754 2553 2628 2774 2805 2887 2959 2939 2841 2814 2415 1814 1301 1107 691 526 568 430 266 304 598 551 505 356 202 186
1994 2296 2314 3248 3263 3419 3586 3742 3854 3912 3880 3884 3815 3842 3837 3713 3366 2921 2501 2583 2503 2615 2949 3018 3077 3074 2918 2408 2122 1638 1333 1063 596 388 452 685 458 128 594 446 338 148 71
1883 2113 2759 2649 3175 3349 3711 3928 4018 4094 4076 4054 4024 3943 3919 3929 3744 3152 2739 2912 2590 2470 2640 2953 2938 3162 3022 2404 2310 2079 1772 1409 973 481 223 112 51 186 280 492 269 132 94
2155 2467 2863 3298 3116 3430 3625 4062 4139 4202 4191 4098 4063 4096 4010 3940 3975 3498 2879 3245 3139 2793 2515 2573 2771 2691 2838 2483 2292 2322 2195 1901 1196 739 302 125 52 37 34 87 232 157 124
1749 2634 3136 3267 3498 3649 3752 4105 4170 4096 4086 4032 4121 4037 4078 4116 3925 3783 3067 3002 3377 3262 3000 2608 2564 2592 2363 2298 2090 2316 2098 1936 1575 868 399 133 79 43 59 63 122 158 87
2951 2729 2935 3576 3805 3409 3887 3947 4092 4084 4063 4059 4027 3961 4157 4044 3961 3764 3272 2939 2971 3080 3224 3081 2251 2201 2185 1918 1938 1948 1727 1937 1775 1107 677 352 208 104 68 104 55 77 29
3335 3513 3517 3839 3941 3912 3804 4061 3996 3943 3928 3886 3847 3892 3816 3698 3702 3760 3306 2661 2707 2724 2808 2857 2830 2603 1431 1445 1405 1325 1765 1878 1759 1163 765 453 254 119 42 66 42 8 0
3200 3480 3737 3691 3769 3942 3887 3400 4074 3803 3633 3712 3659 3478 3291 3427 2120 855 1466 2303 2405 2495 2816 2900 2789 2463 2500 1442 1088 870 1338 1715 1565 1173 580 258 102 61 0 0 6 0 0
3792 3745 3650 3456 3578 3434 3761 3529 3361 2903 1979 1266 912 1322 1420 181 1 54 330 969 1412 1914 1931 2512 2725 2600 2087 1995 1408 797 760 1224 1269 863 365 183 47 7 0 0 0 0 0
2252 2279 1545 2037 1907 3915 3530 3962 3848 1381 768 449 18 0 0 0 0 0 0 0 25 466 1873 1913 2083 2321 1961 1542 1294 862 682 739 795 415 182 114 35 14 0 0 0 0 0
1089 879 1147 1217 1408 1315 1071 980 869 751 862 440 7 0 0 0 0 0 0 0 0 0 261 1126 1519 1508 1485 1157 854 737 609 379 242 112 30 17 18 0 0 0 0 0 0
1182 957 566 321 323 564 714 674 413 247 262 145 12 0 0 0 0 0 0 0 0 0 0 1 0 9 166 499 556 372 312 202 106 7 0 0 1 2 0 0 0 0 0
186 170 548 751 640 691 558 489 229 79 5 21 0 0 0 0 0 0 0 0 0 0 1 3 2 3 2 0 6 41 55 37 5 1 0 2 14 0 0 0 0 0 0
211 167 163 158 120 98 74 39 16 8 6 1 0 0 0 0 2 1 0 1 0 0 0 4 0 0 0 0 0 2 2 2 1 2 20 175 40 0 0 0 0 0 0
50 13 2 3 1 1 0 0 0 1 1 0 0 0 0 1 4 2 5 9 7 4 1 1 0 0 0 0 0 0 0 0 0 31 75 23 0 0 0 0 0 0 0
6 0 0 0 0 1 1 5 2 2 2 1 2 3 3 3 3 2 6 8 10 5 5 1 0 1 2 27 30 15 0 0 7 7 0 0 0 0 0 0 0 0 0
1 0 0 0 0 0 0 0 0 0 0 0 3 2 4 4 3 4 3 1 1 0 14 7 0 0 4 20 9 7 1 0 0 0 0 0 3 0 0 0 0 0 0
3 1 0 0 0 0 0 0 0 0 0 0 2 3 4 3 4 4 4 4 1 0 0 0 2 4 3 0 0 0 0 0 0 0 0 1 0 0 0 0 0 0 0
0 0 0 0 0 0 0 0 0 0 0 0 1 2 4 3 4 4 6 4 2 1 2 0 0 0 44 46 23 1 0 0 0 0 3 0 6 3 0 0 0 0 0

GFSGL_con_mlcape_033.txt.gz
CAPE
1697 1522 1669 1317 1096 1730 1762 777 640 1594 1455 865 1572 1554 1595 1624 1850 1599 1334 1788 2062 1825 1855 1539 1112 282 22 24 82 49 0 0 0 0 0 0 0 0 0 0 0 0 0
1962 1733 1858 1878 1628 1121 1917 1782 433 1219 1353 1967 1649 1871 1929 1667 1615 1931 1723 1809 1824 1757 1981 1742 1501 1175 313 0 141 27 17 0 0 0 38 45 0 0 0 0 0 0 0
2190 2256 1985 2044 2187 1768 1397 1529 2006 768 1416 1250 2114 2331 2104 2058 1976 1986 1969 1962 1969 2048 1934 1947 1731 1433 931 591 31 310 70 5 7 0 10 51 2 1 0 0 0 0 1
2310 2376 2411 2350 2383 2438 2137 1676 1340 2078 1659 2046 1544 1989 2528 2294 2080 2120 2039 1901 1960 1750 2112 2376 2017 1715 1382 1047 676 92 329 179 122 96 5 64 160 91 14 27 44 100 68
2312 2500 2514 2629 2595 2597 2543 2631 2272 1433 1920 2131 2313 2263 2289 2534 2429 2255 2192 2129 2016 2025 1755 1984 2434 2218 1772 1440 1130 607 93 380 247 164 124 47 4 141 300 155 48 64 139
2040 2339 2707 2765 2745 2686 2710 2576 2777 2676 1964 2177 2469 2266 2511 2671 2736 2394 2414 2398 2330 2187 2078 1945 2178 2336 2254 1797 1442 1068 551 7 328 275 129 111 37 0 60 203 184 130 133
1711 2177 2573 2786 2786 2825 2779 2798 2686 2693 2838 2394 2151 2653 2374 2619 2696 2642 2583 2645 2532 2516 2402 2364 2232 2428 2471 2328 1675 1379 1104 798 131 129 180 64 39 55 68 146 147 116 61
1812 1933 2106 2726 2866 2901 3021 2890 2969 2881 2915 3004 2905 2586 2880 2834 2671 2566 2518 2852 2759 2600 2721 2672 2547 2494 2515 2513 2356 1786 1428 1113 939 286 105 144 72 42 40 87 87 77 46
2147 2189 2199 2446 2715 2924 2980 3180 3174 3224 3168 3167 3258 3228 3119 3151 3016 2769 2489 2732 2829 2811 2748 2763 2865 2780 2727 2411 2513 2295 1834 1550 849 684 384 76 27 298 522 418 184 84 39
2617 2761 2810 2631 2775 2819 3007 3135 3288 3374 3401 3457 3388 3525 3421 3405 3331 2931 2762 2975 2866 2814 2809 2716 2639 2823 2859 2523 2539 2469 2267 1876 1359 930 454 243 242 193 249 251 154 78 43
2058 2045 2415 2825 3004 3230 3197 3258 3448 3538 3624 3645 3753 3699 3733 3678 3607 3252 2970 3264 3201 3088 2916 2749 2614 2402 2462 2586 2423 2673 2429 2125 1478 1156 901 596 191 322 204 138 90 103 63
2122 2340 2268 2325 2496 2986 3281 3593 3731 3853 3871 3895 3903 3911 3880 3886 3782 3504 3142 3072 3439 3298 3291 3175 2966 2477 2134 2169 2137 2615 2503 2091 1853 1283 1030 826 454 116 115 127 117 109 47
1535 1371 2471 2563 2821 2997 3243 3631 3871 3997 4017 4011 3977 3927 3871 3825 3843 3641 3383 3140 3132 3424 3577 3416 3184 2880 2431 1906 1909 2086 2139 2304 2294 1904 1432 1156 535 214 71 37 90 87 3
1975 2938 3030 3278 3379 3331 3641 3777 3957 4007 4032 3963 3808 3669 3584 3533 3545 3274 2884 2474 2283 2330 2702 3122 3192 3016 2864 2403 1809 1241 1162 1858 2297 2355 1904 1385 705 69 51 18 1 29 3
3160 3967 3605 3464 3517 3713 3629 3782 3793 3514 3572 3501 3451 3285 3278 3095 1658 482 885 1548 1784 1689 1640 1910 2446 2791 2801 2847 2177 1749 1125 1140 1548 1923 2136 1683 635 30 52 31 25 4 0
3489 3491 3718 3673 3841 3841 3636 2606 1234 1770 1726 1554 1969 1678 40 5 0 0 0 0 0 15 586 1465 1889 2243 2594 2788 2752 2658 1875 1232 1245 1313 1539 1540 769 49 50 3 1 1 4
2409 3360 3384 3041 3341 3398 3611 2940 1384 0 0 0 0 0 0 0 0 0 0 0 0 0 3 448 1172 1594 1960 2278 2385 2280 2156 1705 1258 1007 1250 1414 727 222 80 1 2 2 1
1189 874 1475 1340 1991 2115 2164 3178 1336 784 334 0 0 0 0 0 0 0 0 0 0 0 0 0 0 0 0 0 0 0 1 126 854 923 897 1060 826 234 3 1 1 1 0
530 421 359 472 512 642 381 241 352 171 32 0 0 0 0 0 0 0 0 0 0 0 0 0 0 0 0 0 0 0 0 1 3 5 2 392 635 77 2 0 1 0 0
283 439 373 310 278 177 132 44 23 19 0 0 0 0 0 0 0 0 0 0 0 0 0 0 0 0 0 0 0 0 0 0 0 1 9 3 4 1 1 1 2 0 1
43 30 13 0 0 0 0 0 0 0 0 0 0 0 0 0 0 0 0 3 5 4 0 0 0 0 0 0 0 0 1 0 0 0 0 0 0 0 0 0 2 2 0
0 0 0 0 0 0 0 0 0 0 1 1 1 1 0 0 1 1 2 2 0 0 1 14 3 0 0 3 2 0 0 0 0 0 0 0 1 0 1 4 8 1 0
0 0 0 0 0 0 0 0 0 0 0 2 1 2 3 3 2 2 3 2 1 1 0 1 6 2 1 4 4 5 6 3 1 0 0 1 1 0 0 0 0 0 0
0 0 0 0 0 0 0 0 0 0 1 2 3 3 4 5 5 5 4 4 3 0 0 0 0 0 0 1 0 0 0 0 0 0 0 0 0 0 0 0 0 0 0
0 0 0 0 0 0 0 0 0 0 0 1 3 2 2 3 3 4 4 4 6 5 1 0 0 0 0 0 0 0 0 0 0 0 0 0 0 0 0 0 0 0 0
0 0 0 0 0 0 0 0 0 0 0 0 0 0 0 1 2 3 5 5 4 5 7 7 6 0 0 0 0 0 0 0 0 0 0 0 0 0 0 0 0 0 0

GFSGL_con_mlcape_036.txt.gz
CAPE
1252 1188 996 810 850 1593 1068 681 516 789 953 885 1203 1140 1318 1320 1441 1351 1235 1344 1355 1390 1540 1351 732 194 24 11 9 26 5 2 0 0 2 2 0 0 0 0 0 0 0
1374 1430 1374 1300 918 846 1443 1283 785 532 694 1106 1147 1297 1343 1495 1556 1485 1290 1308 1593 1757 1679 1577 1414 1190 584 0 3 9 58 4 0 0 0 20 9 0 0 0 0 0 0
1451 1480 1496 1500 1301 975 907 1415 1447 982 754 858 1556 1370 1230 1452 1584 1674 1523 1376 1291 1444 1674 1705 1620 1528 1297 959 41 0 24 44 0 0 0 3 26 9 1 0 0 0 0
1610 1576 1438 1512 1546 1351 1121 947 1456 1610 981 775 1099 1652 1799 1712 1586 1641 1679 1581 1496 1534 1526 1696 1660 1659 1598 1435 1043 313 4 48 71 3 0 0 1 8 0 0 0 0 0
1754 1747 1646 1520 1647 1777 1628 1343 1105 1244 1520 1264 910 1154 1791 1906 2117 1963 1804 1650 1675 1807 1694 1749 1848 1833 1751 1667 1448 1197 766 348 51 185 28 0 9 25 19 2 0 0 0
1760 1785 1856 1890 1743 1776 1889 1911 1692 1449 1219 1422 1471 1569 1353 1705 2028 1989 2180 2062 1849 1813 1795 1731 1670 1832 1844 1805 1762 1686 1365 1169 723 136 122 81 26 8 24 22 7 4 23
1769 1867 2031 2039 2155 2068 2049 2144 2156 2006 1871 1368 1322 1642 1682 1947 2020 2059 2090 2265 2203 2136 2064 1989 1958 1875 1859 1913 1476 1594 1635 1357 1264 659 361 58 29 3 0 8 37 18 17
1550 1908 2127 2356 2304 2402 2434 2374 2365 2373 2445 2249 1853 1693 1915 1909 1869 1937 2088 2340 2360 2305 2332 2308 2251 2242 2158 2043 2083 1657 1474 1512 1140 829 381 303 72 33 2 0 1 23 6
1350 1455 2085 2310 2494 2591 2586 2625 2618 2644 2556 2546 2596 2394 2063 2081 2140 1988 1984 2255 2387 2589 2628 2510 2528 2506 2408 2125 2228 2256 2002 1688 1430 1082 980 688 183 56 1 0 5 9 22
1486 1620 1669 2177 2425 2552 2618 2674 2769 2742 2728 2691 2658 2746 2764 2649 2310 2249 2200 2480 2458 2495 2600 2737 2531 2532 2592 2363 2382 2427 2458 2352 1835 1612 980 657 405 129 38 32 53 7 5
1828 1671 1772 1840 2068 2425 2607 2783 2846 2958 2880 2912 2927 2886 2978 2988 3010 2571 2393 2892 2965 2932 2842 2847 2792 2568 2366 2310 2267 2666 2653 2557 2385 1970 1608 1174 751 526 101 75 90 47 12
2206 2289 2263 2308 2233 2385 2512 2665 2828 2866 3026 3091 3144 3260 3267 3259 3206 2948 2749 2754 3210 3280 3228 3211 3164 2856 2487 2193 1897 2079 2299 2371 2511 2476 1937 1662 1335 720 452 190 105 95 69
1913 2225 2344 2540 2793 2913 2864 2853 2910 3074 3120 3233 3346 3406 3512 3544 3611 3317 3133 2956 2915 3285 3509 3507 3346 3090 2723 2307 1905 2076 1837 1744 2088 2445 2493 2280 1524 1147 665 284 152 112 69
1939 1715 1663 1512 2212 2602 2840 2988 3061 3238 3443 3567 3633 3683 3705 3634 3553 3190 2985 2710 2455 2325 2472 2784 2936 2896 2778 2697 2336 1875 1469 1611 1877 2134 2221 2421 2247 1590 962 509 153 48 32
2584 2836 2700 2353 2461 2805 2397 2412 3360 3439 3505 3646 3786 3774 3649 3477 2427 1679 1958 2182 1984 1639 1686 1758 1944 2014 2181 2355 2505 2539 2193 1738 1511 1370 1456 1703 1936 2076 1329 523 114 45 23
2257 3025 3721 3586 3429 3337 2548 1548 239 1088 2225 2941 3002 2529 643 713 77 44 6 1 0 3 320 602 589 728 1059 1516 1962 2279 1940 1310 1161 983 1029 1194 1284 1493 1552 775 153 11 22
1638 1591 2976 3554 3690 3482 2296 1614 1289 20 4 8 10 3 6 0 0 0 0 0 0 0 0 0 0 3 16 6 1 0 0 0 0 0 0 3 233 571 815 453 286 9 3
805 1043 1939 2520 2799 3331 2334 1415 917 1068 556 0 0 0 0 0 0 0 0 0 0 0 0 0 0 0 0 0 0 0 0 0 0 0 0 0 3 19 9 0 14 114 111
403 529 618 603 827 1707 1487 572 254 0 0 0 0 0 0 0 0 0 0 0 0 0 0 0 0 0 0 0 0 0 0 0 0 0 0 0 0 0 0 1 2 1 13
109 171 249 176 35 204 296 84 0 0 0 0 0 0 0 0 0 0 0 0 0 0 0 0 0 0 0 0 0 0 0 0 0 0 0 0 0 0 0 0 0 0 0
18 0 0 0 0 0 0 0 0 0 2 1 0 0 0 0 0 0 0 0 0 1 1 0 0 0 0 0 0 0 0 0 0 0 0 0 0 0 0 0 0 0 0
0 0 0 0 0 0 0 1 0 0 2 1 1 1 0 0 0 2 2 3 4 2 0 2 0 0 0 0 0 0 0 0 0 0 0 0 0 0 1 0 0 0 0
0 0 0 0 0 0 0 1 1 2 2 2 2 1 0 1 1 1 1 3 3 2 1 0 0 0 0 1 4 2 3 0 4 1 0 0 0 0 0 0 0 0 0
0 0 0 0 0 0 0 1 3 2 2 2 1 2 2 4 4 3 3 5 5 5 5 7 6 4 1 0 0 0 0 0 0 0 0 0 0 0 0 0 0 0 0
0 0 0 0 0 0 0 0 0 0 0 0 0 0 0 0 2 5 4 2 3 3 6 6 6 3 4 0 0 0 0 0 0 0 0 0 0 0 0 0 0 0 0
0 0 0 0 0 0 0 0 0 0 0 0 0 0 0 0 0 0 0 2 2 2 4 5 6 4 1 3 0 0 0 0 0 0 0 0 0 0 0 0 0 0 0

GFSGL_con_mlcape_039.txt.gz
CAPE
428 384 395 475 488 512 504 406 435 319 486 604 535 599 745 752 869 1057 1311 1151 892 789 1076 1086 994 559 413 204 15 14 24 0 2 0 0 0 0 0 0 0 0 0 0
565 515 550 657 737 804 665 541 489 595 602 609 734 775 836 1010 994 1021 1182 1474 1231 949 990 1228 1210 1256 1027 509 85 12 1 0 18 20 0 0 0 0 0 0 0 0 0
602 695 662 664 686 820 1094 1041 614 544 668 698 771 1044 1056 1179 1257 1215 1231 1290 1442 1337 1113 1117 1262 1349 1170 1161 976 428 0 0 0 0 11 0 0 0 0 0 0 0 0
721 891 959 968 895 726 734 1046 1237 882 703 799 797 721 1018 1225 1275 1389 1426 1406 1381 1433 1454 1400 1382 1426 1398 1212 1091 1064 785 184 0 0 0 0 0 0 0 0 0 0 0
978 1094 1153 1194 1215 1127 956 876 1097 1183 930 785 921 1084 987 1152 1471 1461 1436 1429 1441 1470 1426 1417 1451 1495 1431 1445 1368 1175 953 850 663 166 0 0 0 0 3 1 0 0 0
1259 1210 1212 1204 1303 1314 1239 1146 999 1105 1264 1072 753 894 1128 1226 1192 1345 1572 1705 1697 1639 1574 1515 1466 1503 1581 1436 1337 1457 1420 1064 968 840 806 505 171 1 0 0 0 0 0
1472 1452 1418 1343 1292 1358 1418 1422 1293 1068 1107 1166 1202 953 833 1018 1152 1250 1403 1736 1721 1784 1852 1806 1772 1726 1694 1786 1508 1423 1286 1329 1465 1474 985 918 637 315 43 3 0 0 0
1600 1622 1657 1692 1594 1514 1602 1683 1686 1589 1353 1230 1112 1232 1301 1319 1245 1033 1232 1650 1811 1876 1892 1856 1860 1913 1905 1847 1911 1868 1622 1548 1253 955 1252 1496 991 681 105 36 20 4 0
1498 1680 1823 1854 1842 1926 1864 1807 1874 1946 1961 1847 1735 1489 1314 1405 1441 1411 1371 1643 1859 1985 2114 2117 2179 2182 2127 1932 2066 2161 2196 2046 1530 1321 1182 1175 1098 823 454 30 29 0 15
1403 1679 1895 1956 2021 2057 2127 2139 2097 2198 2211 2314 2394 2434 2141 1911 1701 1606 1418 1771 1853 1938 2166 2302 2271 2330 2311 2188 2294 2352 2406 2357 2285 2004 1565 1220 994 921 328 115 157 44 3
1113 1219 1565 1912 2023 2229 2248 2337 2410 2451 2519 2563 2559 2506 2561 2472 2376 1843 1726 2143 2215 2296 2347 2416 2465 2375 2271 2208 2155 2553 2579 2603 2604 2441 2385 2024 1645 1428 1338 553 313 183 216
1230 1274 1376 1464 1957 2146 2376 2445 2511 2613 2644 2657 2663 2678 2681 2695 2585 2317 2078 1945 2485 2744 2964 2951 2902 2689 2415 2232 1893 2010 2213 2216 2372 2472 2577 2667 2467 2106 1575 1191 835 244 171
1907 1902 1684 1639 1670 1829 2171 2309 2559 2670 2740 2820 2844 2857 2924 2974 2976 2718 2452 2271 2182 2795 3128 3294 3243 3089 2702 2166 1968 1824 1502 1428 1793 2144 2370 2498 2557 2599 2364 1794 992 645 104
2132 2235 2145 2306 2311 2118 2129 2289 2432 2619 2739 2804 2904 3003 3053 3146 3278 3338 2771 2329 2015 2124 2325 2595 2719 2630 2517 2623 2560 2366 1834 1647 1775 1831 1948 1944 1980 2078 2225 2195 1631 1054 467
2205 2340 2789 2492 2048 2233 1659 1915 2648 2735 2765 2972 3030 3139 3303 3447 3393 2981 3020 3100 2871 2419 2346 2340 2495 2496 2320 1901 1736 1796 2134 1687 1110 774 525 346 261 363 369 689 922 996 1134
1501 2073 2557 3077 2832 1826 1143 845 67 869 1848 2557 3083 3154 1579 1903 1502 984 706 726 828 914 1537 1628 1394 895 786 737 693 545 250 27 0 0 0 0 0 0 0 0 1 94 287
986 1311 1906 3109 3390 2351 1627 1629 1533 112 198 361 691 498 136 9 0 0 0 0 0 0 22 4 0 0 0 0 0 0 0 0 0 0 0 0 0 0 0 0 0 2 1
634 1031 1567 2615 3303 2461 1442 956 748 1116 1057 107 0 0 0 0 0 0 0 0 0 0 0 0 0 0 0 0 0 0 0 0 0 0 0 0 0 0 0 0 0 1 0
464 660 950 1403 1992 1535 737 245 64 0 2 0 0 0 0 0 0 0 0 0 0 0 0 0 0 0 0 0 0 0 0 0 0 0 0 0 0 0 0 0 0 0 1
104 116 383 760 962 892 371 120 0 0 0 0 0 0 0 0 0 0 0 0 0 0 1 0 0 1 0 0 0 0 0 0 0 0 0 0 0 0 0 0 0 1 0
3 0 6 56 97 62 0 0 0 0 0 0 0 0 1 0 1 3 5 5 3 2 0 2 1 0 0 0 2 1 0 0 0 0 0 0 0 0 0 0 0 0 1
0 0 0 0 2 3 2 1 0 1 1 1 4 3 0 0 1 3 2 4 3 3 4 3 0 0 1 5 4 2 1 1 0 0 1 0 0 0 0 0 0 0 0
0 0 0 0 1 0 0 1 3 3 4 4 2 1 1 1 2 3 3 5 4 4 5 5 1 1 1 1 3 6 5 4 1 0 0 1 0 0 0 0 0 0 0
0 0 0 0 2 2 2 2 2 2 2 1 1 2 2 2 2 2 2 1 2 2 3 5 3 3 3 2 3 3 1 2 0 0 0 0 0 1 0 0 0 0 0
0 1 0 0 0 2 3 3 2 0 0 0 0 0 0 0 0 1 1 1 1 1 1 2 3 2 1 1 0 0 0 0 0 0 0 0 0 0 0 0 0 0 0
0 0 0 0 1 0 0 0 0 0 0 0 0 0 0 0 0 0 0 0 0 0 0 0 0 0 0 0 0 0 0 0 0 0 0 0 0 1 0 0 0 0 0

GFSGL_con_mlcape_042.txt.gz
CAPE
12 24 46 66 25 32 27 28 22 50 66 163 419 452 461 534 671 847 983 1101 1134 1041 882 1008 943 812 685 462 167 40 0 0 7 12 0 0 0 0 0 0 0 0 0
122 111 125 177 163 120 146 124 106 109 162 165 452 500 488 522 647 795 795 966 1093 1225 1128 929 819 1052 1019 938 847 507 104 0 0 0 0 0 0 0 0 0 1 0 0
225 210 200 246 279 245 285 267 219 268 231 280 378 518 534 623 715 818 945 954 1088 1212 1358 1233 1096 970 994 1104 1101 1026 674 317 22 0 0 0 0 0 0 0 0 0 0
313 345 327 347 381 437 444 444 320 365 449 433 465 543 624 665 976 1031 1110 1204 1219 1295 1375 1443 1430 1273 1150 1196 1066 1070 1094 935 721 597 266 71 0 0 0 1 0 0 0
300 490 485 479 524 550 664 781 666 475 509 527 591 609 705 756 742 1094 1359 1267 1254 1312 1365 1439 1549 1554 1408 1315 1319 1184 920 787 826 566 522 369 243 175 124 28 0 0 4
355 532 599 604 586 580 537 592 881 881 805 746 718 757 674 749 786 644 864 1462 1544 1453 1311 1277 1346 1394 1438 1384 1281 1334 1506 1320 1168 1033 857 830 778 539 279 247 144 162 194
581 626 777 835 866 816 752 672 663 812 1002 980 871 864 868 873 745 745 809 1018 1253 1443 1484 1546 1597 1623 1562 1665 1480 1255 1216 1270 1461 1720 1601 1416 1291 1144 882 546 262 297 393
877 908 1029 1094 1085 1099 1093 1034 955 887 909 1077 1127 1072 926 887 742 655 752 1096 1186 1200 1250 1390 1524 1595 1691 1682 1730 1770 1777 1660 1372 1279 1481 1797 1838 1716 1314 1041 820 461 123
1106 1169 1238 1262 1210 1217 1258 1280 1273 1266 1141 1043 1083 1150 1173 1162 858 717 648 994 1243 1296 1526 1605 1601 1593 1700 1547 1809 1881 1999 2090 1879 1591 1553 1580 1458 1295 1108 1270 838 177 169
1221 1343 1484 1488 1430 1365 1347 1349 1472 1561 1551 1526 1391 1368 1265 1293 1181 1025 877 1216 1236 1312 1587 1796 1747 1925 1947 1799 1946 2131 2307 2364 2356 2308 2092 1562 1285 1327 984 623 1016 1168 907
1270 1524 1562 1643 1666 1677 1664 1655 1678 1773 1854 1948 1986 1999 1999 1786 1757 1351 1141 1538 1768 1841 1835 1928 2039 1927 1902 1953 1916 2325 2412 2481 2486 2462 2534 2491 2362 2210 2092 1692 1035 939 1202
1098 1403 1574 1722 1863 1941 1951 2024 2114 2115 2164 2237 2283 2352 2409 2491 2195 1998 1613 1452 1960 2082 2225 2258 2362 2285 2085 1901 1632 1767 2013 2083 2194 2293 2388 2534 2551 2482 2608 2186 1699 1262 718
993 1134 1277 1627 1836 2054 2128 2145 2258 2369 2437 2461 2521 2555 2607 2599 2611 2168 2041 1767 1709 2152 2415 2627 2647 2723 2449 2148 2041 1896 1606 1473 1745 1789 2069 2194 2106 2114 2143 2090 2067 2080 1590
1480 1308 1288 1397 1544 1867 2064 2247 2341 2391 2504 2576 2588 2619 2648 2695 2782 2841 2399 2014 1463 1364 1667 2112 2097 2206 2248 2385 2317 2123 1528 1414 1486 1611 1512 1317 1195 737 358 49 0 0 11
2334 2428 2058 1895 1668 1530 1021 1330 2135 2266 2419 2585 2623 2733 2838 2888 2954 3071 3164 2976 2703 2400 2053 1987 2228 2280 2351 2152 1858 1602 1570 1262 925 455 100 21 0 0 0 0 0 2 0
1961 2206 2765 2430 1947 1529 1269 844 4 349 1105 1914 2559 2723 1651 1702 2032 2135 2120 1831 1798 1626 2064 2300 2080 1533 1425 1101 667 347 115 1 0 0 0 0 0 0 0 0 0 0 0
626 1067 1637 2837 2190 1529 1157 1210 1211 42 135 561 1161 1724 1497 844 541 369 196 151 106 382 1008 508 243 17 1 0 0 0 0 0 0 0 0 0 0 0 0 0 0 0 0
594 702 1073 2757 2508 1594 1124 896 778 1183 1364 344 0 0 0 0 0 0 0 0 0 0 0 0 0 0 0 0 0 0 0 0 0 0 0 0 0 0 0 0 0 0 2
469 650 947 2054 1946 1225 577 387 316 219 83 2 0 0 0 0 0 0 0 0 0 0 0 0 0 0 1 1 1 1 0 1 1 0 0 0 0 0 0 0 0 0 1
77 275 704 956 894 687 278 255 161 18 0 0 0 0 0 0 0 0 0 0 0 0 0 0 0 0 0 0 0 2 1 1 2 0 0 0 0 0 0 0 1 0 0
34 37 214 352 289 168 25 5 5 2 0 0 0 0 1 0 1 2 0 2 1 0 1 2 1 0 0 1 1 1 0 1 2 0 0 0 0 0 1 1 1 0 0
0 0 0 0 0 2 5 3 2 1 0 0 3 2 1 1 3 5 5 3 4 4 6 5 4 4 5 4 6 4 2 0 1 2 0 1 2 0 0 2 2 0 0
0 0 0 0 0 2 1 2 3 3 3 3 4 4 1 2 6 6 7 5 3 4 5 4 4 3 5 5 5 5 2 2 3 9 3 1 2 1 1 0 1 0 1
0 0 0 0 0 1 4 4 4 5 5 5 5 5 5 4 3 3 1 1 0 1 1 1 2 1 2 2 1 0 0 1 1 0 0 2 1 3 0 1 0 0 0
0 0 2 2 4 5 5 4 4 2 0 0 0 0 0 0 0 0 0 0 0 0 0 0 0 0 0 0 0 0 0 0 0 0 0 0 0 0 1 0 0 0 0
0 0 0 1 2 1 1 1 0 0 0 0 0 0 0 0 0 0 0 0 0 0 0 0 0 0 0 0 0 0 0 0 0 0 0 0 0 0 0 0 0 0 0

GFSGL_con_mlcape_045.txt.gz
CAPE
45 78 139 250 249 304 298 334 401 290 334 380 656 834 1115 1234 1295 1441 1440 1591 1834 1957 1891 1659 1561 1757 1506 1305 1009 774 557 340 246 204 387 269 332 379 306 203 205 282 277
141 87 82 206 248 246 284 377 434 339 430 534 727 704 1009 1184 1295 1328 1285 1459 1713 1724 1890 1960 1804 1694 1630 1777 1692 1445 994 903 477 232 353 372 345 397 432 381 332 217 184
248 191 156 173 248 301 354 496 530 406 470 584 781 671 952 1083 1231 1295 1275 1453 1731 1724 1798 2007 1989 2016 1867 1664 1804 1656 1607 1580 1245 797 688 630 433 237 269 334 268 231 261
352 341 361 364 359 441 539 653 652 556 582 691 817 896 959 1078 1253 1310 1423 1477 1650 1867 1902 1985 2073 2168 2075 2061 2059 2015 2033 1828 1588 1431 1132 1060 1085 1000 753 448 433 464 361
535 515 528 559 625 685 797 826 817 740 769 806 890 932 1084 1114 1134 1231 1414 1659 1691 1834 2006 2118 2166 2170 1978 1986 2169 2239 2179 2019 1826 1596 1414 1285 1207 1167 1049 997 941 906 831
633 652 693 716 756 794 921 958 943 825 851 1053 1034 1106 1131 1159 834 804 1037 1452 1894 1967 1736 1951 2043 1779 1611 1311 1242 1345 1795 2296 2128 2026 1916 1904 2224 2075 1901 1820 1678 1546 1647
677 811 880 918 912 956 1044 1135 1151 1010 1067 1117 1129 1167 1269 1374 926 557 569 1081 1339 1572 1905 2132 2228 2070 1909 1989 1918 1380 1222 1255 1454 1941 2200 2439 2533 2614 2585 2503 2448 2348 2094
756 846 1006 1039 1036 1115 1184 1218 1295 1443 1457 1342 1366 1390 1389 1524 1176 775 595 870 1309 1629 1720 1760 1888 1896 2022 2062 2064 2094 2189 2253 2108 1533 1549 1897 2398 2677 2848 2751 2565 2153 1697
862 890 1077 1192 1207 1312 1318 1298 1280 1294 1377 1489 1638 1702 1519 1511 1113 800 721 1105 1273 1477 1805 1871 1914 1913 1929 1686 1601 1450 1743 2247 2338 2186 2066 1949 1813 1619 1396 1399 1601 1769 1696
1028 1050 1255 1398 1416 1505 1548 1563 1589 1524 1436 1482 1530 1765 1855 1810 1607 807 622 1210 1369 1469 1807 2027 1763 1741 1852 1634 1697 1914 2238 2543 2821 3114 3256 2469 1879 1815 1507 1017 1562 1740 1766
1500 1517 1573 1629 1684 1731 1772 1895 1969 1902 1904 1884 1822 1898 1892 1777 1794 1208 775 1333 1566 1757 1874 1959 2161 1849 1608 1459 1497 2223 2613 2849 2948 2695 2644 2686 2764 2736 2815 2799 1931 1590 1925
1914 1790 1798 1876 1859 1972 1958 2017 2077 2158 2197 2250 2269 2347 2406 2385 1894 1662 1171 1090 1791 2138 2437 2578 2705 2321 1961 1721 1473 1645 1740 1796 1997 2153 2350 2431 2398 2336 2554 2576 2252 2022 1683
1791 1851 1970 2117 2131 2241 2238 2245 2268 2359 2343 2502 2572 2622 2714 2818 2979 2270 1756 1361 1330 1766 2499 2781 2561 2407 2084 1819 1697 1798 1571 1494 1665 1774 2078 2037 1827 1894 1817 1551 1532 776 515
1565 1758 2006 2081 2174 2314 2446 2536 2558 2650 2676 2762 2840 2879 2965 3099 3224 3240 2459 1709 1218 1101 1378 1993 2131 2149 2174 2313 2206 1965 1551 1427 1433 1438 1499 1528 1307 1060 678 208 7 0 0
1467 1521 1687 1993 2011 2408 2561 2224 2751 2807 2773 2977 3091 3150 3179 3273 3339 3355 3417 3073 2583 2168 2122 2148 2263 2282 2311 2217 2006 1709 1561 1261 1088 1042 957 606 290 24 0 0 0 0 0
2868 2312 1838 1732 1803 2319 1364 910 43 471 1084 2112 2679 3093 2412 2149 2579 2549 2566 2826 2857 2353 2151 2439 2326 2137 2023 1631 1229 861 516 280 244 92 47 1 0 0 0 0 0 0 0
1291 1684 2489 1962 1572 1848 1350 1173 940 43 67 627 1272 1900 2005 1492 1246 1391 1329 1137 941 1286 2059 1624 1267 748 327 74 20 31 63 1 0 0 0 0 0 0 0 0 1 0 0
769 263 1 2127 1509 1435 1436 1615 1129 1156 1230 890 30 525 595 642 588 652 336 425 564 237 318 187 40 0 0 0 0 0 0 3 3 2 3 3 0 0 2 6 5 0 1
601 1117 1915 1903 1702 1685 1498 1343 1260 920 692 381 37 2 0 0 0 0 0 173 138 14 0 0 1 3 2 2 1 2 2 2 2 1 1 6 5 4 5 4 2 1 0
383 365 843 1010 1068 1135 925 784 604 506 272 84 8 7 2 0 0 0 0 0 0 0 0 2 3 3 0 0 0 1 1 1 1 2 2 3 3 5 7 8 9 1 1
193 211 312 479 419 299 276 187 13 4 1 0 0 0 0 0 0 0 0 1 3 7 8 4 2 0 1 2 2 1 0 0 0 0 0 0 0 2 4 5 2 1 3
63 121 112 119 51 7 5 4 4 1 1 0 2 2 0 1 3 4 5 6 5 5 4 6 3 1 2 3 3 2 2 1 0 0 2 1 1 1 1 2 1 0 5
0 0 1 0 4 4 4 6 2 2 1 2 3 4 2 4 5 6 7 6 4 6 5 5 5 3 2 2 2 1 1 0 4 6 4 3 3 2 2 2 2 2 4
2 2 2 1 4 4 6 6 6 5 4 4 6 6 7 7 7 4 4 3 2 1 0 0 0 0 0 0 0 0 0 0 1 6 5 1 1 3 2 2 2 1 7
1 0 3 5 4 4 5 7 4 3 5 3 3 2 2 0 1 0 0 0 0 0 0 0 0 0 0 0 0 0 0 0 0 0 0 0 0 0 0 0 2 0 0
1 1 3 3 6 6 5 5 3 1 0 0 0 0 0 0 0 0 0 0 0 0 0 0 0 0 0 0 0 0 0 0 0 0 0 0 0 0 0 0 0 0 1

GFSGL_con_mlcape_048.txt.gz
CAPE
699 637 609 609 656 917 826 892 1087 1070 986 1194 782 713 1074 1546 1686 1878 1714 1507 2070 2079 1946 1747 1873 2008 1435 1018 937 835 758 644 489 255 225 343 909 1148 989 984 833 757 551
767 959 725 749 732 675 956 953 1154 1259 1269 1318 1172 1050 994 1182 1629 1956 1889 1397 1838 1963 2001 1990 1969 1791 2025 1994 1497 1376 905 809 655 791 817 570 581 693 796 1006 1077 688 378
708 695 603 655 714 762 1010 1148 1219 1323 1453 1316 1287 1352 1310 1112 1569 1856 1937 1865 1801 1932 2032 2028 2122 2249 2259 1885 1750 1488 1478 1789 1848 1758 1495 1092 907 1019 1113 1355 1228 1114 1026
665 660 768 768 810 846 1073 1258 1236 1409 1550 1529 1313 1426 1477 1205 1147 1580 1780 1933 1850 1889 2139 2175 2279 2441 2601 2736 2746 2613 2498 2333 1792 1718 1397 1020 781 840 1050 1210 1324 1374 1322
927 754 965 1116 1090 1105 1279 1369 1391 1522 1613 1698 1512 1483 1580 1341 1023 1208 1394 1503 1802 1980 2090 2368 2410 2509 2569 2694 2644 2665 2622 2461 1878 1444 1297 1333 1385 1490 1739 1714 1908 1939 1958
1281 1127 1203 1511 1460 1439 1561 1672 1644 1643 1741 1822 1601 1587 1654 1449 799 699 963 1102 1383 1872 2078 2251 2418 2428 2412 2125 1928 1694 1743 2333 2870 2387 1877 1730 2393 2410 2192 2103 1916 1920 2248
1457 1454 1500 1688 1715 1744 1732 1882 1810 1766 1870 1937 1816 1737 1855 1937 1226 683 692 947 993 1467 1919 1995 1924 1506 1871 2230 2030 1898 1738 1508 1425 1823 2236 2437 2516 2509 2795 3003 2863 3074 3233
1628 1667 1743 1900 1861 1969 2005 2037 2134 1986 2004 2001 1965 2042 2119 2139 1744 1245 752 1175 1329 1454 1591 1718 1956 1911 1841 1960 2208 2154 2167 2275 2367 2117 2208 2313 2269 2429 3105 3487 3234 3071 2993
1680 1821 1877 1974 1933 1977 2013 2103 2101 2125 2125 2098 2100 2232 2259 2287 1722 1393 1150 1408 1467 1759 1838 1922 2134 2208 2171 1973 2054 1879 1866 1937 1748 1630 1754 1937 2077 2136 2153 2345 2210 2445 2630
1718 1802 2052 2129 2102 2092 2171 2168 2257 2241 2271 2243 2326 2426 2416 2517 2295 1472 1268 1610 1498 1525 1887 2314 1916 1889 2046 1880 2035 1870 1938 2043 2452 2956 3584 2848 2443 2718 2456 2226 2522 2531 2643
1576 1689 1959 2189 2248 2291 2445 2465 2366 2219 2155 2328 2308 2412 2508 2479 2585 1858 1283 1740 1516 1424 1437 1338 1567 1555 1652 1506 1404 2026 2327 2765 3256 3470 3447 3531 3497 3465 3522 3158 2296 2115 2380
1824 1891 2131 2376 2133 2199 2610 2647 2561 2510 2465 2583 2491 2462 2304 2541 2262 2003 1537 1409 1767 1752 1693 1713 2558 2528 2080 1858 1623 1728 1731 1661 2279 2700 2653 2460 2514 2686 2583 2465 2470 2520 2410
1999 2228 2333 2430 2411 2486 2729 2880 2761 2875 2587 2583 2596 2513 2380 2482 2856 2179 1475 1247 1332 1655 2336 2820 2581 2599 2335 2154 1967 1889 1539 1896 2039 2035 2098 2157 2077 1766 2069 2456 2344 2268 1437
2367 2460 2560 2714 2672 2507 2760 2785 2670 2682 2680 2607 2665 2695 2712 2822 3066 3431 2626 1695 1304 1326 1519 2234 2653 2583 2432 2628 2944 2391 2101 1971 2026 1988 1849 1605 1730 2005 2129 1610 522 225 82
2536 2644 2757 2797 2702 2807 2785 1943 2753 2726 2500 2778 2825 2958 3064 3174 3353 3546 3664 3594 2874 2246 2520 2718 2837 2795 2811 2815 2641 2442 2132 1629 1513 1263 1320 1669 2017 1471 607 167 96 50 0
2076 2285 2434 2482 2774 2802 2916 1774 278 168 498 1555 2085 2814 2845 2587 2787 3185 3226 3307 3053 2441 2261 3025 2964 2856 2715 2559 2236 1702 1310 1084 1185 1062 1131 943 479 135 90 33 0 0 0
2567 2470 2166 2219 2424 2167 1836 1617 1584 1344 403 808 1305 2121 2693 2441 2205 2383 2286 2144 2285 2345 2976 2648 2364 1867 1339 1127 871 622 636 629 447 208 191 159 129 71 0 18 7 4 0
1897 2265 2759 2241 1725 1107 141 13 5 49 1379 2380 384 796 1071 1496 1348 1612 1858 1994 1886 1426 1329 1187 881 413 224 158 150 249 333 272 113 37 33 65 101 76 23 2 2 2 1
1375 1044 1113 711 364 211 0 0 0 7 1920 410 129 112 15 115 393 579 681 1958 2415 1600 958 601 346 101 18 1 1 2 3 4 4 1 4 4 2 1 3 5 1 0 0
766 480 765 1185 1059 1171 1415 576 834 1839 816 220 85 186 2 1 132 223 277 84 17 3 0 0 0 0 1 0 1 1 2 3 3 2 1 2 7 9 5 8 5 4 3
722 577 295 422 684 942 1582 1822 1817 796 224 4 5 0 0 35 0 0 0 0 0 0 0 0 1 0 0 0 0 0 0 0 0 0 1 4 6 9 13 14 13 12 10
294 455 494 280 147 141 81 69 2 4 6 4 4 0 0 0 0 0 0 0 0 0 0 0 0 0 0 0 0 0 0 0 0 0 0 0 1 4 3 5 15 14 16
21 240 121 63 2 3 5 5 5 6 5 4 1 0 0 0 0 0 1 0 0 0 0 0 0 0 0 0 0 0 0 0 0 0 0 0 0 1 2 2 4 11 9
3 1 22 8 5 1 0 5 5 4 3 5 5 1 0 0 1 3 2 1 0 0 0 0 0 0 0 0 0 0 0 0 0 0 0 0 0 1 0 0 7 5 4
0 0 0 0 0 0 4 6 5 4 4 4 6 5 3 2 2 0 0 0 0 0 0 0 0 0 0 0 0 0 0 0 0 0 0 1 3 3 0 0 0 0 1
9 1 0 0 0 3 4 8 6 4 2 1 1 0 0 0 0 0 0 0 0 0 0 0 0 0 0 0 0 0 0 0 0 0 0 0 0 0 0 0 0 0 0

GFSGL_con_mlcape_051.txt.gz
CAPE
1193 1163 795 877 1024 1110 1390 1426 1406 1258 1434 1273 1164 1075 1123 1148 1504 2084 1732 1628 1636 1722 1899 1673 1784 2023 1454 846 867 774 716 703 649 556 415 456 1118 1559 1455 1447 1193 1253 964
1058 1397 1139 974 879 929 1033 1455 1651 1770 1663 1644 1755 1420 1189 1098 1765 1990 1785 1127 1825 1818 1825 1846 1800 1880 2291 2289 1954 1634 1133 1244 973 1010 979 1140 1442 1430 1437 1693 1353 1396 1144
1091 1199 1225 969 1114 890 1329 1390 1668 1852 2009 1635 1910 1973 1574 1295 1700 2120 2140 1863 1639 1655 1726 1976 2048 2104 2328 2071 2229 1522 1344 1803 2047 2070 1994 1724 1442 1351 1357 1709 1968 2018 1965
776 871 1165 1282 1314 1102 1167 1590 1691 1960 2159 2125 2217 2152 1905 1689 1505 1548 2000 2098 2054 1810 1957 2041 2151 2295 2577 2839 2670 2754 2545 2292 1892 1878 1746 1720 1415 1151 1212 1529 1833 1916 2157
820 826 1111 1461 1370 1385 1234 1679 1852 2105 2222 2396 2447 2296 2139 1809 1445 1456 1874 2105 2203 2066 2038 2155 2185 2338 2286 2734 2679 2724 2624 2661 2219 1857 1584 1353 1235 1407 2033 2046 2065 2403 2125
1090 983 1023 1396 1395 1371 1381 1775 2056 2212 2331 2469 2449 2491 2200 1689 1115 864 1284 1634 1885 2133 2282 2403 2400 2275 2128 2107 2240 2283 2255 2688 3098 2455 1885 1712 2020 2186 2178 2126 2108 1967 2421
1506 1302 1355 1668 1706 1708 1742 1967 2146 2230 2484 2653 2635 2633 2501 2362 1304 777 645 1078 1538 1791 2002 2402 2373 1660 2082 2596 2441 2219 2035 1759 1634 1883 1935 2014 2040 2448 2787 2815 2398 2996 3658
1641 2073 1617 1984 2066 2105 2155 2189 2289 2405 2344 2551 2763 2822 2718 2722 1966 1212 713 1035 1189 1426 1982 2231 2440 2199 2249 2367 2554 2457 2726 2989 2824 2337 2279 2532 2887 2983 3114 3106 3314 3331 3298
2231 2087 2157 2141 2335 2508 2498 2519 2645 2660 2616 2675 2931 2945 2853 2833 2046 1553 1230 1306 1355 1712 1974 1958 2085 2410 2759 2267 1924 1917 2187 2461 1798 1461 1440 1589 1769 1767 1592 2091 2702 2985 2945
2356 2287 2438 2312 2544 2689 2736 2807 3001 2943 2903 2567 2827 3079 3143 3153 2785 1775 1462 1817 1644 1713 2100 2381 2170 2098 2283 2218 2458 2561 2629 2820 2551 2435 2714 3005 2937 3073 2627 2339 2752 2964 3000
2272 2487 2687 2605 2809 2893 2991 3072 3131 3103 2535 2963 2768 2957 3025 2908 3288 2274 1484 2149 1803 1596 1550 1208 1517 1575 1596 1467 1425 2128 2405 2624 2480 2929 3387 3717 3604 3727 3496 3254 3179 3126 3039
2257 2396 2662 2899 2740 2715 3144 3215 3228 3233 3078 3222 3111 3138 2811 3260 2847 2343 1907 1809 2209 1967 1409 788 993 929 960 1240 1321 1593 1781 1810 2243 2570 2914 3237 3290 3077 2848 3041 2927 2595 3036
2300 2470 2649 2962 3064 2784 3151 3369 3162 3217 2634 2675 2863 2595 2326 2316 2852 2317 1798 1799 1877 1996 1984 1398 1342 1778 2148 1747 1754 2093 1972 2289 2576 2904 3060 2869 2595 2480 2623 2335 2713 2971 2567
2617 2597 2877 2939 3088 2887 2950 3156 2717 2633 2674 2424 2327 2140 1872 1520 1364 2100 2104 1374 1348 1683 1841 1984 2129 2352 2656 3050 3001 2253 2661 3058 3248 2795 2493 2167 2136 2035 2187 2763 2246 1343 449
2676 2846 2791 2771 2769 2887 3111 2697 2750 1445 1813 2336 1719 1363 1127 1303 1364 1733 2464 2945 2395 2118 2214 2287 2327 2624 2979 3260 3262 3487 3554 2810 2322 2114 1998 2017 1700 2224 2308 1769 668 337 307
2694 2673 2792 2548 2849 2957 2066 1543 677 734 827 843 802 1488 2501 1668 1962 2074 2828 3255 3102 2482 2346 2928 3164 3201 3177 3326 3149 2850 2400 2060 1836 1749 1743 1781 1777 1438 898 434 292 212 244
2837 3013 2799 2700 2880 3035 2798 2373 2115 753 296 613 1216 1363 1445 1843 2015 2335 2469 2690 2752 2541 3214 3148 3577 3222 2803 2458 2252 1897 1723 1402 1257 1266 882 926 775 530 248 219 239 238 239
2543 2491 2734 2945 2921 3163 3194 2974 2522 2151 1548 1181 361 569 565 887 1577 1773 1975 2285 2741 2869 3006 2455 2054 1558 1198 958 594 418 443 827 692 562 517 364 242 261 294 297 202 152 41
2321 2590 2683 2678 2878 2618 2208 1636 966 739 491 194 38 69 249 224 226 986 1525 3103 2735 2274 1515 1061 653 496 404 298 229 205 173 100 88 68 24 38 83 55 49 15 2 0 0
685 885 1193 1103 865 582 359 279 132 138 90 136 58 51 142 331 1246 1319 990 1157 1859 1934 1224 819 372 117 21 13 1 2 1 2 2 5 4 4 6 2 3 2 3 5 9
440 549 839 1375 1224 713 224 313 1062 377 27 47 22 100 152 51 182 436 202 175 145 126 66 6 1 0 0 1 1 0 0 1 2 0 4 3 2 1 1 3 5 7 11
190 238 138 182 201 467 663 528 301 146 49 43 3 32 8 3 17 27 0 0 0 0 0 0 0 0 0 0 0 0 0 0 0 0 0 0 0 1 4 4 2 9 13
82 130 47 0 1 2 12 26 10 15 6 0 0 0 0 0 0 0 0 0 0 0 0 0 0 0 0 0 0 0 0 0 0 0 0 0 0 0 2 2 0 7 6
0 30 13 1 1 2 4 2 3 3 2 0 0 0 0 0 0 0 0 0 0 0 0 0 0 0 0 0 0 0 0 0 0 0 0 0 0 0 0 1 3 0 0
0 21 2 0 0 0 0 2 0 2 3 1 0 0 0 0 0 0 0 0 0 0 0 0 0 0 0 0 0 0 0 0 0 0 0 0 0 0 0 0 2 5 3
6 0 0 0 0 0 1 3 2 0 0 0 0 0 0 0 0 0 0 0 0 0 0 0 0 0 0 0 0 0 0 0 0 0 0 0 0 0 0 0 0 0 0

GFSGL_con_mlcape_054.txt.gz
CAPE
1507 1110 940 732 502 211 573 3 1068 524 1577 837 1663 1835 1683 1545 1872 1884 1445 1775 1713 1354 1877 2038 1991 1664 1639 1986 1510 966 850 1041 964 936 1264 1132 1384 1471 1337 1249 1283 1164 1226
1659 1281 1000 1000 663 510 6 1239 763 1795 1176 2288 1226 1781 1329 1753 1752 1733 2037 1372 1808 1705 1643 1518 2144 2329 2020 1611 1887 1993 2059 2160 1643 1399 1384 1076 1237 1790 1891 1943 1882 1583 1433
1740 1424 1316 1070 1147 1023 648 448 1532 1276 1835 1445 2292 1569 1970 1510 1610 1901 2210 1765 1726 2287 2185 2031 1870 2028 2137 2722 2431 2008 1652 1823 1846 1765 2267 2639 2318 1922 1778 2002 2211 1904 1757
1542 1558 1464 1282 1150 924 1214 723 1473 1879 1646 1915 1798 2264 2138 1860 1573 2010 2458 2362 2068 1889 2271 1905 2206 2390 2348 2498 2394 2239 2361 2285 2032 1920 1817 2132 2226 1967 2175 2272 2202 2268 2152
1153 1347 1534 1694 1423 1217 1106 1335 935 1425 1921 2147 2121 2335 2393 2261 1824 1724 1914 2415 2384 2226 2128 2228 2282 2490 2498 2630 2898 2975 2835 2757 2809 2868 2812 2497 1952 1981 1896 2214 2552 2702 2243
977 1231 1368 1586 1584 1468 1206 1388 1573 1441 1836 2155 2361 2343 2596 2391 1925 1350 1665 1768 2438 2367 2247 2216 2536 2320 1956 1769 1913 2234 2381 2545 2721 2985 2946 2416 2099 2061 2367 1870 1717 2091 1990
1106 1178 1280 1624 1792 1559 1719 1293 1708 1703 1844 2160 2399 2594 2619 2656 1823 1176 1135 1549 1825 2252 2555 2529 2598 2431 2160 2314 1892 1670 1775 1848 1890 2019 1900 1842 1746 1863 2276 2433 2562 2827 3053
1296 1470 1344 1557 1713 1889 1698 1816 1515 1887 1911 2125 2438 2628 2752 2783 2339 1262 896 1085 1476 1903 2064 2104 2217 2396 2047 2532 2695 2808 2544 2490 2319 1988 1980 2273 2527 2609 2694 2612 2810 2945 2723
1703 1579 1626 1472 1742 1809 1818 1766 1771 2000 2214 2234 2513 2678 2626 2890 2535 1906 1004 933 1094 1159 1294 1402 2202 2751 2450 1741 1327 1481 1829 2189 2653 2546 2596 2408 2333 2279 2401 2397 1935 2025 3014
1770 1938 2069 1593 1961 1944 1934 1933 2021 2175 2344 2444 2495 2724 2891 2859 2693 2181 1542 1491 1356 1352 1588 1741 1743 1473 1451 1862 2394 2555 2354 2348 2617 2791 2729 2622 2726 3067 2998 2519 2968 3103 2929
1988 2074 2200 2215 1977 2399 2419 2418 2434 2552 2644 2662 2567 2743 3037 3030 3077 2227 1642 1963 1771 1872 1859 1904 2191 1965 1612 1433 1463 1845 1973 2459 2838 2844 2595 2762 3225 3244 3458 3244 3067 3046 2910
2588 2164 2728 2631 2391 2643 2765 2939 2859 2849 2967 2905 3026 3076 3168 3409 3014 2533 2106 1664 2130 2081 2047 2121 1975 1540 1497 1358 1189 1259 1498 1635 1947 2064 2339 2562 2875 3510 3334 3024 3126 2945 3028
2391 2447 2577 2797 2913 2753 2989 3097 3195 3153 3170 3093 3145 3153 3128 3187 3358 2749 2116 2014 2009 2198 2366 2146 1447 1316 1018 723 590 921 1109 1440 2018 2544 2752 2931 3300 2991 2702 2806 2935 2584 2758
2399 2714 2685 3052 3068 2910 3099 3197 3314 3250 3273 3220 2958 3040 3042 3061 3111 3379 2394 1716 1721 1831 2079 2257 2000 1791 2130 2586 2420 1494 1934 2629 2905 3022 3023 3015 2500 2511 2538 2212 2352 2383 1821
2885 2862 2847 2988 3037 3165 2877 3279 3280 3161 3131 3090 2958 2745 3046 2850 2605 2451 2723 2187 1987 1835 2045 2181 2268 2100 2004 2513 3143 3347 3013 3007 3019 2941 2666 2385 2309 2136 1961 2211 2203 1570 472
2993 3016 2928 3003 3077 3187 2821 2204 886 1854 1415 2139 2186 2692 1717 1320 1078 1134 1012 1902 1673 1662 1876 2346 2341 2302 2280 2474 2973 3261 3149 3083 2780 2342 2117 1958 1716 1875 1977 1273 573 322 258
3182 2973 2939 2946 2952 3034 2811 2041 1813 464 37 255 812 1306 1866 1790 1563 1252 1195 821 1813 1898 2456 2304 2651 3089 3272 3233 3027 2732 2524 2174 1866 1598 1733 1416 1032 1204 644 414 335 381 427
2696 2729 2820 2619 2876 2942 2771 2316 1648 1510 1518 1003 281 639 998 1474 1758 2088 1969 2034 1852 2183 2474 3126 3043 2881 2452 2193 1894 1803 1567 1119 1133 825 542 434 354 332 381 416 303 187 114
1626 1772 2082 2915 2707 3004 2912 2633 2518 2135 2195 1450 609 275 57 21 362 851 1276 2284 2230 2365 1845 2020 1914 1457 1207 800 509 417 373 310 225 147 96 65 93 102 102 87 42 0 0
547 821 1363 2056 2235 2320 2681 2414 2257 1684 1347 915 273 160 42 231 686 827 749 754 800 1260 674 696 407 196 206 132 99 60 14 0 1 0 0 0 0 0 0 1 0 2 2
151 423 421 683 1034 1093 1125 1212 1003 736 542 447 156 33 166 475 554 362 78 0 0 0 29 2 0 0 0 0 0 0 0 0 0 0 0 0 2 0 1 0 0 1 3
1 22 59 47 122 189 240 508 335 318 35 0 0 0 0 240 34 0 0 0 0 0 0 0 0 0 0 0 0 0 0 0 0 0 0 0 0 0 0 2 0 0 0
10 0 0 2 4 1 1 0 3 2 2 2 2 1 0 0 0 0 0 0 0 0 0 0 0 0 0 0 0 0 0 0 0 0 0 0 0 0 0 0 0 2 1
3 0 0 0 0 5 3 2 2 0 0 0 0 0 0 0 0 0 0 0 0 0 0 0 0 0 0 0 0 0 0 0 0 0 0 0 0 0 0 0 0 0 0
0 0 0 0 0 3 5 4 3 4 1 0 0 0 0 0 0 0 0 0 0 0 0 0 0 0 0 0 0 0 0 0 0 0 0 0 0 0 0 0 0 0 0
1 0 0 0 0 0 0 1 1 3 5 4 0 0 0 0 0 0 0 0 0 0 0 0 0 0 0 0 0 0 0 0 0 0 0 0 0 0 0 0 0 0 0

GFSGL_con_mlcape_057.txt.gz
CAPE
410 677 156 30 474 279 33 0 166 238 1018 962 1517 1500 1617 1550 1455 1406 1378 1378 1219 1137 1595 1379 1552 1590 966 1383 1862 1586 991 782 701 653 1012 1237 1020 890 824 994 965 1075 998
587 527 682 99 87 364 179 2 0 63 287 1571 1449 1219 1371 1487 1535 1609 1544 1400 1375 1505 1540 1354 1629 2059 1606 1476 1401 1406 1614 1781 1585 1253 1075 952 1833 2129 1949 1824 1878 1962 1698
968 639 773 631 36 195 52 124 1 0 113 487 1514 1575 1461 1310 1161 1353 1445 1258 1351 1371 1717 1574 1415 1258 2016 2110 1863 1932 2010 1911 2338 2157 2077 2268 2077 1703 1878 1918 2136 2173 2276
1088 1133 844 721 603 52 47 0 358 105 526 565 1104 1345 1210 1110 1275 1313 1449 1416 1422 1257 1756 1962 1845 1833 1785 1738 1948 2005 1881 1857 1790 1718 1616 1808 2151 2370 2294 2004 1601 1911 1865
1175 1267 1153 900 670 636 166 89 0 806 278 1271 1228 1565 1525 1400 1279 1210 1427 1535 1678 1565 1338 1367 2089 1988 1855 2038 2180 2205 2359 2312 2280 2392 2476 2723 2790 2493 1965 1625 1354 1237 1978
1221 1391 1329 1108 895 748 770 766 259 0 1402 782 902 1398 1701 1846 1603 1342 1244 1611 2106 1999 1815 1778 1577 2013 2012 1887 2070 2355 2492 2484 2613 2827 2719 2534 1973 1595 1365 1463 1702 1889 2025
836 1342 1374 1224 1184 916 837 720 946 467 278 1587 1452 1381 1398 1656 1779 1630 1374 1229 1326 1760 2025 2018 1926 1890 1889 2126 1993 1765 1632 1582 1765 1875 1743 1640 1621 1695 1954 2019 1848 2012 2115
951 1052 1313 1330 1298 1284 1086 891 846 1004 727 607 1229 1667 1695 1695 1871 1688 1522 1266 1342 1292 1664 2158 2139 2037 2052 2071 2030 2062 1942 1680 1614 1545 1593 1936 2028 2109 2162 2049 2264 2550 2881
1040 1040 1232 1265 1314 1430 1230 1171 921 1059 1222 1043 1291 1657 1823 1951 1806 1822 1493 993 1068 1285 1373 1477 1669 1923 1928 1885 1673 1635 2138 2659 2915 2616 2516 2255 1929 1985 2003 2116 2580 2844 2615
537 1263 1169 1202 1381 1387 1358 1227 1370 989 1069 1482 1316 1609 1924 1949 1987 1793 1581 1517 915 917 1088 1239 1495 1789 1941 2024 2105 1913 1603 1149 1253 1553 1886 1834 1958 2102 2109 1868 2507 2773 2859
1080 1440 1489 1262 1360 1414 1498 1439 1340 1452 1263 1290 1576 1611 1958 2199 2254 1874 1643 1910 1392 999 969 985 1149 993 827 766 724 1062 1481 1744 1884 2027 2362 2740 2517 2355 2735 2545 2608 2821 2802
1900 1776 1543 1605 1428 1586 1456 1540 1469 1436 1474 1487 1704 1866 1889 2232 2275 2116 1756 1570 1883 1500 1186 1185 1175 1207 1159 1032 838 933 1038 1100 1644 1900 1991 1901 1892 2207 2609 3104 2886 2835 2830
1333 2136 2100 2080 1622 1738 1637 1569 1636 1672 1654 1787 1882 1977 2050 2207 2511 2235 1949 1668 1542 1928 1753 1523 1593 1575 1301 1116 1051 1031 932 1044 1352 1550 1567 1739 2344 2631 2762 2693 2685 2682 2456
2055 2010 2145 2279 2207 1680 2154 1955 2010 2071 2085 2033 2171 2188 2296 2344 2576 2881 2199 1662 1537 1430 1858 1694 1501 1459 1393 1471 1241 591 398 751 1065 1417 2003 2481 2571 2672 2543 2366 2211 1974 1841
1940 2444 2319 2346 2407 2262 2287 2454 2418 2441 2385 2308 2322 2388 2370 2563 2445 2673 2794 2219 2031 1824 1849 1751 1647 1654 1708 1693 1881 1867 1485 1495 2034 2503 2731 2730 2678 2318 2299 1848 1890 1644 1326
1313 2251 2662 2351 2623 2624 2452 1812 767 1414 2008 2277 2382 2510 2560 2019 2440 2330 2250 2385 2187 1884 1600 1978 1956 2001 2034 1918 1889 2057 2168 2384 2574 2623 2622 2591 2288 1981 1593 1642 1415 199 148
1167 1888 2698 2474 2587 2703 2633 2208 2112 747 361 997 1614 2226 2181 2111 1514 1509 1623 1682 1537 1317 2079 1909 1995 2033 2055 1975 1844 1885 2467 2843 2906 2686 2298 1836 1504 1303 1043 470 252 156 145
793 1992 2796 2587 2480 2728 2769 2493 1867 1518 1777 1610 337 935 1051 952 998 917 583 241 612 1299 1706 1750 1972 2125 2118 2293 2433 2507 2217 1962 1798 1565 1304 841 301 248 208 105 53 31 0
473 1289 1953 2418 2508 2609 2746 2348 1496 1326 1515 1659 659 322 234 370 951 1411 1543 1588 1289 1481 1480 1219 1102 795 547 516 376 248 570 582 629 299 148 101 69 36 24 3 0 0 0
21 527 1097 1847 2041 2069 2224 2318 1328 1361 1359 1083 975 838 341 711 1389 1484 1305 1569 1490 1307 900 649 390 268 153 57 44 11 0 6 22 18 2 0 0 0 0 0 0 0 0
0 100 687 1233 1436 1631 1417 1382 1587 1402 1091 808 500 148 84 714 763 774 608 339 501 401 306 221 79 28 27 0 0 0 0 0 0 0 0 0 0 0 0 0 0 0 0
1 4 14 24 1 142 269 199 58 41 70 73 46 0 22 104 87 114 12 0 3 29 6 3 0 0 0 0 0 0 0 0 0 0 0 0 0 0 0 0 0 0 0
3 1 4 1 3 1 1 3 4 2 0 0 1 0 0 1 1 0 0 0 0 0 0 0 0 0 0 0 0 0 0 0 0 0 0 0 0 0 0 0 0 0 0
5 4 6 5 6 6 6 6 4 3 0 0 0 0 0 0 0 0 0 0 0 0 0 0 0 0 0 0 0 0 0 0 0 0 0 0 0 0 0 0 0 0 0
1 0 1 6 6 6 5 6 6 5 5 5 4 3 1 0 0 0 0 0 0 0 0 0 0 0 0 0 0 0 0 0 0 0 0 0 0 0 0 0 0 0 0
0 0 0 1 2 6 3 4 2 4 3 3 3 0 0 0 0 0 0 0 0 0 0 0 0 0 0 0 0 0 0 0 0 0 0 0 0 0 0 0 0 0 0

GFSGL_con_mlcape_060.txt.gz
CAPE
253 132 5 6 161 178 0 3 182 558 815 953 1027 920 1015 884 987 1035 842 776 920 860 1048 1095 928 1313 1224 935 1241 1363 1380 977 684 563 578 1112 1096 1054 1811 1706 1502 1362 1311
317 344 127 0 4 197 85 0 0 60 491 646 710 1011 1097 1000 834 998 981 1110 971 1102 930 1133 1302 1528 1612 1442 1396 1267 1163 1270 1383 1207 1124 1509 1636 1909 1651 1746 2124 1999 2100
151 301 310 99 0 17 213 138 3 0 90 1035 1310 1154 1227 1098 1109 1089 1068 1056 1130 1147 1236 1260 1201 1144 1301 1848 1795 1740 1610 1729 2091 2049 1946 1814 1759 1486 2086 2157 1896 1679 1608
222 278 325 413 144 0 17 177 119 16 0 77 863 1390 1220 1186 1292 1205 1189 1119 1042 1048 1150 1141 1549 1522 1285 1164 1455 1527 1610 1636 1618 1534 1441 1505 1866 2224 2331 2280 2244 1495 1258
495 479 352 465 567 240 0 4 2 52 20 0 133 835 1340 1172 1041 918 943 911 856 818 989 1196 1287 1732 1885 1701 1820 1775 1832 1824 1870 1921 1970 2285 2458 2437 2380 2062 1407 1463 1651
771 745 724 476 612 608 345 31 0 0 63 50 72 198 820 1325 1153 1058 1017 943 937 899 716 1209 1344 1280 1336 1760 1824 1924 2035 2051 2056 2106 2111 2114 2042 1855 1538 1559 1752 1846 1778
879 921 976 965 749 658 627 390 124 20 0 109 218 497 1022 1261 1256 1028 955 1041 1017 1023 973 1323 1453 1611 1646 1557 1599 1862 1821 1983 2225 2271 2071 1895 1771 1667 1752 2008 2112 1901 1971
396 1074 1233 1205 1096 875 692 688 527 363 69 0 289 493 609 1252 1386 1220 1084 1109 1055 1106 1224 1375 1507 1487 1611 1724 1691 1554 1628 1703 1662 1406 1456 1647 1615 1745 2014 2242 2079 2117 2363
339 336 988 1461 1294 1104 944 816 750 739 640 170 184 846 793 901 841 919 961 1088 1144 1155 1111 1164 1306 1322 1291 1574 1774 1742 1731 1731 1811 1913 1945 2024 2114 2029 1711 1926 2137 2273 2492
195 400 243 524 1364 1227 1152 989 894 751 791 814 482 376 916 1289 1371 1098 897 1134 985 1063 1172 1155 1165 1441 1420 1313 1430 1423 1432 1340 1349 1321 1419 1312 1370 1628 1715 1647 2183 2217 2530
0 3 151 101 558 1294 1247 1187 1090 974 841 928 932 806 832 1027 1149 1012 902 1332 1243 912 876 881 945 958 1004 1083 986 1401 1331 1353 1342 1458 1717 1793 1693 2161 2464 2019 1670 2022 2398
0 1 31 73 460 1061 1283 1289 1199 1164 1042 910 1064 1190 1065 1192 1327 1212 1081 1058 1462 1352 1070 841 856 689 595 640 667 862 774 611 749 996 1151 1287 1497 1780 1751 2024 2601 2492 2438
21 667 437 703 1182 1121 1233 1251 1270 1189 1296 1205 989 1052 1301 1370 1493 1408 1170 1035 1115 1596 1594 1325 952 791 651 588 596 555 437 498 809 1048 1296 1396 1400 1551 1714 2281 2480 2398 2469
0 136 1032 1400 1591 1325 1204 1171 1319 1289 1260 1316 1320 1258 1301 1489 1603 1766 1454 1102 1087 970 1542 1655 1399 1136 984 1000 911 791 541 588 587 670 813 1040 1319 1586 2325 2371 2444 2248 1856
17 221 758 1472 1429 1572 1361 1397 1324 1383 1328 1325 1330 1382 1438 1508 1628 1821 1980 1693 1559 1427 1324 1210 1193 1209 1299 1205 1155 1162 852 725 745 676 788 1138 1756 2265 2382 2263 1949 1648 1668
3 106 615 1708 1743 1922 1685 1331 433 671 1178 1237 1197 1482 1639 1650 1753 1780 1780 1921 1772 1566 1087 1310 1317 1269 1352 1482 1454 1590 1447 1336 1351 1388 1698 2106 2453 2359 2431 1853 1518 1592 895
1 5 179 878 2249 2290 2333 1751 1784 603 400 823 1153 1385 1681 1955 1644 1761 1884 1723 1650 1014 2026 1706 1738 1619 1631 1612 1585 1620 1727 1666 1514 1663 2013 2158 2064 2023 1511 1264 827 201 32
3 1 12 637 1820 2480 2503 2510 1856 1835 1898 1771 825 1388 1472 1524 1829 1819 1333 794 979 573 1634 1982 1810 1605 1591 1673 1548 1478 1448 1503 1596 1337 1029 957 778 599 307 305 259 69 3
6 3 12 536 1422 2528 2582 2626 2252 1816 1896 2012 954 672 733 924 1083 1084 909 1726 1525 1387 1308 1481 1434 1425 1453 1267 1028 1091 966 862 610 170 27 116 9 44 54 5 8 0 0
6 4 0 235 1077 2117 2416 2418 2124 1702 1543 1231 1301 1449 692 626 1550 1263 603 1058 1180 1091 971 944 1050 952 874 681 367 123 24 14 2 0 0 8 23 0 0 0 0 0 0
6 3 12 230 1006 1552 1822 1564 1441 1521 1351 923 752 365 399 1276 1088 832 455 767 1007 800 531 542 344 285 152 71 37 27 10 0 0 0 0 0 0 0 0 0 0 0 0
5 2 8 107 474 951 1290 1383 1041 919 399 326 128 42 35 154 201 125 74 9 10 20 17 29 0 0 0 0 0 0 0 0 0 0 0 0 0 0 0 0 0 0 0
2 2 2 2 6 88 371 340 324 238 28 20 12 33 40 20 4 2 2 0 1 2 1 0 0 0 0 0 0 0 0 0 0 0 0 0 0 0 0 0 0 0 0
2 5 5 2 3 4 2 1 0 2 1 3 1 1 2 2 1 0 0 0 0 0 0 0 0 0 0 0 0 0 0 0 0 0 0 0 0 0 0 0 0 0 0
6 5 5 5 7 7 6 6 3 1 4 5 5 5 6 6 5 0 0 0 0 0 0 0 0 0 0 0 0 0 0 0 0 0 0 0 0 0 0 0 0 0 0
6 6 7 8 8 2 0 4 7 7 5 5 6 7 5 5 6 0 0 0 0 0 0 0 0 0 0 0 0 0 0 0 0 0 0 0 0 0 0 0 0 0 0

GFSGL_con_mlcape_063.txt.gz
CAPE
36 28 0 3 37 4 0 13 66 681 857 870 951 1017 934 1125 1060 948 816 757 775 585 871 1036 867 825 915 1162 907 1181 1161 967 820 773 646 1054 1274 1474 1588 1444 2014 1797 1617
70 54 0 0 0 10 0 0 4 1 246 666 879 1014 1006 1060 1065 908 904 996 884 846 954 969 1029 1094 1233 1497 1280 1287 1283 997 1103 1072 1075 1567 1670 1516 1379 1903 2128 1927 2003
160 100 23 0 0 0 0 0 0 0 0 90 376 869 1054 885 999 991 930 989 1063 1063 1044 1254 1103 1099 1365 1406 1547 1661 1545 1557 1569 1593 1584 1502 1418 1446 1904 2094 2226 1999 1234
113 236 157 35 0 0 0 0 0 0 0 0 138 705 927 778 990 1097 999 943 1013 1172 1164 1154 1254 1315 1446 1354 1204 1437 1629 1405 1469 1425 1383 1420 1606 1895 2107 1901 1454 1455 1633
48 131 248 233 131 0 0 0 0 0 0 0 1 257 856 1292 1213 1102 1064 1114 1064 1067 1222 1219 1174 1247 1356 1656 1621 1496 1531 1640 1603 1633 1621 1602 1501 1456 1548 1745 1569 1597 1817
169 136 182 271 265 135 9 0 0 0 0 0 0 0 162 603 1172 1128 1045 1161 1166 1065 983 968 1050 1131 1218 1146 1425 1849 2035 1907 1757 1732 1837 1833 1715 1699 1548 1506 1498 1763 2045
292 241 231 264 285 367 239 35 0 0 0 0 0 0 0 161 344 752 964 1081 938 908 927 904 927 1026 1088 1385 1327 1214 1225 1497 1860 2137 2093 1926 1755 1688 1574 1586 1765 1904 1677
466 494 452 443 339 380 448 298 115 15 2 0 0 0 0 87 32 24 274 921 1079 1007 1040 1002 1013 1062 1093 1383 1492 1509 1577 1480 1290 1177 1429 1773 1821 1864 1628 1792 1895 1660 1814
37 273 732 713 705 525 532 525 434 216 61 35 0 0 0 3 100 60 99 754 958 981 982 1033 1164 1159 1219 1096 1411 1257 1324 1556 1619 1483 1481 1402 1303 1366 1258 1466 1498 1695 2064
87 78 129 725 948 929 796 664 564 494 391 237 74 0 0 117 58 116 183 573 870 974 1091 1017 811 975 1117 1081 1108 1180 1102 1161 1205 1061 1111 1035 945 1136 1008 1056 1567 2089 2178
160 48 0 30 363 1112 1075 852 702 667 625 597 581 256 32 227 436 171 150 498 405 588 576 596 697 468 613 871 867 1261 1223 1288 1128 998 1125 1172 1218 1363 1411 1242 1573 1883 1780
335 209 66 22 11 36 346 1129 948 838 676 725 698 701 583 316 276 454 439 483 790 753 724 745 597 463 289 343 413 610 870 903 987 1105 1223 1045 877 915 1088 1367 1770 1416 1680
0 36 119 102 301 141 73 382 1063 1105 1001 900 824 831 829 792 683 439 343 344 550 936 1015 1027 963 628 348 270 287 437 331 333 604 676 694 681 942 1100 1143 1353 1575 2177 2297
0 0 0 14 210 867 949 879 755 1173 1228 1138 1050 951 840 926 1011 964 622 363 381 456 839 1100 1197 1026 798 727 599 450 265 287 413 531 782 1054 825 808 958 1323 1831 2264 2207
0 0 0 5 145 772 1185 1234 1086 1162 1215 1231 1187 1138 1017 917 930 1086 1147 990 855 772 820 815 1127 1062 1187 993 831 813 696 509 541 610 644 717 722 726 1078 1524 2175 2149 1933
0 0 0 0 0 192 1010 1253 570 883 1053 1054 1067 1143 1207 1060 951 879 987 1080 999 865 818 1124 966 1052 1020 1081 1120 1023 984 948 718 680 826 935 1016 1224 1545 1756 1814 1851 1595
0 0 0 0 0 10 414 1474 1355 657 388 636 709 850 840 1165 909 921 909 972 904 721 1508 1424 1377 1197 995 909 1026 1079 1179 1107 1004 1091 1242 1369 1401 1479 1730 1314 1338 1022 783
0 1 0 0 0 0 134 1021 1605 1224 1142 1301 650 660 557 787 845 970 902 324 685 312 1329 1726 1527 1400 1290 1295 1291 1343 1368 1392 1364 1351 1345 1321 1341 1467 947 893 804 630 280
0 0 0 0 0 4 58 677 1936 2049 1772 1719 1137 476 395 392 446 502 251 1275 1365 1310 1105 1461 1438 1406 1518 1561 1606 1453 1490 1493 1526 1334 1124 1215 1065 418 359 322 276 253 131
0 0 0 0 0 1 25 579 1547 2324 2181 1988 1616 1513 476 352 983 984 680 951 1445 1566 1450 1266 1267 1172 1203 1249 1120 1025 992 1082 910 862 497 215 68 43 57 34 9 14 28
0 0 0 0 0 2 39 599 1329 2041 2120 1991 1793 1239 893 1123 1337 1380 1100 926 1042 855 903 856 720 570 399 397 408 385 368 284 139 109 19 0 0 0 16 6 6 0 0
1 0 0 0 0 6 161 713 1312 1698 1770 1645 1167 769 533 698 734 715 638 411 283 156 121 93 18 1 17 48 59 94 89 28 2 0 0 0 0 0 0 0 0 0 0
0 0 0 0 2 1 150 498 860 1180 1164 902 714 492 217 135 59 31 16 4 4 4 5 3 1 2 3 0 0 0 0 0 0 0 0 0 0 0 0 0 0 0 0
2 2 1 0 0 0 0 56 155 342 448 453 300 101 2 4 4 6 11 13 14 8 7 5 6 6 0 0 0 0 0 0 0 0 0 0 0 0 0 0 0 0 0
4 4 3 6 3 4 4 4 3 2 3 2 3 8 10 9 10 7 3 0 0 0 0 0 0 0 0 0 0 0 0 0 0 0 0 0 0 0 0 0 0 0 0
5 4 4 4 4 5 9 11 10 8 9 7 6 9 12 15 13 10 2 0 0 0 0 0 0 0 0 0 0 0 0 0 0 0 0 0 0 0 0 0 0 0 0

GFSGL_con_mlcape_069.txt.gz
CAPE
293 295 227 145 213 386 357 460 728 734 863 1030 1118 1218 1424 1386 1534 1433 1374 1192 1309 1368 1245 1258 1445 1639 1208 1312 1656 1792 1699 1503 1443 1420 1854 2027 2316 2532 2264 2584 2649 2526 1730
345 360 288 181 174 233 185 223 486 766 824 884 1106 1285 1528 1555 1567 1514 1093 1383 1206 1200 1306 1370 1203 1524 1810 1927 1769 2002 1884 2102 1736 1761 1910 1969 2303 2400 2561 2735 2362 1859 2405
250 219 253 313 306 245 227 176 157 398 808 879 1063 1303 1451 1551 1544 1463 1494 1197 1580 1380 1405 1461 1485 1757 1759 1702 1983 2010 1955 2241 2306 2112 1897 2045 2179 2151 2266 2093 2504 2654 2076
236 145 165 130 215 329 507 366 206 135 197 586 784 900 1326 1594 1642 1695 1683 1727 1840 1733 1615 1575 1579 1727 1823 2113 1982 2141 2121 2056 1993 2188 1811 1857 1865 2165 2403 2096 1754 1839 2127
274 314 309 347 195 110 203 470 430 320 195 137 386 605 756 960 1178 1363 1533 1544 1455 1585 1782 1676 1483 1478 1395 1499 1560 1727 2060 2193 1954 1777 1697 1653 1617 1582 1519 1908 1872 2061 2000
69 358 447 496 500 415 252 161 379 402 329 269 204 178 447 566 360 466 918 1352 1485 1409 1539 1660 1621 1114 850 724 749 864 1211 1835 2044 1853 1496 1381 1837 1967 1791 1811 1852 1989 1465
133 81 312 495 578 481 423 361 322 313 368 301 204 207 95 251 208 117 126 782 1372 1563 1568 1628 1625 1371 1297 1539 1114 652 585 583 900 1417 1521 1529 1506 1666 2060 2061 1985 2259 1753
245 105 205 422 524 655 603 497 403 356 311 366 341 284 208 216 23 0 0 261 920 1183 1388 1459 1502 1565 1701 1466 1536 1587 1583 1575 1300 945 1238 1570 1924 2175 2341 2192 2338 2104 1893
6 274 454 442 493 543 692 744 692 530 440 395 414 425 354 231 19 0 0 88 335 876 1053 1173 1349 1236 1107 585 1003 1373 1530 1602 1324 1300 1219 1366 1205 1055 1243 1624 1505 1269 906
0 3 84 371 243 903 715 713 782 864 604 504 395 414 417 416 219 0 0 43 78 138 537 897 624 642 695 226 204 777 1218 1049 1155 1143 1526 1037 650 821 435 889 1387 1285 979
0 4 0 0 155 139 362 1131 904 914 896 830 640 535 476 425 442 81 0 98 279 362 253 140 151 138 0 6 5 598 737 977 827 1128 1168 1329 1469 1646 1734 1189 1149 1367 1136
0 0 0 0 2 118 143 111 978 1035 980 1013 1011 920 768 673 277 181 3 4 259 447 622 546 448 83 0 0 0 20 240 477 696 464 466 893 1029 1085 1213 1459 1917 1982 1551
0 0 0 0 0 2 80 152 183 577 1093 1068 1149 1198 1217 1148 923 248 16 0 0 174 540 719 522 253 0 0 0 19 8 153 460 462 403 511 767 1010 1291 1438 1523 1669 1930
0 0 0 0 0 0 0 81 188 275 564 1143 1132 1135 1309 1313 1277 1190 472 13 0 0 38 325 440 287 206 329 289 24 73 443 480 439 358 441 806 1081 1122 1188 1128 1392 1660
0 0 1 0 0 1 0 0 175 478 497 398 829 1146 1072 1222 1242 1183 1238 885 420 164 90 256 536 625 651 724 735 803 843 655 536 654 691 698 877 1042 1130 1314 1422 1511 1521
6 0 3 1 0 0 1 0 0 0 20 267 395 380 914 1040 915 806 659 617 358 168 203 751 891 849 852 793 893 946 868 812 783 619 654 691 782 972 1185 1438 1571 1552 1546
4 12 5 5 2 0 0 0 0 0 0 0 78 430 348 340 516 682 409 270 182 69 575 918 960 1010 870 847 1020 1074 992 889 1069 763 643 706 850 986 1201 1413 1609 1744 1693
1 0 4 4 2 2 1 3 0 0 0 0 11 214 381 530 322 285 371 95 164 15 727 1010 1173 949 1045 1097 1170 1118 1033 1310 1328 1252 869 816 911 1030 1181 1455 1628 1731 1602
3 2 2 2 1 1 2 2 6 0 0 0 0 39 225 152 110 45 34 582 759 907 413 793 1032 1246 1234 1328 1409 1372 1225 978 1015 1400 1294 1175 1236 1289 1372 1623 1748 1448 1628
1 3 2 1 1 2 3 2 3 2 0 0 0 12 527 252 369 311 102 183 798 1298 1448 1095 921 1267 1247 1336 1491 1444 1379 1120 1057 1176 1293 1246 1197 1227 1303 1359 1370 939 771
3 2 1 4 3 2 1 0 1 4 3 0 0 36 434 722 713 558 392 257 578 1077 1546 1599 1447 1215 1330 1516 1533 1425 1262 1192 1133 1093 1216 1249 1162 1152 1056 748 531 508 514
7 3 4 2 3 4 2 2 2 2 6 6 0 1 101 274 778 1168 1050 755 585 673 1280 1628 1651 1477 1278 1270 1329 1322 1220 1208 1157 978 833 750 585 439 323 283 228 207 115
3 4 3 3 3 3 4 2 3 0 2 6 10 6 133 170 580 1073 895 409 59 11 0 34 382 264 50 16 18 331 900 896 660 404 330 175 165 170 145 136 98 22 8
2 3 4 3 4 4 4 3 4 3 2 7 13 18 53 181 169 30 3 6 8 9 11 10 7 6 6 6 6 1 0 0 2 31 40 53 59 26 46 18 1 2 1
1 2 4 4 3 3 4 1 1 1 0 0 1 4 0 0 3 10 15 17 12 15 13 12 11 10 4 4 1 0 1 0 0 0 0 1 0 0 0 3 0 0 0
1 1 2 4 4 2 2 2 2 1 2 1 1 3 3 11 18 19 12 11 12 10 8 7 7 3 1 0 0 0 0 0 0 0 0 0 0 0 0 0 0 0 0

GFSGL_con_mlcape_072.txt.gz
CAPE
1070 1008 982 979 1040 1169 1062 1125 1155 912 1027 1459 1446 1491 1528 1311 1534 2051 1483 1204 1784 1428 1053 1215 1630 1663 1037 954 1210 1250 1220 1210 1012 971 1555 1908 2783 2756 2668 2603 1936 1606 1102
961 1062 1065 1072 1012 829 1046 940 1015 1039 1052 1463 1634 1492 1546 1552 1836 1849 1429 1155 1270 1321 1517 1309 1340 1143 1804 1643 1349 1297 1120 1303 1328 1161 1374 1736 2119 2338 2335 2577 2153 1601 1854
892 942 948 991 972 909 796 980 871 969 1049 1230 1483 1623 1413 1445 2075 2089 1557 1460 1701 1609 1627 1504 1591 1414 1404 988 1563 1098 1242 1545 1632 1647 1534 1484 1685 2023 2040 1919 1895 1978 1438
814 798 824 824 849 917 955 972 947 985 1001 1026 1283 1529 1580 1077 1412 1700 1957 1623 1610 1563 1866 1834 1551 1579 1729 1947 1806 1954 1954 1648 1345 1543 1414 1336 1385 1530 1838 1462 1120 1133 1568
599 859 811 872 884 915 953 1085 1148 1061 1041 982 900 1084 1408 1543 1110 1434 1914 1851 1884 1787 2023 2152 1826 1340 1489 1788 1821 1846 1888 1891 1379 1188 1248 1301 1275 1256 1583 997 1105 967 1232
409 495 729 999 1039 1106 1064 975 1106 1202 1227 1119 1023 777 782 778 782 920 1527 1894 1869 1867 1864 2131 2053 1616 1370 1143 914 634 1015 1756 1856 1694 1283 1199 1497 1589 1250 981 1053 824 958
0 460 505 626 1047 1167 1273 1251 1129 1020 1076 1257 1193 1026 868 767 232 323 571 857 1106 1448 1676 1677 1877 1479 1640 1730 1208 718 674 633 674 1145 1338 1282 1184 1230 1436 1669 1441 1382 1321
0 0 353 372 609 963 1145 1171 1224 1274 1199 1209 1304 1349 1236 1134 562 159 123 627 796 1000 1224 1516 1700 1438 1355 1690 1687 1425 1549 1515 1367 1081 1100 1268 1387 1406 1710 1826 1816 1857 1532
0 0 0 18 796 859 889 1124 1163 1160 1246 1202 1188 1328 1422 1342 744 372 104 277 227 684 1018 1294 1623 1708 1672 1238 1364 1164 1263 1287 1060 1228 1244 1187 1257 1183 969 961 662 464 251
0 0 0 7 1 329 719 997 976 1019 1087 1249 1269 1274 1303 1434 1233 529 166 378 345 216 365 925 1097 1186 1419 1244 1589 1234 950 683 695 589 1043 1100 990 1229 734 993 1015 482 160
0 0 0 0 0 0 72 658 786 1088 1065 1174 1278 1325 1341 1326 1312 742 291 399 428 429 354 114 84 260 483 423 828 1393 1100 640 191 432 462 456 433 895 1685 1516 1388 1176 265
0 0 0 0 0 0 1 6 544 774 1175 1302 1350 1513 1537 1502 1132 936 371 160 496 586 697 600 674 369 38 25 32 261 503 421 61 0 0 1 5 74 246 618 1601 1963 1482
0 0 0 0 0 0 0 0 0 432 698 1142 1198 1279 1489 1534 1645 1076 497 180 64 146 711 946 811 565 239 3 1 40 1 208 97 0 0 0 0 0 199 623 1217 2004 2334
0 0 0 0 0 0 0 0 0 0 158 573 954 1433 1301 1515 1621 1824 1270 428 48 8 42 141 514 670 637 754 574 35 63 258 149 94 10 1 10 0 12 212 570 675 882
0 0 0 0 0 0 0 0 0 0 9 111 573 968 1284 1310 1457 1662 1705 1914 1628 678 345 548 772 790 872 905 738 573 603 457 307 353 364 289 133 18 15 99 284 486 510
2 0 0 0 0 0 0 0 0 0 0 0 0 3 417 800 603 568 830 798 796 703 609 732 1086 1211 1196 1160 929 723 677 659 775 737 614 487 320 120 65 112 267 426 548
1 9 4 3 1 0 0 0 0 0 0 0 0 0 0 78 328 272 194 231 400 446 921 1101 1264 1294 1471 1470 1465 1277 1049 817 858 718 655 577 379 289 154 157 217 461 888
4 0 7 5 0 4 8 0 0 0 0 0 0 0 0 0 0 64 83 18 211 71 756 880 1106 1485 1616 1868 1692 1723 1545 1518 1418 1247 1097 951 759 554 430 430 460 652 776
9 3 1 6 9 6 5 8 1 0 0 0 0 0 0 0 0 0 0 140 690 760 668 853 914 1242 1622 1612 1651 1699 1796 1886 1859 1778 1729 1512 1283 1036 871 780 657 606 852
4 2 5 7 5 3 9 9 4 3 0 0 0 0 0 0 14 288 1 24 369 962 1225 1300 1271 1295 1338 1632 1917 1943 2064 2151 1847 1689 1745 1901 1676 1837 1779 1566 1436 1403 1484
1 4 2 1 8 6 7 7 6 6 4 0 0 0 0 0 11 248 877 290 357 835 1251 1570 1568 1774 1772 1748 1771 1844 1862 2014 1889 1777 1646 1601 1512 1366 1224 1324 1394 1476 1674
6 4 3 5 4 3 4 4 1 8 8 1 0 0 0 0 0 0 55 733 785 563 740 1458 1938 1848 1965 2099 2035 1772 1863 1962 1982 1766 1636 1450 1349 1239 1230 1143 1130 968 887
7 5 8 9 7 5 3 4 3 2 4 6 1 0 0 4 1 1 96 367 822 524 144 100 306 872 552 377 368 689 1348 1871 1865 1721 1474 1302 1087 1013 839 639 554 481 449
8 5 5 7 9 12 6 4 5 2 0 7 5 5 1 1 0 18 76 7 1 1 5 6 6 2 4 5 7 4 3 5 3 196 860 768 594 398 424 349 275 312 378
1 3 3 2 3 4 4 3 6 6 8 5 5 4 11 0 0 0 1 4 6 6 12 12 12 10 7 5 4 5 5 5 5 2 0 19 50 60 76 147 173 45 39
2 1 2 2 2 3 4 3 2 3 4 5 6 3 2 1 0 0 2 9 15 10 10 10 5 5 4 3 1 0 0 0 0 0 0 0 0 1 0 0 0 0 0

GFSGL_con_mlcape_075.txt.gz
CAPE
1415 1346 1417 1525 1613 1705 1285 1196 1189 988 1193 1239 1814 1631 1649 1472 1374 1626 1789 1437 1394 1301 1268 1070 1712 1728 1332 738 643 796 938 1062 1028 896 1337 1978 2890 2620 2755 2994 2631 2348 1905
1198 1408 1403 1468 1511 1467 1589 1404 1426 1429 1118 1074 1629 1635 1730 1690 1671 1675 1571 876 1403 1342 1325 1290 1153 1260 1884 1689 1471 1436 1226 1749 1488 1746 1460 1233 1703 2164 2700 2842 2420 1718 1861
986 1151 1311 1364 1475 1451 1386 1564 1518 1479 1380 983 1444 1556 1438 1469 1803 1884 1728 1482 1531 1413 1366 1384 1378 1510 1544 1449 1607 1086 1187 1642 1592 1632 1649 1461 1366 1551 1819 2233 2517 1975 2112
666 1029 1188 1383 1424 1399 1519 1521 1470 1595 1483 1368 1277 1697 1780 1340 1328 1841 1845 1794 1804 1799 1765 1584 1477 1553 1795 1908 1740 1926 1582 1606 1367 1242 1112 1165 1214 1352 1542 1606 1425 976 1052
155 882 1083 1324 1453 1298 1439 1637 1574 1623 1596 1534 1414 1458 1543 1612 1138 1479 1666 1674 1758 1934 1886 1821 1832 1529 1451 1826 1745 1804 1632 1948 1339 1105 1022 1046 1076 1273 1798 1920 1202 1031 1206
0 66 971 1133 1158 1456 1514 1584 1722 1800 1786 1822 1625 1411 1339 1011 704 858 1282 1664 1831 2080 2103 2283 2281 1575 1333 1096 1236 1293 1469 2175 2376 1926 1498 1319 1859 1613 1201 1253 1221 917 641
0 0 15 407 997 1024 1364 1501 1630 1730 1902 2023 1863 1714 1672 1543 667 308 773 991 1593 2147 1936 2249 1967 1211 1626 1904 1293 713 391 210 331 969 1366 1548 1401 1498 1455 1734 1253 1736 1506
0 0 0 0 90 560 925 1114 1402 1643 1641 1693 1893 2104 2094 2016 1256 553 191 891 1173 1279 1626 2035 2004 1978 1959 2186 1992 1882 1855 1667 1279 831 828 985 1382 1715 1783 1755 1985 2291 1979
0 0 0 0 0 3 138 770 1262 1455 1443 1543 1683 1917 2158 2242 1653 1077 439 468 517 1075 1392 1322 1590 2025 2208 1482 1715 2084 1918 2037 1188 1305 1322 1405 1369 1110 992 1108 797 387 209
0 0 0 0 0 0 0 0 341 1152 1597 1537 1580 1606 1826 1951 2087 1527 838 961 688 739 884 1124 909 1168 1494 1711 1587 1628 1731 1752 1969 841 1052 1087 938 1094 774 848 1082 886 391
0 0 0 0 0 0 0 0 2 223 980 1433 1457 1556 1531 1699 1997 1414 1143 1302 1068 919 796 780 794 540 252 613 918 1783 1847 2077 1817 1149 798 483 373 927 1518 1627 1744 1349 688
0 0 0 0 0 0 0 0 0 7 95 1262 1379 1428 1496 1543 1588 1545 1087 865 1360 1077 1027 820 837 394 66 25 61 325 482 998 1204 840 388 59 11 62 60 121 1281 1903 1637
0 0 0 0 0 0 0 0 0 0 0 17 988 992 1142 1443 1306 1380 971 793 745 890 1129 1040 665 356 349 0 0 54 47 238 463 681 594 286 5 0 0 11 64 1894 2069
0 0 0 0 0 0 0 0 0 0 0 0 150 394 966 1260 1328 1544 1466 576 338 353 608 668 597 576 613 679 731 339 126 289 475 616 588 447 125 0 0 14 16 21 164
0 0 0 0 0 0 0 0 0 0 0 0 0 30 26 32 1305 417 227 389 1137 935 826 1030 913 750 711 922 1125 1196 1290 898 579 559 666 521 245 78 37 37 21 13 115
0 0 0 0 0 0 0 0 0 0 0 0 0 0 0 0 0 0 0 6 67 182 846 1147 1285 1303 1421 1361 1378 1420 1485 1197 1049 963 789 625 478 455 490 430 146 36 83
4 3 0 0 0 0 0 0 0 0 0 0 0 0 0 0 0 0 0 0 1 23 402 1258 1443 1481 1490 1581 1527 1512 1524 1255 1143 938 1008 1178 1009 845 782 636 508 283 276
6 3 4 1 0 0 0 0 0 0 0 0 0 0 0 0 0 0 0 0 0 46 336 758 1391 1513 1643 1816 1662 1723 1847 1785 1513 1411 1435 1229 988 978 952 773 636 501 359
4 6 5 1 4 5 1 1 0 0 0 0 0 0 0 0 0 0 0 0 9 128 607 912 881 1424 1538 1684 1884 1979 1958 1992 1925 2120 1995 1851 1637 1451 1269 1061 847 620 577
3 8 11 10 1 0 5 7 0 1 0 0 0 0 0 0 0 0 0 0 30 173 117 947 1231 1160 1426 1655 1829 1838 2060 2134 1932 1654 1626 1685 1851 1606 1355 1325 1214 1107 1326
4 4 6 9 2 3 6 3 6 7 2 0 0 0 0 0 0 0 0 10 127 416 319 752 1401 1561 1595 1739 1641 1863 1841 2020 2068 1991 2020 1934 2017 1950 2108 2014 1835 1648 1450
5 3 3 5 2 1 7 8 2 7 14 7 1 0 0 0 0 0 0 0 0 193 799 618 1004 1488 1411 1533 1627 1786 1830 1830 2083 2335 2129 2018 1733 1795 1974 1868 1821 1613 1536
7 5 3 4 4 3 7 5 5 6 6 16 11 1 0 0 0 0 0 0 0 16 386 749 738 931 501 301 121 706 1813 2059 2110 2099 2429 2189 1768 1643 1702 1614 1466 1281 1262
6 6 5 3 2 8 10 16 13 7 7 3 16 9 1 2 0 0 0 0 24 0 0 0 1 1 1 3 6 4 2 1 1 51 169 817 1621 1578 1434 1219 1104 959 810
3 2 2 2 3 4 2 4 4 2 11 18 9 7 7 6 19 4 22 5 1 0 0 0 3 5 5 4 1 3 6 7 3 4 3 21 195 384 476 454 431 366 395
2 2 2 1 1 2 2 3 5 4 3 6 10 10 10 4 3 10 12 2 1 0 0 1 3 4 4 3 2 2 1 2 0 2 4 0 0 0 0 0 0 0 0

GFSGL_con_mlcape_078.txt.gz
CAPE
1808 1794 1757 1805 1972 1645 1484 1369 771 1116 810 17 0 168 1171 1349 1260 1444 1046 988 1045 791 1429 1420 1064 1499 879 1913 1800 1604 935 1240 1518 1538 1771 2744 2318 2266 2491 2868 2873 2662 2470
1761 1755 1742 1914 1939 2064 1778 1571 1428 1069 1249 743 274 537 997 1454 1462 1306 1356 1537 1154 1353 876 881 1279 1659 1324 1440 1295 1328 1373 1296 1316 1511 1522 1198 1035 1492 2903 2408 2727 2363 2132
764 1736 1815 1683 1795 1955 2034 1907 1855 1772 1555 1370 949 1515 1536 1270 1321 1338 1304 1605 1131 1428 1667 1476 1190 1561 1418 1290 1544 1856 1624 1908 1598 1415 1348 1843 1901 1540 1736 1994 2408 2213 2531
16 485 1058 1603 1624 1623 1821 1864 1716 1807 1847 1560 1396 1688 1310 1548 1647 1502 1432 1434 1385 1510 1609 1681 1856 1659 1621 1408 1569 1546 1555 1738 1394 1446 1266 1004 1097 1322 1837 1724 1909 1402 920
0 35 83 97 1625 1903 1410 1450 1711 1793 1870 1899 1723 1462 1766 1487 1612 1516 1811 1680 1136 915 1445 1773 1922 2172 1833 1842 1807 1842 1840 1549 1672 1416 1204 1286 1248 2007 2025 1842 1536 1833 1476
0 1 0 279 432 862 1031 1257 1729 1687 1649 1864 1953 1892 1532 1932 1220 984 1355 1883 1906 1922 1285 1469 2119 1759 1867 1179 1145 1275 1447 1573 1571 1737 2038 1974 1511 1888 1738 1564 1380 1040 577
0 0 0 0 0 241 957 1474 1599 1526 1596 1717 1941 1992 1902 1774 1265 395 425 1246 1784 1953 1714 1495 1702 1482 1924 1588 1015 904 698 448 742 918 951 1089 574 323 711 692 1002 1071 1301
0 0 0 0 0 3 122 218 738 1173 1291 1479 1781 2050 2173 2171 1756 1158 614 486 1185 1183 1461 1940 1845 1580 1558 1910 2259 2062 1527 1202 849 377 171 98 154 229 590 763 831 1497 1977
0 0 0 0 0 0 6 2 15 388 1018 1157 1268 1552 1944 2236 2060 1623 1274 883 734 837 1332 1320 1238 1954 1970 1408 1188 1427 2238 2415 2214 1732 1522 1064 701 504 636 1143 964 713 541
0 0 0 0 0 0 0 0 0 0 118 799 1177 1396 1527 1750 2234 1982 1368 1402 1287 975 772 860 1090 1227 865 1296 1921 1695 1233 1058 1970 2298 1390 846 836 903 864 897 1078 906 858
0 0 0 0 0 0 0 0 0 0 0 103 330 1099 1231 1493 1712 1726 1532 1828 1627 1460 1287 1106 993 802 608 515 381 1036 1672 1698 1528 1539 1591 1460 1230 1168 1178 956 850 929 826
0 0 0 0 0 0 0 0 0 0 0 0 17 354 1090 1556 1655 1422 1156 917 1745 1705 1571 1403 1344 977 624 546 323 183 227 623 1185 1271 1273 1207 1019 781 601 255 826 1150 1207
0 0 0 0 0 0 0 0 0 0 0 0 0 0 77 1209 1434 1424 1252 619 763 1126 1626 1626 1414 803 461 181 58 9 1 31 242 489 612 754 834 793 458 61 3 121 1063
0 0 0 0 0 0 0 0 0 0 0 0 0 0 54 477 601 1215 1206 680 333 88 180 941 1189 1107 953 661 512 282 26 112 112 225 327 461 642 756 693 400 21 0 0
0 0 0 0 0 0 0 0 0 0 0 0 0 0 0 0 34 2 23 0 0 5 121 715 994 1049 1022 960 871 841 924 619 461 470 502 625 760 832 753 510 127 0 0
0 0 0 0 0 0 0 0 0 0 0 0 0 0 0 0 0 0 0 0 0 0 5 675 995 1295 1515 1539 1233 1000 958 1122 1290 985 874 843 792 741 740 621 384 110 82
1 0 0 0 0 0 0 0 0 0 0 0 0 0 0 0 0 0 0 0 0 0 0 1 614 1197 1467 1335 1468 1645 1588 1475 1510 1488 1475 1454 1155 974 791 600 414 387 699
1 1 1 0 0 0 0 0 0 0 0 0 0 0 0 0 0 0 0 0 0 0 0 0 5 510 839 1273 1474 1293 1813 1970 2042 1817 1665 1309 1122 1234 1353 1229 1013 899 746
0 0 1 1 1 2 4 1 0 0 0 0 0 0 0 0 0 0 0 0 0 0 0 68 165 379 711 981 1437 1672 1436 1299 2035 2008 1806 1559 1553 1390 1138 951 859 901 892
4 1 3 4 2 4 4 3 6 4 0 2 0 0 0 0 0 0 0 0 0 0 0 0 0 14 903 1092 1184 1603 1662 1607 1380 1416 2072 1725 1794 1568 1372 1253 1205 990 935
4 4 4 1 0 3 2 6 10 11 7 5 0 0 0 0 0 0 0 0 0 69 105 237 556 548 936 1324 1539 1587 1537 1586 1589 1383 1443 1952 1861 1556 1299 1446 1271 1299 1107
1 6 6 5 6 4 3 2 6 8 9 11 5 0 0 0 0 0 1 0 0 0 0 213 230 575 573 1006 1388 1467 1092 1095 1150 1214 1390 1682 1549 1550 1493 1613 1704 1721 1626
0 0 1 2 1 2 1 1 7 8 8 9 7 5 2 0 0 0 0 4 0 0 0 0 19 342 674 337 138 102 231 401 320 331 279 532 765 1095 1422 1876 1816 1754 1623
0 1 1 1 1 3 2 3 4 3 2 6 19 12 8 9 10 0 0 0 2 2 0 6 0 0 0 0 0 0 1 4 1 0 9 39 203 710 1106 1179 1365 1553 1376
1 1 2 2 2 2 1 2 2 2 5 8 10 7 1 11 10 1 0 0 24 51 60 1 0 0 0 0 0 0 0 1 2 3 1 0 7 202 453 784 938 1109 1027
2 1 1 2 1 2 2 1 2 2 2 2 4 6 3 1 2 6 0 0 5 15 0 1 3 1 0 0 0 0 0 1 1 0 1 6 4 11 8 32 29 44 51

GFSGL_con_mlcape_084.txt.gz
CAPE
369 401 550 414 604 558 391 688 700 583 488 500 491 489 566 578 978 1063 838 627 529 538 213 624 750 1067 1073 1174 893 685 928 1037 959 981 1129 957 953 1153 1403 1218 1173 1647 2292
94 206 376 353 413 691 787 957 840 775 501 397 265 207 63 399 773 1092 862 696 625 778 467 270 524 744 991 1312 1032 794 952 1311 1243 1207 1139 1197 1342 1191 836 1073 1515 1731 1670
5 69 148 199 303 374 600 738 836 779 701 467 328 14 3 174 562 973 1007 829 576 557 1001 592 710 561 435 485 437 595 590 850 1040 984 994 1069 848 639 1101 1609 1505 1435 1271
12 0 13 93 116 187 365 499 577 668 775 598 432 279 111 50 393 726 960 976 872 975 910 831 807 886 813 644 688 827 711 625 698 616 527 654 795 1149 1631 1524 1150 646 490
6 19 2 26 20 51 108 2 33 439 896 651 585 505 471 605 822 715 1187 1113 833 746 880 1005 1013 1195 1326 1175 1212 1195 1004 943 734 613 756 830 636 905 1393 1504 1132 488 0
0 0 1 11 4 0 7 9 0 13 575 978 1056 1190 1352 1534 1447 1286 1149 1078 1051 1014 831 821 836 1057 1058 1101 1416 1508 1589 1083 997 948 592 461 728 937 1039 978 399 0 0
0 0 0 0 0 0 11 40 1 2 180 643 1034 1079 1193 1239 1328 1181 1112 1044 1114 1160 1130 1020 921 820 738 873 999 1235 1267 1153 1339 1229 960 720 386 103 17 0 0 15 51
0 0 0 0 0 0 0 0 0 9 43 145 446 892 1002 1200 1182 1118 1051 851 933 1075 1180 1261 1209 1154 1093 1119 1000 869 852 980 977 893 913 816 667 641 393 317 223 298 427
0 0 0 0 0 0 0 0 0 0 0 0 3 96 422 739 958 815 831 948 948 812 724 853 1061 1207 1497 1416 1261 1217 1118 1096 1268 1081 892 873 897 918 757 549 638 463 354
0 0 0 0 0 0 0 0 0 0 0 0 0 0 0 17 78 377 743 680 806 901 899 835 790 866 885 761 792 952 1004 967 1077 1127 1156 841 731 718 615 553 910 943 634
0 0 0 0 0 0 0 0 0 0 0 0 0 0 0 0 0 0 160 501 835 981 770 837 903 761 639 636 671 907 887 830 772 703 769 891 936 986 1005 741 556 699 596
0 0 0 0 0 0 0 0 0 0 0 0 0 0 0 0 0 28 22 146 287 470 762 1011 1181 946 453 330 258 396 489 359 353 414 446 565 675 772 825 793 651 570 594
0 0 0 0 0 0 0 0 0 0 0 0 0 0 0 0 0 0 0 0 0 0 9 10 1 19 49 292 577 512 347 279 368 342 307 345 398 457 539 660 710 785 722
0 0 0 0 0 0 0 0 0 0 0 0 0 0 0 0 0 0 0 0 0 0 0 0 0 0 0 0 0 205 249 333 546 670 720 571 321 209 255 295 337 374 291
0 0 0 0 0 0 0 0 0 0 0 0 0 0 0 0 0 0 0 0 0 0 0 0 0 0 0 0 0 0 336 443 359 495 525 589 494 309 190 118 156 194 227
0 0 0 0 0 0 0 0 0 0 0 0 0 0 0 0 0 0 0 0 0 0 0 0 0 0 0 0 0 0 110 542 784 670 513 510 526 411 247 138 98 122 190
0 0 0 0 0 0 0 0 0 0 0 0 0 0 0 0 0 0 0 0 0 0 0 0 0 0 0 0 0 0 0 163 807 647 586 501 477 437 388 299 300 285 350
0 0 0 0 0 0 0 0 0 0 0 0 0 0 0 0 0 0 0 0 0 0 0 0 0 0 0 0 0 0 0 0 170 585 619 666 689 620 583 553 489 415 442
0 0 0 0 0 0 0 0 0 0 0 0 0 0 0 0 0 0 0 0 0 0 0 0 0 0 0 0 0 0 0 0 0 87 478 748 758 718 726 656 531 396 69
0 0 0 0 0 0 0 0 0 0 0 0 0 0 0 0 0 0 0 0 0 0 0 0 0 0 0 0 0 0 0 0 32 56 258 600 582 618 669 666 525 340 130
0 0 0 0 0 0 0 0 0 0 0 0 0 0 0 0 0 0 0 0 0 0 0 0 0 0 0 0 0 0 0 28 134 171 370 289 417 464 566 543 421 432 357
0 0 0 0 0 0 0 0 0 0 0 0 0 1 1 0 1 4 1 2 3 0 0 0 0 0 0 0 0 0 1 0 0 56 50 41 107 178 240 331 269 238 183
0 0 0 0 0 0 0 0 0 0 0 1 0 0 0 0 2 1 1 1 4 5 10 3 0 0 0 0 8 4 1 0 0 1 1 1 1 1 43 146 121 16 0
0 0 0 0 0 0 0 0 0 0 0 0 0 1 0 1 4 0 0 2 3 0 1 13 12 0 0 0 0 2 0 0 0 0 1 1 1 0 0 0 1 15 1
0 0 0 0 0 0 0 0 0 0 1 1 1 1 3 0 3 5 2 3 2 5 6 9 0 2 6 1 0 0 0 0 0 0 0 0 0 1 1 1 1 37 139
0 0 0 0 0 0 0 0 0 0 1 1 2 2 4 3 3 5 5 5 5 5 5 8 7 4 1 0 16 1 0 0 0 0 0 0 0 0 0 0 0 0 2

GFSGL_con_mlcape_087.txt.gz
CAPE
295 319 281 300 366 328 262 154 191 68 215 410 403 694 785 690 632 429 664 730 647 280 419 402 617 786 1021 1152 1098 706 897 1044 876 826 1032 1082 1191 1146 912 1106 1407 1526 1692
116 258 399 516 528 370 288 370 373 683 555 332 362 500 505 503 542 661 968 891 705 425 467 444 99 481 645 1044 1170 801 640 739 855 845 903 928 956 771 755 1198 1373 1063 1029
36 71 123 129 224 354 344 551 459 578 540 388 353 305 256 89 217 567 836 954 817 665 418 464 788 515 424 354 461 379 434 555 645 605 475 643 600 504 899 1253 1264 1090 781
51 20 8 46 44 42 0 58 254 434 609 544 400 260 123 15 9 286 599 766 837 820 765 709 599 638 653 634 587 574 702 729 646 578 511 410 527 820 1071 1070 1016 1033 844
7 17 3 3 0 0 6 4 0 11 183 560 624 457 308 208 123 133 301 684 798 741 813 792 785 812 834 1033 1134 988 991 1052 966 765 740 698 463 434 553 801 825 586 41
0 0 0 0 5 0 15 0 0 0 15 99 439 702 702 673 602 657 791 778 911 1033 911 844 848 718 731 749 891 887 1112 1146 1224 1151 1042 916 823 669 497 264 162 1 0
0 1 1 1 0 0 0 0 0 0 0 0 26 276 614 797 964 957 1005 1027 1186 1112 995 961 925 1000 920 832 681 554 571 614 837 1195 943 926 994 952 744 534 418 315 154
0 0 0 0 0 0 0 0 0 0 0 0 0 0 27 223 278 407 424 546 799 824 905 1006 1057 1002 890 980 1026 1027 964 869 688 483 630 911 992 930 673 590 506 397 299
0 0 0 0 0 0 0 0 0 0 0 0 0 0 0 0 2 5 55 372 504 751 744 720 897 908 894 847 762 681 749 1051 1135 942 807 766 757 720 590 455 640 581 608
0 0 0 0 0 0 0 0 0 0 0 0 0 0 0 0 0 0 0 39 329 451 646 663 604 624 686 635 678 798 814 698 650 662 656 499 428 418 316 207 583 638 742
0 0 0 0 0 0 0 0 0 0 0 0 0 0 0 0 0 0 0 0 39 274 442 501 601 614 433 342 125 439 727 660 797 763 766 720 676 670 617 312 266 448 562
0 0 0 0 0 0 0 0 0 0 0 0 0 0 0 0 0 0 0 0 0 0 0 62 111 1 0 21 60 319 315 89 170 320 380 513 507 499 558 588 560 428 473
0 0 0 0 0 0 0 0 0 0 0 0 0 0 0 0 0 0 0 0 0 0 0 0 0 0 0 0 0 0 0 0 92 321 507 472 484 463 389 418 391 504 439
0 0 0 0 0 0 0 0 0 0 0 0 0 0 0 0 0 0 0 0 0 0 0 0 0 0 0 0 0 0 0 0 0 0 34 268 363 387 412 378 366 337 200
0 0 0 0 0 0 0 0 0 0 0 0 0 0 0 0 0 0 0 0 0 0 0 0 0 0 0 0 0 0 0 0 0 0 0 18 304 412 428 351 237 222 156
0 0 0 0 0 0 0 0 0 0 0 0 0 0 0 0 0 0 0 0 0 0 0 0 0 0 0 0 0 0 0 0 0 7 17 23 32 277 397 404 253 178 130
0 0 0 0 0 0 0 0 0 0 0 0 0 0 0 0 0 0 0 0 0 0 0 0 0 0 0 0 0 0 0 0 0 0 0 49 227 338 302 216 195 168 123
0 0 0 0 0 0 0 0 0 0 0 0 0 0 0 0 0 0 0 0 0 0 0 0 0 0 0 0 0 0 0 0 0 0 0 0 48 207 360 485 450 382 349
0 0 0 0 0 0 0 0 0 0 0 0 0 0 0 0 0 0 0 0 0 0 0 0 0 0 0 0 2 2 1 0 0 0 0 0 11 70 128 471 561 494 475
0 0 0 0 0 0 0 0 0 0 0 0 0 0 0 0 0 0 0 0 0 1 1 0 0 0 0 2 0 1 1 0 2 5 12 12 87 204 272 182 430 437 501
0 0 0 0 0 0 0 0 0 0 0 0 0 0 0 0 0 0 0 0 0 0 2 4 3 2 0 0 0 0 0 0 0 0 1 0 0 82 120 66 127 99 287
0 0 0 0 0 0 0 0 0 0 0 0 0 0 0 0 0 1 1 1 1 2 2 1 0 4 12 11 6 0 0 0 2 15 3 2 4 7 17 59 141 92 169
0 0 0 0 0 0 0 0 0 0 0 0 0 0 0 0 0 0 0 1 1 0 0 0 2 4 1 0 14 18 10 0 1 0 0 1 1 0 4 6 6 18 23
0 0 0 0 0 0 0 0 0 0 0 0 0 0 0 0 0 0 0 1 0 1 1 3 3 1 1 1 3 1 18 26 29 3 1 0 1 0 4 4 0 4 4
0 0 0 0 0 0 0 0 0 0 0 0 0 0 0 0 0 0 1 1 1 2 2 0 4 6 3 1 1 2 3 1 0 11 0 0 0 0 0 1 4 4 4
0 0 0 0 0 0 0 0 0 0 0 0 0 0 0 1 2 0 0 1 2 2 2 3 4 5 7 8 3 2 0 0 0 0 0 0 0 0 0 0 1 0 2

GFSGL_con_mlcape_090.txt.gz
CAPE
12 103 127 187 256 271 221 175 136 150 59 55 213 457 598 514 595 477 278 505 540 372 231 229 338 536 762 1037 1141 792 830 928 899 919 1011 1143 1131 1024 863 1230 1351 1214 937
57 149 234 319 330 352 296 244 282 256 240 224 251 262 400 626 664 617 286 401 556 568 323 251 318 250 422 619 1038 982 798 632 539 404 611 620 603 613 582 806 1210 1223 1169
19 46 69 136 239 276 281 239 231 382 410 361 299 231 222 277 299 423 496 501 595 431 567 462 343 515 337 352 290 440 471 456 630 576 466 580 616 462 666 1218 1277 1221 1198
7 28 24 13 0 0 0 0 52 186 443 433 377 308 279 192 50 32 34 403 556 559 465 536 530 471 537 584 572 472 531 591 733 784 797 723 641 826 807 640 585 661 284
46 41 23 3 0 0 0 0 0 0 25 220 477 443 397 286 208 120 32 145 362 544 639 661 663 636 548 531 681 878 784 749 857 1087 1063 1070 1084 924 898 834 769 626 478
1 0 3 0 5 1 0 0 0 0 0 0 85 303 423 543 540 295 231 445 633 658 695 890 816 658 695 622 538 554 761 930 971 914 924 799 1006 666 864 978 877 739 654
1 1 1 0 0 0 0 0 0 0 0 0 0 0 24 140 36 121 246 581 839 965 993 1034 992 967 826 850 710 553 470 406 494 740 732 801 729 658 800 818 669 548 498
0 0 0 0 0 0 0 0 0 0 0 0 0 0 0 0 0 0 0 120 436 664 794 878 890 886 913 855 820 810 862 845 748 616 740 957 956 963 842 853 726 470 328
0 0 0 0 0 0 0 0 0 0 0 0 0 0 0 0 0 0 0 0 140 390 505 579 653 772 770 598 645 552 667 711 770 542 484 510 511 447 482 477 436 415 368
0 0 0 0 0 0 0 0 0 0 0 0 0 0 0 0 0 0 0 0 0 74 234 336 381 412 461 221 399 569 639 692 753 784 791 623 446 531 243 151 534 576 544
0 0 0 0 0 0 0 0 0 0 0 0 0 0 0 0 0 0 0 0 0 0 1 34 28 0 0 0 0 157 437 496 454 458 537 628 671 715 759 517 333 470 577
0 0 0 0 0 0 0 0 0 0 0 0 0 0 0 0 0 0 0 0 0 0 0 0 0 0 0 0 0 0 0 0 0 0 119 356 527 613 595 549 637 449 451
0 0 0 0 0 0 0 0 0 0 0 0 0 0 0 0 0 0 0 0 0 0 0 0 0 0 0 0 0 0 0 0 0 0 0 0 0 0 190 316 316 454 476
0 0 0 0 0 0 0 0 0 0 0 0 0 0 0 0 0 0 0 0 0 0 0 0 0 0 0 0 0 0 0 0 0 0 0 0 0 0 105 230 247 347 371
0 0 0 0 0 0 0 0 0 0 0 0 0 0 0 0 0 0 0 0 0 0 0 0 0 0 0 0 0 0 0 0 0 0 0 0 0 0 0 201 284 219 219
0 0 0 0 0 0 0 0 0 0 0 0 0 0 0 0 0 0 0 0 0 0 0 0 0 0 0 0 0 0 0 0 0 0 0 0 0 0 1 42 116 212 201
0 0 0 0 0 0 0 0 0 0 0 0 0 0 0 0 0 0 0 0 0 0 0 0 0 0 0 0 0 0 0 0 0 0 0 0 0 2 6 3 6 59 61
0 0 0 0 0 0 0 0 0 0 0 0 0 0 0 0 0 0 0 0 0 0 0 0 0 0 0 0 0 0 3 2 0 6 9 4 1 2 3 4 5 26 22
0 0 0 0 0 0 0 0 0 0 0 0 0 0 0 0 0 0 0 0 0 0 0 0 0 0 0 0 0 0 0 1 4 0 0 0 9 21 16 16 14 3 3
0 0 0 0 0 0 0 0 0 0 0 0 0 0 0 0 0 0 0 0 0 0 0 0 0 1 2 3 0 1 2 4 1 0 0 0 0 10 5 4 0 9 55
0 0 0 0 0 0 0 0 0 0 0 0 0 0 0 0 0 0 0 0 0 0 0 0 0 0 0 1 2 1 7 4 3 4 1 0 1 7 4 1 5 16 39
0 0 0 0 0 0 0 0 0 0 0 0 0 0 0 0 0 0 0 0 0 0 0 1 3 1 0 1 3 1 4 6 7 6 7 0 0 3 2 3 3 1 5
0 0 0 0 0 0 0 0 0 0 0 0 0 0 0 0 0 0 0 0 0 0 0 0 0 1 3 0 0 4 6 3 7 5 2 11 8 20 15 6 3 4 4
0 0 0 0 0 0 0 0 0 0 0 0 0 0 0 0 0 0 0 0 0 1 1 2 3 3 4 4 5 4 3 5 1 1 0 4 2 5 8 8 4 3 5
0 0 0 0 0 0 0 0 0 0 0 0 0 0 0 0 0 0 0 0 1 1 2 2 2 1 0 0 1 4 4 1 1 0 0 2 2 3 2 4 6 5 4
0 0 0 0 0 0 0 0 0 0 0 0 0 0 0 0 0 0 0 0 1 0 2 1 3 2 3 3 4 1 0 0 2 1 1 3 4 4 8 5 4 8 4

GFSGL_con_mlcape_093.txt.gz
CAPE
108 127 244 254 307 390 595 630 506 507 414 488 667 716 981 793 911 657 683 1043 930 1080 923 877 857 1124 1056 1387 1863 1648 1556 1438 1224 1298 1578 1648 1516 1819 1231 1218 1175 1949 1415
204 101 97 278 248 258 530 638 660 558 495 512 478 610 611 502 649 892 916 837 729 684 1038 838 719 842 1082 1278 1292 1779 1592 1696 1101 929 959 847 1242 1433 1415 1491 1379 1045 1424
38 32 23 114 283 410 609 731 660 627 424 387 573 634 654 687 827 1072 1108 857 588 785 786 1053 1056 1141 993 737 904 805 701 1115 1125 1107 967 1206 1396 1366 1524 1324 1516 1462 776
61 47 43 77 143 251 302 310 411 633 817 830 832 774 636 616 552 444 543 645 661 595 602 572 722 1044 980 1185 1273 1309 1044 998 1093 1389 1196 1226 1334 1533 1843 1428 1233 1325 1447
51 49 40 18 92 148 167 119 110 164 286 654 949 920 846 681 531 479 381 341 460 623 843 752 1082 870 849 887 960 973 795 644 972 912 850 917 945 924 881 1057 1558 1592 1343
94 68 21 18 0 0 33 2 6 47 81 140 326 505 561 349 115 239 362 642 812 953 1215 1031 937 664 771 529 527 520 701 789 735 682 767 912 1452 1309 1164 1184 1137 1184 823
1 1 0 1 3 0 0 0 0 0 0 0 0 32 65 22 0 0 30 698 1124 1195 1223 1243 977 1013 1126 1132 760 582 461 411 458 911 1086 1321 1217 1498 1343 1451 1332 1363 1110
0 0 0 0 0 0 0 0 0 0 0 0 0 0 0 0 0 0 0 116 452 822 1083 1216 1301 1179 1184 1125 1036 1283 1145 1178 1089 855 826 1176 1429 1515 1697 1573 1516 1304 1069
0 0 0 0 0 0 0 0 0 0 0 0 0 0 0 0 0 0 0 21 117 219 405 644 673 833 92 39 594 1168 1372 1404 1183 846 648 578 514 417 404 761 1019 953 733
0 0 0 0 0 0 0 0 0 0 0 0 0 0 0 0 0 0 0 0 0 0 39 14 0 0 0 0 0 490 965 1297 1258 1363 1352 1219 897 1243 715 461 968 1060 952
0 0 0 0 0 0 0 0 0 0 0 0 0 0 0 0 0 0 0 0 0 0 0 0 0 0 0 0 0 0 0 0 0 0 83 682 969 1107 1155 1248 1219 1105 1000
0 0 0 0 0 0 0 0 0 0 0 0 0 0 0 0 0 0 0 0 0 0 0 0 0 0 0 0 0 0 0 0 0 0 0 0 0 0 10 28 381 1017 1132
0 0 0 0 0 0 0 0 0 0 0 0 0 0 0 0 0 0 0 0 0 0 0 0 0 0 0 0 0 0 0 0 0 0 0 0 0 0 0 0 19 317 916
0 0 0 0 0 0 0 0 0 0 0 0 0 0 0 0 0 0 0 0 0 0 0 0 0 0 0 0 0 0 0 0 0 0 0 0 0 0 0 0 0 0 0
0 0 0 0 0 0 0 0 0 0 0 0 0 0 0 0 0 0 0 0 0 0 0 0 0 0 0 0 0 0 0 0 0 0 0 0 0 0 0 0 0 0 0
0 0 0 0 0 0 0 0 0 0 0 0 0 0 0 0 0 0 0 0 0 0 0 0 0 0 0 0 0 0 0 0 0 0 0 0 0 0 0 0 0 0 5
0 0 0 0 0 0 0 0 0 0 0 0 0 0 0 0 0 0 0 0 0 0 0 0 0 0 0 0 0 0 0 0 0 0 0 0 1 0 0 0 0 0 0
0 0 0 0 0 0 0 0 0 0 0 0 0 0 0 0 0 0 0 0 0 0 0 0 0 0 0 0 0 0 0 0 0 0 1 0 0 0 0 1 10 17 22
0 0 0 0 0 0 0 0 0 0 0 0 0 0 0 0 0 0 0 0 0 0 0 0 0 0 0 0 0 0 0 0 0 0 0 0 0 0 0 0 0 3 0
0 0 0 0 0 0 0 0 0 0 0 0 0 0 0 0 0 0 0 0 0 0 0 0 0 0 0 0 0 0 0 0 0 0 0 0 0 0 1 8 12 3 13
0 0 0 0 0 0 0 0 0 0 0 0 0 0 0 0 0 0 0 0 0 0 0 0 0 0 0 0 0 0 0 0 0 0 0 0 4 3 0 1 1 2 11
0 0 0 0 0 0 0 0 0 0 0 0 0 0 0 0 0 0 0 0 0 0 0 0 0 0 0 0 0 0 0 0 0 0 0 3 3 4 3 10 11 8 18
0 0 0 0 0 0 0 0 0 0 0 0 0 0 0 0 0 0 0 0 0 0 0 0 0 0 0 1 2 2 1 1 0 0 0 3 3 1 1 3 3 5 18
0 0 0 0 0 0 0 0 0 0 0 0 0 0 0 0 0 0 0 0 0 0 0 0 0 1 3 3 3 4 3 2 4 3 5 4 5 3 6 6 5 3 3
0 0 0 0 0 0 0 0 0 0 0 0 0 0 0 0 0 0 0 0 0 0 0 0 0 1 1 2 2 2 1 0 0 0 1 2 5 7 6 5 6 1 6
0 0 0 0 0 0 0 0 0 0 0 0 0 0 0 0 0 0 0 0 0 1 2 1 1 2 2 2 2 1 0 0 1 1 2 2 3 3 3 3 2 4 5

GFSGL_con_mlcape_096.txt.gz
CAPE
648 772 441 415 421 408 378 499 590 946 1285 1077 827 687 842 699 768 967 1038 1125 1430 1169 1279 1252 1201 1101 698 645 888 1027 807 841 946 872 1396 1437 2054 1787 1678 1681 1182 988 559
734 487 276 450 438 407 410 468 723 622 915 996 1156 960 805 846 1045 1010 993 946 1183 964 746 938 1038 586 868 825 723 795 905 1020 794 597 722 831 1340 1442 1409 1810 1265 709 608
249 270 266 106 195 340 532 513 711 891 698 616 744 764 733 990 927 1011 1364 1248 942 781 822 763 927 822 925 428 388 395 280 376 554 537 510 523 762 1227 1286 1306 857 1011 971
98 24 40 41 52 127 421 665 759 925 919 591 702 783 837 1347 1273 1270 1297 1382 1202 898 881 784 682 780 991 1123 1296 1047 1078 1138 728 561 391 248 336 576 910 579 321 393 718
160 76 77 80 61 46 239 585 742 858 920 970 1187 1335 1382 1364 1067 1348 1138 1076 1075 935 897 1021 932 811 812 814 911 951 1173 1006 462 147 263 207 281 520 652 427 446 430 431
164 109 49 93 68 89 145 294 388 418 524 823 983 1207 1164 941 45 97 380 1173 1218 1177 1292 1515 1319 1056 778 549 577 542 705 1033 1183 933 546 433 738 1030 952 859 711 486 515
6 2 2 5 14 0 0 1 60 141 167 166 297 616 68 0 0 0 0 752 1358 1466 1429 1353 1232 544 810 906 783 575 423 442 492 889 992 1098 1113 1234 1381 1575 1053 1031 904
0 0 1 2 3 3 0 0 0 5 90 91 112 89 0 0 0 0 0 273 969 1294 1311 1354 1452 1361 17 338 1147 985 1042 1251 1199 1153 1009 1333 1641 1505 1485 1573 1394 1451 1464
0 0 0 0 0 0 0 0 0 1 12 24 63 11 0 0 0 0 0 237 493 763 523 74 106 20 0 0 565 1193 1195 1216 1300 887 848 779 759 680 572 786 863 835 744
0 0 0 0 0 0 0 0 0 0 1 2 3 0 0 0 0 0 0 0 0 22 250 2 0 0 0 0 0 90 409 761 448 317 488 579 757 1200 955 1031 1335 1184 1060
0 0 0 0 0 0 0 0 0 0 0 0 0 0 0 0 0 0 0 0 0 0 0 0 0 0 0 0 0 0 0 0 0 0 6 135 340 627 823 1067 1388 1390 1344
0 0 0 0 0 0 0 0 0 0 0 0 0 0 0 0 0 0 0 0 0 0 0 0 0 0 0 0 0 0 0 0 0 0 0 0 0 0 0 0 0 20 45
0 0 0 0 0 0 0 0 0 0 0 0 0 0 0 0 0 0 0 0 0 0 0 0 0 0 0 0 0 0 0 0 0 0 0 0 0 0 0 0 0 81 313
0 0 0 0 0 0 0 0 0 0 0 0 0 0 0 0 0 0 0 0 0 0 0 0 0 0 0 0 0 0 0 0 0 0 0 0 0 0 0 0 0 0 0
0 0 0 0 0 0 0 0 0 0 0 0 0 0 0 0 0 0 0 0 0 0 0 0 0 0 0 0 0 0 0 0 0 0 0 0 0 0 0 0 0 0 0
0 0 0 0 0 0 0 0 0 0 0 0 0 0 0 0 0 0 0 0 0 0 0 0 0 0 0 0 0 0 0 0 0 0 0 0 0 0 0 0 0 0 0
0 0 0 0 0 0 0 0 0 0 0 0 0 0 0 0 0 0 0 0 0 0 0 0 0 0 0 0 0 0 0 0 0 0 0 0 0 0 0 0 0 0 0
0 0 0 0 0 0 0 0 0 0 0 0 0 0 0 0 0 0 0 0 0 0 0 0 0 0 0 0 0 0 0 0 0 0 0 0 0 0 0 0 0 0 0
0 0 0 0 0 0 0 0 0 0 0 0 0 0 0 0 0 0 0 0 0 0 0 0 0 0 0 0 0 0 0 0 0 0 0 0 0 0 0 0 0 0 0
0 0 0 0 0 0 0 0 0 0 0 0 0 0 0 0 0 0 0 0 0 0 0 0 0 0 0 0 0 0 0 0 0 0 0 0 0 0 0 0 0 0 0
0 0 0 0 0 0 0 0 0 0 0 0 0 0 0 0 0 0 0 0 0 0 0 0 0 0 0 0 0 0 0 0 0 0 0 0 0 0 0 0 0 0 0
0 0 0 0 0 0 0 0 0 0 0 0 0 0 0 0 0 0 0 0 0 0 0 0 0 0 0 0 0 0 0 0 0 0 0 0 0 0 0 0 0 0 0
0 0 0 0 0 0 0 0 0 0 0 0 0 0 0 0 0 0 0 0 0 0 0 0 0 0 0 0 0 0 0 0 0 0 0 0 0 0 0 0 0 0 0
0 0 0 0 0 0 0 0 0 0 0 0 0 0 0 0 0 0 0 0 0 0 0 0 0 0 0 1 1 2 2 2 0 2 4 2 2 1 1 1 1 0 0
0 0 0 0 0 0 0 0 0 0 0 0 0 0 0 0 0 0 0 0 0 0 0 0 0 0 0 0 1 3 1 0 0 0 1 2 2 2 2 2 2 2 1
0 0 0 0 0 0 0 0 0 0 0 0 0 0 0 0 0 0 0 0 0 0 0 0 0 0 0 0 2 0 0 0 0 0 2 4 4 3 3 3 3 3 2

GFSGL_con_mlcape_102.txt.gz
CAPE
951 804 874 979 990 819 764 632 677 373 76 108 566 809 828 674 746 941 958 871 796 895 862 865 946 1008 566 638 560 426 596 685 638 826 532 708 557 681 1731 2000 1757 1748 1319
630 778 874 362 536 654 382 331 485 635 889 783 989 873 976 871 842 1016 1010 972 991 1071 1001 1014 941 467 930 1060 1073 1070 896 910 800 700 740 887 690 498 529 1739 1730 1635 981
392 158 100 589 621 733 470 105 275 636 651 1034 896 803 529 787 843 843 823 1054 946 958 1066 991 887 973 621 664 644 636 674 594 226 250 240 375 372 471 458 648 1085 617 1159
33 37 0 57 90 270 266 333 382 442 435 734 650 700 752 1105 905 924 1156 931 919 1145 941 866 988 972 678 734 595 763 693 690 741 1028 1234 1067 628 965 1148 1046 990 1684 951
151 111 81 61 13 6 48 59 80 53 321 597 669 665 280 145 51 97 250 787 735 1030 1012 964 1136 841 606 535 759 751 514 431 552 551 492 748 938 859 937 1045 1306 821 572
283 247 248 284 145 91 74 26 29 42 164 367 258 584 172 0 0 0 0 556 659 734 767 945 1077 771 796 561 376 362 154 133 163 322 258 466 624 731 939 1298 995 1106 1199
617 548 359 302 415 355 234 147 72 32 84 73 268 79 0 0 0 0 0 67 347 478 614 718 687 457 42 57 475 460 362 361 286 402 434 642 919 1127 1446 1253 1307 1448 1055
327 384 297 278 132 108 85 37 0 21 59 105 117 0 0 0 0 0 0 9 108 587 1037 1299 1117 12 0 0 22 435 857 736 967 704 547 825 1262 1348 1096 1121 1089 1049 1221
2 4 10 16 7 0 10 44 44 2 4 89 88 0 0 0 0 0 0 0 452 604 31 0 3 0 0 0 0 19 231 717 130 46 62 29 43 85 200 360 349 524 469
0 0 0 0 0 0 0 0 0 0 67 2 0 0 0 0 0 0 0 0 0 0 0 0 0 0 0 0 0 0 0 0 0 0 0 0 0 58 139 151 438 652 661
0 0 0 0 0 0 0 0 0 0 0 0 0 0 0 0 0 0 0 0 0 0 0 0 0 0 0 0 0 0 0 0 0 0 0 0 50 122 139 63 155 60 44
0 0 0 0 0 0 0 0 0 0 0 0 0 0 0 0 0 0 0 0 0 0 0 0 0 0 0 0 0 0 0 0 0 0 0 0 0 0 0 0 0 0 1
0 0 0 0 0 0 0 0 0 0 0 0 0 0 0 0 0 0 0 0 0 0 0 0 0 0 0 0 0 0 0 0 0 0 0 0 0 0 0 0 0 0 0
0 0 0 0 0 0 0 0 0 0 0 0 0 0 0 0 0 0 0 0 0 0 0 0 0 0 0 0 0 0 0 0 0 0 0 0 0 0 0 0 0 0 0
0 0 0 0 0 0 0 0 0 0 0 0 0 0 0 0 0 0 0 0 0 0 0 0 0 0 0 0 0 0 0 0 0 0 0 0 0 0 0 0 0 0 0
0 0 0 0 0 0 0 0 0 0 0 0 0 0 0 0 0 0 0 0 0 0 0 0 0 0 0 0 0 0 0 0 0 0 0 0 0 0 0 0 0 0 0
0 0 0 0 0 0 0 0 0 0 0 0 0 0 0 0 0 0 0 0 0 0 0 0 0 0 0 0 0 0 0 0 0 0 0 0 0 0 0 0 0 0 0
0 0 0 0 0 0 0 0 0 0 0 0 0 0 0 0 0 0 0 0 0 0 0 0 0 0 0 0 0 0 0 0 0 0 0 0 0 0 0 0 0 0 0
0 0 0 0 0 0 0 0 0 0 0 0 0 0 0 0 0 0 0 0 0 0 0 0 0 0 0 0 0 0 0 0 0 0 0 0 0 0 0 0 0 0 0
0 0 0 0 0 0 0 0 0 0 0 0 0 0 0 0 0 0 0 0 0 0 0 0 0 0 0 0 0 0 0 0 0 0 0 0 0 0 0 0 0 0 0
0 0 0 0 0 0 0 0 0 0 0 0 0 0 0 0 0 0 0 0 0 0 0 0 0 0 0 0 0 0 0 0 0 0 0 0 0 0 0 0 0 0 0
0 0 0 0 0 0 0 0 0 0 0 0 0 0 0 0 0 0 0 0 0 0 0 0 0 0 0 0 0 0 0 0 0 0 0 0 0 0 0 0 0 0 0
0 0 0 0 0 0 0 0 0 0 0 0 0 0 0 0 0 0 0 0 0 0 0 0 0 0 0 0 0 0 0 0 0 0 0 0 0 0 0 0 1 0 0
16 3 0 0 0 0 0 0 0 0 0 0 0 0 0 0 0 0 0 0 0 0 0 0 0 0 0 0 0 0 0 0 0 0 0 0 2 1 1 1 1 1 1
33 14 4 2 0 0 0 0 0 0 0 0 0 0 0 0 0 0 0 0 0 0 0 0 0 0 0 0 0 0 0 0 0 0 0 0 0 0 0 1 1 1 1
78 8 0 0 1 0 2 0 0 0 2 0 0 0 0 0 0 0 0 0 0 0 0 0 0 0 0 0 0 0 0 0 0 0 0 0 0 0 1 1 1 1 1

GFSGL_con_mlcape_105.txt.gz
CAPE
1069 743 557 539 471 758 712 663 330 133 6 0 0 299 577 793 650 758 677 695 472 732 685 879 643 614 973 1034 702 1008 730 786 740 703 376 385 399 327 158 345 879 1484 1369
930 639 446 48 359 494 366 359 370 321 265 325 535 862 823 911 771 840 928 928 951 685 672 826 727 680 390 690 655 607 525 524 400 109 287 453 373 411 697 757 836 1756 1781
668 491 272 183 24 464 333 112 156 410 753 940 845 827 687 673 707 830 876 723 644 754 709 794 810 789 909 527 320 234 672 568 484 651 739 753 731 869 564 663 1139 1053 634
271 166 129 155 179 271 339 259 63 175 271 372 528 755 595 329 323 364 497 554 603 679 861 855 788 699 559 589 580 446 683 411 449 350 365 319 386 683 793 499 345 566 435
83 46 50 54 22 24 29 22 20 4 12 150 473 277 113 43 9 7 41 228 467 550 725 777 618 561 418 426 465 529 628 337 58 0 0 9 3 120 115 686 745 701 699
169 144 165 97 46 19 10 15 0 2 0 37 39 24 0 0 0 0 0 87 476 703 549 362 463 153 119 121 237 393 230 246 184 284 314 257 337 493 679 844 945 652 604
343 353 323 298 202 276 196 154 67 1 0 4 0 0 0 0 0 0 0 0 126 295 406 483 327 0 0 0 16 350 410 313 300 405 437 421 519 540 784 739 743 686 595
703 580 425 308 177 119 59 27 0 13 17 0 0 0 0 0 0 0 0 17 115 228 136 174 21 0 0 0 0 68 250 117 41 48 175 113 109 178 69 55 233 416 520
159 183 164 120 41 11 0 29 7 0 10 3 0 0 0 0 0 0 0 30 193 1 0 0 0 0 0 0 0 0 0 3 0 0 0 0 0 0 0 4 72 219 340
0 0 0 0 0 0 0 0 0 0 6 0 0 0 0 0 0 0 0 0 0 0 0 0 0 0 0 0 0 0 0 0 0 0 0 0 0 0 0 0 0 0 0
0 0 0 0 0 0 0 0 0 0 0 0 0 0 0 0 0 0 0 0 0 0 0 0 0 0 0 0 0 0 0 0 0 0 0 0 0 0 0 0 0 0 0
0 0 0 0 0 0 0 0 0 0 0 0 0 0 0 0 0 0 0 0 0 0 0 0 0 0 0 0 0 0 0 0 0 0 0 0 0 0 0 0 0 0 0
0 0 0 0 0 0 0 0 0 0 0 0 0 0 0 0 0 0 0 0 0 0 0 0 0 0 0 0 0 0 0 0 0 0 0 0 0 0 0 0 0 0 0
0 0 0 0 0 0 0 0 0 0 0 0 0 0 0 0 0 0 0 0 0 0 0 0 0 0 0 0 0 0 0 0 0 0 0 0 0 0 0 0 0 0 0
0 0 0 0 0 0 0 0 0 0 0 0 0 0 0 0 0 0 0 0 0 0 0 0 0 0 0 0 0 0 0 0 0 0 0 0 0 0 0 0 0 0 0
0 0 0 0 0 0 0 0 0 0 0 0 0 0 0 0 0 0 0 0 0 0 0 0 0 0 0 0 0 0 0 0 0 0 0 0 0 0 0 0 0 0 0
0 0 0 0 0 0 0 0 0 0 0 0 0 0 0 0 0 0 0 0 0 0 0 0 0 0 0 0 0 0 0 0 0 0 0 0 0 0 0 0 0 0 0
0 0 0 0 0 0 0 0 0 0 0 0 0 0 0 0 0 0 0 0 0 0 0 0 0 0 0 0 0 0 0 0 0 0 0 0 0 0 0 0 0 0 0
0 0 0 0 0 0 0 0 0 0 0 0 0 0 0 0 0 0 0 0 0 0 0 0 0 0 0 0 0 0 0 0 0 0 0 0 0 0 0 0 0 0 0
0 0 0 0 0 0 0 0 0 0 0 0 0 0 0 0 0 0 0 0 0 0 0 0 0 0 0 0 0 0 0 0 0 0 0 0 0 0 0 0 0 0 0
0 0 0 0 0 0 0 0 0 0 0 0 0 0 0 0 0 0 0 0 0 0 0 0 0 0 0 0 0 0 0 0 0 0 0 0 0 0 0 0 0 0 0
0 0 0 0 0 0 0 0 0 0 0 0 0 0 0 0 0 0 0 0 0 0 0 0 0 0 0 0 0 0 0 0 0 0 0 0 0 0 0 0 0 0 0
0 1 0 0 0 0 0 0 0 0 0 0 0 0 0 0 0 0 0 0 0 0 0 0 0 0 0 0 0 0 0 0 0 0 0 0 0 0 0 0 0 0 0
85 12 0 0 0 0 0 0 0 0 0 0 0 0 0 0 0 0 0 0 0 0 0 0 0 0 0 0 0 0 0 0 0 0 0 0 0 0 0 0 0 0 0
62 67 13 0 0 0 0 0 0 0 0 0 0 0 0 0 0 0 0 0 0 0 0 0 0 0 0 0 0 0 0 0 0 0 0 0 0 0 0 0 0 0 1
28 41 14 0 0 0 0 0 0 0 0 0 0 0 0 0 0 0 0 0 0 0 0 0 0 0 0 0 0 0 0 0 0 0 0 0 0 0 0 0 0 0 0

GFSGL_con_mlcape_111.txt.gz
CAPE
270 316 226 332 324 344 438 399 253 253 154 29 54 132 54 180 357 563 508 509 503 268 235 386 280 419 383 447 391 521 311 290 342 158 75 149 340 510 445 515 685 634 530
320 417 496 427 445 494 456 331 158 111 21 0 7 30 0 321 554 580 526 606 529 360 198 204 365 492 532 358 459 345 207 311 273 105 97 287 448 549 487 303 351 484 413
433 312 217 194 281 217 296 347 294 205 84 48 48 181 487 545 540 522 528 554 599 671 537 475 459 498 499 495 332 254 229 381 315 315 254 237 110 92 131 218 457 343 530
277 217 189 140 110 18 140 98 137 166 173 273 326 432 463 217 176 158 207 362 368 386 488 506 490 516 508 387 300 259 330 303 229 137 87 0 0 79 233 295 167 344 308
164 109 52 80 217 125 66 90 81 85 47 87 219 153 70 58 14 0 0 26 105 134 225 331 232 118 103 88 61 80 132 212 205 169 81 87 107 148 271 364 277 201 60
66 104 108 114 154 124 98 83 61 11 4 44 39 25 0 0 0 0 0 0 45 170 160 160 78 3 3 14 11 29 99 151 110 100 63 30 39 183 232 143 128 8 30
126 87 74 79 134 117 73 46 9 2 29 17 3 0 0 0 0 0 0 0 22 144 223 224 24 0 0 0 6 1 0 0 28 112 67 23 0 0 0 0 0 0 26
141 84 142 102 129 210 216 169 102 77 35 4 0 0 0 0 0 0 0 0 10 11 16 14 0 0 0 0 0 13 0 0 0 0 0 0 0 0 0 0 0 0 1
181 197 183 212 228 226 156 53 62 44 0 0 0 0 0 0 0 0 0 0 4 0 0 0 0 0 0 0 0 0 0 0 0 0 0 0 0 0 0 0 0 0 0
6 84 233 283 239 150 72 11 9 11 0 0 0 0 0 0 0 0 0 0 0 0 0 0 0 0 0 0 0 0 0 0 0 0 0 0 0 0 0 0 0 0 0
2 1 1 39 25 10 0 0 12 17 0 0 0 0 0 0 0 0 0 0 0 0 0 0 0 0 0 0 0 0 0 0 0 0 0 0 0 0 0 0 0 0 0
2 2 1 0 0 0 0 0 1 2 0 0 0 0 0 0 0 0 0 0 0 0 0 0 0 0 0 0 0 0 0 0 0 0 0 0 0 0 0 0 0 0 0
0 0 0 0 0 0 0 0 0 0 0 0 0 0 0 0 0 0 0 0 0 0 0 0 0 0 0 0 0 0 0 0 0 0 0 0 0 0 0 0 0 0 0
0 0 0 0 0 0 0 0 0 0 0 0 0 0 0 0 0 0 0 0 0 0 0 0 0 0 0 0 0 0 0 0 0 0 0 0 0 0 0 0 0 0 0
0 0 0 0 0 0 0 0 0 0 0 0 0 0 0 0 0 0 0 0 0 0 0 0 0 0 0 0 0 0 0 0 0 0 0 0 0 0 0 0 0 0 0
0 0 0 0 0 0 0 0 0 0 0 0 0 0 0 0 0 0 0 0 0 0 0 0 0 0 0 0 0 0 0 0 0 0 0 0 0 0 0 0 0 0 0
0 0 0 0 0 0 0 0 0 0 0 0 0 0 0 0 0 0 0 0 0 0 0 0 0 0 0 0 0 0 0 0 0 0 0 0 0 0 0 0 0 0 0
0 0 0 0 0 0 0 0 0 0 0 0 0 0 0 0 0 0 0 0 0 0 0 0 0 0 0 0 0 0 0 0 0 0 0 0 0 0 0 0 0 0 0
0 0 0 0 0 0 0 0 0 0 0 0 0 0 0 0 0 0 0 0 0 0 0 0 0 0 0 0 0 0 0 0 0 0 0 0 0 0 0 0 0 0 0
0 0 0 0 0 0 0 0 0 0 0 0 0 0 0 0 0 0 0 0 0 0 0 0 0 0 0 0 0 0 0 0 0 0 0 0 0 0 0 0 0 0 0
0 0 0 0 0 0 0 0 0 0 0 0 0 0 0 0 0 0 0 0 0 0 0 0 0 0 0 0 0 0 0 0 0 0 0 0 0 0 0 0 0 0 0
0 0 0 0 0 0 0 0 0 0 0 0 0 0 0 0 0 0 0 0 0 0 0 0 0 0 0 0 0 0 0 0 0 0 0 0 0 0 0 0 0 0 0
0 0 0 0 0 0 0 0 0 0 0 0 0 0 0 0 0 0 0 0 0 0 0 0 0 0 0 0 0 0 0 0 0 0 0 0 0 0 0 0 0 0 0
0 0 0 0 0 0 5 3 0 0 0 0 0 0 0 0 0 0 0 0 0 0 0 0 0 0 0 0 0 0 0 0 0 0 0 0 0 0 0 0 0 0 0
0 0 0 6 6 3 0 0 0 0 0 0 0 0 0 0 0 0 0 0 0 0 0 0 0 0 0 0 0 0 0 0 0 0 0 0 0 0 0 0 0 0 0
0 0 0 0 0 4 0 0 0 0 0 0 0 0 0 0 0 0 0 0 0 0 0 0 0 0 0 0 0 0 0 0 0 0 0 0 0 0 0 0 0 0 0

GFSGL_con_mlcape_114.txt.gz
CAPE
113 106 108 211 151 271 250 252 241 197 157 138 61 75 134 113 192 337 450 533 412 306 246 238 342 284 306 346 440 355 239 207 249 243 84 56 246 557 566 407 610 678 571
133 132 197 209 231 298 301 269 148 131 80 73 58 98 67 0 206 380 411 413 432 446 325 143 184 362 413 352 275 417 270 147 209 146 51 186 294 298 154 151 405 597 625
154 196 305 275 350 352 333 222 164 106 52 7 0 0 41 201 383 450 406 379 481 463 484 424 321 337 378 401 432 280 188 197 250 240 222 86 28 0 60 187 366 303 324
214 240 251 264 313 127 33 24 55 74 93 127 135 232 315 368 315 292 209 234 229 340 492 499 477 459 427 450 309 242 186 229 203 199 126 47 5 89 163 334 278 276 0
242 250 223 144 157 104 86 36 30 64 52 38 94 120 83 66 33 31 12 14 48 149 277 418 318 182 133 88 99 58 45 27 104 160 119 63 66 77 167 240 165 23 23
203 164 137 48 42 56 94 108 35 56 79 49 25 19 7 0 0 0 0 0 0 30 154 214 66 1 0 0 6 45 56 97 114 103 72 76 85 105 67 0 1 0 0
62 66 65 72 96 91 107 88 77 58 24 14 0 0 0 0 0 0 0 0 0 30 122 129 6 0 0 0 0 0 0 0 9 96 76 17 0 0 0 0 0 4 42
43 65 66 76 47 65 86 85 61 25 13 6 0 0 0 0 0 0 0 0 0 0 1 0 0 0 0 0 3 28 0 0 0 0 0 0 0 0 0 0 0 0 12
44 51 76 53 43 86 92 66 56 38 1 0 0 0 0 0 0 0 0 0 0 0 0 0 0 0 0 0 0 0 0 0 0 0 0 0 0 0 0 0 0 0 0
55 87 89 90 103 55 24 14 2 11 0 0 0 0 0 0 0 0 0 0 0 0 0 0 0 0 0 0 0 0 0 0 0 0 0 0 0 0 0 0 0 0 0
0 0 0 36 62 18 2 0 3 0 0 0 0 0 0 0 0 0 0 0 0 0 0 0 0 0 0 0 0 0 0 0 0 0 0 0 0 0 0 0 0 0 0
1 0 0 0 1 1 0 4 7 0 0 0 0 0 0 0 0 0 0 0 0 0 0 0 0 0 0 0 0 0 0 0 0 0 0 0 0 0 0 0 0 0 0
1 1 1 2 1 0 0 0 12 0 0 0 0 0 0 0 0 0 0 0 0 0 0 0 0 0 0 0 0 0 0 0 0 0 0 0 0 0 0 0 0 0 0
0 0 0 0 0 0 0 0 0 0 0 0 0 0 0 0 0 0 0 0 0 0 0 0 0 0 0 0 0 0 0 0 0 0 0 0 0 0 0 0 0 0 0
0 0 0 0 0 0 0 0 0 0 0 0 0 0 0 0 0 0 0 0 0 0 0 0 0 0 0 0 0 0 0 0 0 0 0 0 0 0 0 0 0 0 0
0 0 0 0 0 0 0 0 0 0 0 0 0 0 0 0 0 0 0 0 0 0 0 0 0 0 0 0 0 0 0 0 0 0 0 0 0 0 0 0 0 0 0
0 0 0 0 0 0 0 0 0 0 0 0 0 0 0 0 0 0 0 0 0 0 0 0 0 0 0 0 0 0 0 0 0 0 0 0 0 0 0 0 0 0 0
0 0 0 0 0 0 0 0 0 0 0 0 0 0 0 0 0 0 0 0 0 0 0 0 0 0 0 0 0 0 0 0 0 0 0 0 0 0 0 0 0 0 0
0 0 0 0 0 0 0 0 0 0 0 0 0 0 0 0 0 0 0 0 0 0 0 0 0 0 0 0 0 0 0 0 0 0 0 0 0 0 0 0 0 0 0
0 0 0 0 0 0 0 0 0 0 0 0 0 0 0 0 0 0 0 0 0 0 0 0 0 0 0 0 0 0 0 0 0 0 0 0 0 0 0 0 0 0 0
0 0 0 0 0 0 0 0 0 0 0 0 0 0 0 0 0 0 0 0 0 0 0 0 0 0 0 0 0 0 0 0 0 0 0 0 0 0 0 0 0 0 0
0 0 0 0 0 0 0 0 0 0 0 0 0 0 0 0 0 0 0 0 0 0 0 0 0 0 0 0 0 0 0 0 0 0 0 0 0 0 0 0 0 0 0
0 0 0 0 0 0 0 0 0 0 0 0 0 0 0 0 0 0 0 0 0 0 0 0 0 0 0 0 0 0 0 0 0 0 0 0 0 0 0 0 0 0 0
0 0 0 0 0 0 0 0 0 0 0 0 0 0 0 0 0 0 0 0 0 0 0 0 0 0 0 0 0 0 0 0 0 0 0 0 0 0 0 0 0 0 0
0 0 0 0 0 0 0 0 0 0 0 0 0 0 0 0 0 0 0 0 0 0 0 0 0 0 0 0 0 0 0 0 0 0 0 0 0 0 0 0 0 0 0
0 0 0 0 0 0 0 0 0 0 0 0 0 0 0 0 0 0 0 0 0 0 0 0 0 0 0 0 0 0 0 0 0 0 0 0 0 0 0 0 0 0 0

GFSGL_con_mlcape_117.txt.gz
CAPE
242 342 385 359 388 584 583 758 738 592 560 409 388 450 528 677 733 788 671 835 931 943 801 611 696 1049 764 783 996 985 801 782 451 255 681 522 735 1120 1371 1071 790 991 849
327 337 268 317 476 541 672 729 570 576 509 545 394 260 254 422 412 599 700 721 587 559 500 627 710 632 737 696 834 837 795 856 597 659 618 583 807 828 681 857 752 600 861
316 315 285 238 435 542 726 678 625 559 396 298 192 114 296 327 243 614 802 862 673 686 737 824 731 760 625 347 498 638 735 727 720 676 701 782 610 319 395 835 1200 1074 250
320 307 330 365 605 645 752 403 221 220 256 352 391 377 326 434 991 913 550 566 552 642 486 782 950 834 668 668 297 483 536 360 402 548 665 596 438 690 692 700 486 612 245
255 366 384 413 545 656 340 179 74 89 171 190 223 253 511 488 373 290 368 391 377 406 598 487 604 106 17 58 171 289 146 113 102 133 181 405 434 301 375 581 218 206 625
465 486 352 363 352 298 175 125 90 100 51 163 132 22 20 22 0 0 0 60 75 77 247 738 124 0 0 0 0 1 30 172 172 241 197 157 306 419 330 17 90 185 260
171 235 216 119 149 29 28 98 123 77 58 94 60 2 0 0 0 0 0 0 0 59 192 843 47 0 0 0 0 0 0 0 5 453 470 339 44 89 0 3 227 290 317
17 28 88 74 7 5 39 82 87 67 56 43 1 0 0 0 0 0 0 0 5 0 0 62 10 0 0 0 0 0 0 0 0 0 0 0 0 0 0 0 67 117 0
74 83 76 46 51 52 12 11 65 78 36 4 0 0 0 0 0 0 1 0 0 0 0 0 0 0 0 0 0 0 0 0 0 0 0 0 0 0 0 0 0 0 46
99 74 66 76 94 58 48 36 18 29 4 1 0 0 0 0 0 0 0 1 0 0 0 0 0 0 0 0 0 0 0 0 0 0 0 0 0 0 0 0 0 0 0
17 14 1 0 29 45 35 18 3 0 2 0 0 0 0 0 0 0 0 0 0 0 0 0 0 0 0 0 0 0 0 0 0 0 0 0 0 0 0 0 0 0 0
1 1 0 0 0 0 0 4 0 1 3 0 0 0 0 0 0 0 0 0 0 0 0 0 0 0 0 0 0 0 0 0 0 0 0 0 0 0 0 0 0 0 0
2 2 1 1 0 0 0 2 11 3 4 0 0 0 0 0 0 0 0 0 0 0 0 0 0 0 0 0 0 0 0 0 0 0 0 0 0 0 0 0 0 0 0
0 1 0 0 0 0 0 1 1 2 1 0 0 0 0 0 0 0 0 0 0 0 0 0 0 0 0 0 0 0 0 0 0 0 0 0 0 0 0 0 0 0 0
0 0 0 0 0 0 0 0 0 0 0 0 0 0 0 0 0 0 0 0 0 0 0 0 0 0 0 0 0 0 0 0 0 0 0 0 0 0 0 0 0 0 0
0 0 0 0 0 0 0 0 0 0 0 0 0 0 0 0 0 0 0 0 0 0 0 0 0 0 0 0 0 0 0 0 0 0 0 0 0 0 0 0 0 0 0
0 0 0 0 0 0 0 0 0 0 0 0 0 0 0 0 0 0 0 0 0 0 0 0 0 0 0 0 0 0 0 0 0 0 0 0 0 0 0 0 0 0 0
0 0 0 0 0 0 0 0 0 0 0 0 0 0 0 0 0 0 0 0 0 0 0 0 0 0 0 0 0 0 0 0 0 0 0 0 0 0 0 0 0 0 0
0 0 0 0 0 0 0 0 0 0 0 0 0 0 0 0 0 0 0 0 0 0 0 0 0 0 0 0 0 0 0 0 0 0 0 0 0 0 0 0 0 0 0
0 0 0 0 0 0 0 0 0 0 0 0 0 0 0 0 0 0 0 0 0 0 0 0 0 0 0 0 0 0 0 0 0 0 0 0 0 0 0 0 0 0 0
0 0 0 0 0 0 0 0 0 0 0 0 0 0 0 0 0 0 0 0 0 0 0 0 0 0 0 0 0 0 0 0 0 0 0 0 0 0 0 0 0 0 0
0 0 0 0 0 0 0 0 0 0 0 0 0 0 0 0 0 0 0 0 0 0 0 0 0 0 0 0 0 0 0 0 0 0 0 0 0 0 0 0 0 0 0
0 0 0 0 0 0 0 0 0 0 0 0 0 0 0 0 0 0 0 0 0 0 0 0 0 0 0 0 0 0 0 0 0 0 0 0 0 0 0 0 0 0 0
0 0 0 0 0 0 0 3 5 0 0 0 0 0 0 0 0 0 0 0 0 0 0 0 0 0 0 0 0 0 0 0 0 0 0 0 0 0 0 0 0 0 0
0 0 0 0 0 0 0 0 2 3 0 0 0 0 0 0 0 0 0 0 0 0 0 0 0 0 0 0 0 0 0 0 0 0 0 0 0 0 0 0 0 0 0
0 0 0 0 0 0 0 0 0 2 3 1 1 1 1 0 1 0 0 0 0 0 0 0 1 1 0 0 0 0 0 0 0 0 0 0 0 0 0 0 0 0 2

GFSGL_con_mlcape_120.txt.gz
CAPE
352 454 478 547 678 898 820 1109 1208 1404 1346 1348 1467 1385 1280 1195 1257 1466 1302 931 1174 1006 994 1022 953 1117 742 380 345 394 368 415 376 166 178 444 905 847 817 883 572 784 832
390 537 723 688 775 589 791 926 1216 1315 1285 1472 1435 1320 1095 1185 1179 1304 1193 794 902 896 735 755 727 585 804 1047 527 528 509 759 507 378 380 378 847 891 857 1040 897 454 693
666 695 761 766 853 611 838 942 1219 1249 1259 1047 1035 1047 1032 991 987 1003 1015 861 919 847 682 768 739 772 756 813 642 598 539 637 776 788 504 668 786 661 610 862 1265 1143 547
758 800 785 772 700 747 934 1085 1141 1139 1158 1093 1151 1114 951 760 830 1024 925 811 804 757 872 788 749 782 909 1010 719 938 196 548 681 434 668 322 582 689 711 590 369 601 388
858 805 848 809 761 933 800 1020 1064 920 760 725 735 734 961 1010 788 1152 1114 939 797 844 925 1012 526 579 175 323 501 247 132 490 337 260 399 259 133 114 325 302 298 322 1027
433 284 667 1011 993 961 710 946 856 572 465 476 461 596 622 340 0 0 0 155 557 661 651 708 967 17 1 0 2 7 54 140 187 174 383 491 453 553 645 215 164 256 572
229 297 722 873 642 673 773 818 372 117 290 240 375 387 110 12 0 0 0 0 84 181 500 731 947 133 58 174 0 0 0 0 2 87 566 793 574 565 84 165 552 553 599
254 244 341 254 369 541 152 85 44 81 103 116 141 150 52 0 0 0 0 0 27 213 112 498 790 84 0 0 0 0 0 0 0 0 44 0 0 0 5 93 266 341 56
97 89 138 70 125 108 36 17 41 62 91 12 0 0 0 0 0 0 0 12 10 0 0 0 0 0 0 0 0 61 0 0 0 0 0 0 0 0 0 0 22 4 235
111 128 154 179 132 66 24 23 38 17 0 0 0 0 0 0 0 0 1 93 109 82 1 0 0 0 0 0 0 0 0 0 0 0 0 0 0 0 0 0 0 0 1
119 54 27 12 5 79 52 32 3 0 0 1 1 0 0 0 0 0 0 40 47 63 29 2 0 0 0 0 0 0 0 0 0 0 0 0 0 0 0 0 0 0 0
12 2 1 1 2 5 2 0 1 1 0 2 1 0 0 0 0 0 0 0 0 7 19 3 0 0 0 0 0 0 0 0 0 0 0 0 0 0 0 0 0 0 0
0 0 1 2 1 1 1 0 0 1 0 0 0 0 0 0 0 0 0 0 0 0 0 0 0 0 0 0 0 0 0 0 0 0 0 0 0 0 0 0 0 0 0
1 1 1 4 1 1 0 0 1 3 3 5 6 1 0 0 0 0 0 0 0 0 0 0 0 0 0 0 0 0 0 0 0 0 0 0 0 0 0 0 0 0 0
0 0 0 0 0 0 0 0 0 0 0 1 1 2 0 0 0 0 0 0 0 0 0 0 0 0 0 0 0 0 0 0 0 0 0 0 0 0 0 0 0 0 0
0 0 0 0 0 0 0 0 0 0 0 0 0 0 0 0 0 0 0 0 0 0 0 0 0 0 0 0 0 0 0 0 0 0 0 0 0 0 0 0 0 0 0
0 0 0 0 0 0 0 0 0 0 0 0 0 0 0 0 0 0 0 0 0 0 0 0 0 0 0 0 0 0 0 0 0 0 0 0 0 0 0 0 0 0 0
0 0 0 0 0 0 0 0 0 0 0 0 0 0 0 0 0 0 0 0 0 0 0 0 0 0 0 0 0 0 0 0 0 0 0 0 0 0 0 0 0 0 0
0 0 0 0 0 0 0 0 0 0 0 0 0 0 0 0 0 0 0 0 0 0 0 0 0 0 0 0 0 0 0 0 0 0 0 0 0 0 0 0 0 0 0
1 0 0 0 0 0 0 0 0 0 0 0 0 0 0 0 0 0 0 0 0 0 0 0 0 0 0 0 0 0 0 0 0 0 0 0 0 0 0 0 0 0 0
0 0 0 0 0 0 0 0 1 0 0 0 0 2 0 0 0 0 0 0 0 0 0 0 0 0 0 0 0 0 0 0 0 0 0 0 0 0 0 0 0 0 0
0 0 0 0 0 0 0 0 0 0 1 1 0 0 0 0 0 0 0 0 0 0 0 0 0 0 1 0 0 0 0 0 0 0 0 0 0 0 0 0 0 0 0
0 0 0 0 0 0 0 0 0 0 0 0 0 0 0 0 2 5 14 8 2 0 3 3 12 9 12 4 0 0 0 0 0 0 0 0 0 0 0 0 0 0 0
0 0 0 0 0 0 0 0 0 0 0 1 3 2 3 4 6 9 20 34 24 0 7 34 18 8 14 0 0 0 0 0 0 0 0 0 0 0 0 0 0 0 0
0 0 0 0 0 0 0 0 0 0 0 0 0 1 2 7 13 21 29 42 43 20 11 31 9 6 28 6 1 0 0 0 0 0 0 0 0 0 0 0 0 1 2
0 0 0 0 0 0 0 0 0 0 0 0 0 4 10 20 27 36 21 6 15 85 39 64 41 41 1 9 3 0 0 0 0 0 0 0 0 0 0 0 1 1 4

GFSGL_con_mlcape_123.txt.gz
CAPE
465 601 654 727 901 971 985 1159 1209 1280 1382 1362 1414 1229 1434 1377 1350 1457 1135 1456 1173 1109 1064 881 1169 1029 650 267 491 582 172 71 103 260 233 720 826 510 787 959 491 685 351
449 685 752 764 693 731 876 753 1317 1304 1201 1276 1592 1549 1495 1479 1361 1287 1544 1045 856 858 1030 1007 794 660 870 1201 442 319 684 918 746 576 444 138 638 928 857 1017 1173 470 567
486 465 691 756 964 907 876 902 1040 1140 1386 1168 1335 1355 1240 1162 1165 1275 1308 1271 1143 916 870 742 686 793 800 537 620 611 460 714 450 535 201 692 420 329 766 781 982 964 225
732 473 505 561 653 765 871 1040 937 825 1215 1024 1103 1113 1143 921 906 1111 1034 1171 1068 983 1024 1027 1057 845 601 520 856 741 695 99 17 92 115 206 577 406 131 301 68 342 32
1064 1006 842 852 788 851 866 905 881 886 925 723 623 776 977 881 656 854 1031 1070 992 951 897 1025 1066 815 354 243 438 274 248 87 4 257 231 213 211 70 0 24 101 587 695
1207 1233 1165 1204 1060 907 1124 1165 1241 1071 871 783 556 657 505 482 0 0 5 249 530 648 657 724 868 449 68 0 0 50 129 153 198 84 138 371 595 905 481 522 343 477 596
957 1065 979 948 1136 1173 937 941 1123 1020 773 778 622 332 401 31 0 0 0 1 199 282 500 660 821 611 199 416 0 0 0 0 0 0 113 355 278 47 40 81 619 756 922
853 885 1058 1081 1104 1014 846 886 850 832 442 199 109 124 179 0 0 0 0 1 76 161 99 92 625 463 7 51 170 30 0 0 0 0 39 5 0 0 0 72 244 389 442
559 476 618 242 231 230 295 304 342 323 201 66 21 0 0 0 0 0 0 58 64 2 0 0 0 1 0 0 0 6 0 0 0 0 0 0 0 0 0 0 1 66 208
30 48 130 224 235 227 208 311 209 134 36 0 0 0 0 0 0 0 0 1 47 26 1 0 0 0 0 0 0 85 90 12 0 0 0 0 0 0 0 0 0 0 0
96 76 47 46 7 16 35 39 0 0 0 1 4 4 0 0 0 0 0 0 2 72 78 37 0 0 0 0 0 0 21 1 26 0 0 0 0 0 0 0 0 0 0
50 54 30 8 23 7 4 0 0 0 0 1 0 2 3 0 0 0 0 0 0 0 35 33 0 0 0 0 0 0 0 0 0 0 0 0 0 0 0 0 0 0 0
1 1 1 1 0 6 0 0 1 0 0 2 2 1 2 1 0 0 0 0 0 0 0 0 0 0 0 0 0 0 0 0 0 0 0 0 0 0 0 0 0 0 0
1 1 0 1 1 1 0 0 3 3 1 4 2 0 0 1 0 0 0 0 0 0 0 0 0 0 0 0 0 0 0 0 0 0 0 0 0 0 0 0 0 0 0
0 0 0 0 0 0 0 2 0 0 0 1 3 0 0 0 0 0 0 0 0 0 0 0 0 0 0 0 0 0 0 0 0 0 0 0 0 0 0 0 0 0 0
0 0 0 0 0 0 0 0 0 0 0 0 0 0 0 0 0 0 0 0 0 0 0 0 0 0 0 0 0 0 0 0 0 0 0 0 0 0 0 0 0 0 0
0 0 0 0 0 0 0 0 0 0 0 0 0 0 0 0 0 0 0 0 0 0 0 0 0 0 0 0 0 0 0 0 0 0 0 0 0 0 0 0 0 0 0
0 0 0 0 0 0 0 0 0 0 0 0 0 0 0 0 0 0 0 0 0 0 0 0 0 0 0 0 0 0 0 0 0 0 0 0 0 0 0 0 0 0 0
10 2 0 0 0 0 0 0 0 0 0 0 0 0 0 0 0 0 0 0 0 0 0 0 0 0 0 0 0 0 0 0 0 0 0 0 0 0 0 0 0 0 0
0 0 0 6 2 3 2 0 0 0 0 0 0 0 0 0 0 0 0 0 0 0 0 0 0 0 0 0 0 0 0 0 0 0 0 0 0 0 0 0 0 0 0
0 0 0 0 0 0 0 0 0 0 0 0 0 0 0 0 0 0 0 0 0 1 0 0 0 0 0 0 0 0 1 0 0 0 0 0 0 0 0 0 0 0 0
0 0 0 0 0 0 0 0 0 0 0 0 0 0 0 0 0 0 0 2 2 2 6 16 24 33 37 27 16 13 13 13 5 0 0 0 0 0 0 0 0 0 0
0 0 0 0 0 0 0 0 0 0 0 0 0 0 0 0 0 0 3 4 5 10 18 18 29 42 62 39 77 28 15 7 7 3 0 0 0 0 0 0 0 0 0
0 0 0 0 0 0 0 0 0 0 0 0 0 0 0 0 1 3 3 7 13 19 26 31 36 53 63 54 16 6 9 10 10 5 0 0 0 0 0 0 0 1 0
0 0 0 0 0 0 0 0 0 0 0 0 0 0 2 6 14 24 27 28 32 30 49 29 44 49 83 78 48 0 0 0 0 0 0 0 0 0 0 0 1 3 4
0 0 0 0 0 0 0 0 0 0 0 0 0 0 3 11 6 12 19 14 18 3 0 23 5 11 39 98 52 0 0 0 0 0 0 0 0 0 1 0 1 0 3

GFSGL_con_mlcape_129.txt.gz
CAPE
241 306 474 518 326 508 507 690 656 879 788 916 989 947 989 1239 1256 1206 1112 1154 1071 848 697 587 743 871 665 470 514 514 320 257 149 220 537 493 82 26 0 0 261 7 0
610 318 221 164 126 223 381 444 447 456 627 563 978 1072 1164 1169 1273 1184 1041 1101 796 853 759 1075 559 522 470 833 354 586 497 637 361 198 302 121 44 5 40 4 107 0 0
610 645 499 348 273 245 510 325 247 520 673 900 896 1081 1062 992 1016 958 984 951 870 731 797 683 714 619 439 562 433 249 271 581 293 116 37 10 145 154 65 0 0 0 0
476 595 876 779 547 707 662 651 951 865 649 538 894 1050 697 434 669 832 793 741 870 793 732 716 635 353 354 526 423 278 303 272 110 44 25 14 100 128 49 0 0 0 0
645 376 582 702 682 571 660 668 886 707 526 345 615 726 890 793 322 309 568 740 572 474 377 409 525 584 336 198 328 422 358 163 130 65 46 48 8 12 28 0 1 19 0
18 628 588 576 723 680 659 682 580 795 728 912 834 591 312 0 0 0 129 240 136 208 225 282 315 185 101 22 20 0 71 133 125 76 32 24 14 2 2 10 18 42 17
0 144 559 685 432 422 558 475 470 403 401 384 283 201 7 0 0 0 0 0 0 26 84 76 107 50 28 3 0 0 0 0 0 0 0 8 3 0 0 5 30 25 25
0 415 444 403 390 493 499 449 364 548 237 84 138 43 0 0 0 0 0 0 0 6 2 0 0 0 0 0 11 35 0 0 0 0 4 0 0 0 0 0 0 3 106
126 261 169 295 285 300 330 315 329 339 223 97 48 1 0 0 0 0 0 0 0 0 0 0 0 0 0 0 0 0 4 0 0 0 0 0 0 0 0 0 0 3 25
142 121 81 63 61 12 25 12 0 4 1 0 0 1 1 0 0 0 0 0 0 0 0 0 0 0 0 0 0 0 0 0 8 0 0 0 0 0 0 0 0 0 0
19 1 1 0 0 0 0 0 0 0 0 1 1 1 0 0 0 0 0 0 0 0 0 0 0 0 0 0 0 0 0 0 0 11 5 58 12 0 0 0 0 0 0
12 1 1 0 0 0 0 0 0 0 0 1 0 0 1 1 4 1 0 0 0 0 0 0 0 0 0 0 0 0 0 0 0 0 7 37 35 0 0 0 0 0 0
0 0 1 1 0 0 0 0 0 0 0 0 1 1 2 2 3 0 0 0 0 0 0 0 0 0 0 0 0 0 0 0 0 0 0 0 0 0 0 0 0 0 0
0 0 24 24 5 1 0 1 1 0 0 2 0 0 0 0 0 0 0 0 0 0 0 0 0 0 0 0 0 0 0 0 0 0 0 0 0 0 0 0 0 0 0
1 0 0 0 0 0 0 0 0 0 0 0 1 1 0 0 0 0 0 0 0 0 0 0 0 0 0 0 0 0 0 0 0 0 0 0 0 0 0 0 0 0 0
0 0 0 0 0 0 0 0 0 0 0 0 0 0 0 0 0 0 0 0 0 0 0 0 0 0 0 0 0 0 0 0 0 0 0 0 0 0 0 0 0 0 0
0 0 0 0 0 0 0 0 0 0 0 0 0 0 0 0 0 0 0 0 0 0 0 0 0 0 0 0 0 0 0 0 0 0 0 0 0 0 0 0 0 0 0
0 0 0 0 0 0 0 0 0 0 0 0 0 0 0 0 0 0 0 0 0 0 0 0 0 0 0 0 0 0 0 0 0 0 0 0 0 0 0 0 0 0 0
0 0 0 0 0 0 0 0 0 0 0 0 0 0 0 0 0 0 0 0 0 0 0 0 0 0 0 0 0 0 0 0 0 0 0 0 0 0 0 0 0 0 0
0 0 0 0 0 0 0 0 0 0 0 0 0 0 0 0 0 0 0 0 0 0 0 0 0 0 0 0 0 0 0 0 0 0 0 0 0 0 0 0 0 0 0
0 0 0 0 0 0 0 0 0 0 0 0 0 0 0 0 0 0 0 0 0 0 2 0 2 6 13 16 14 11 15 13 6 8 0 0 0 0 0 0 0 0 0
0 0 0 0 0 0 0 0 0 0 0 0 0 0 0 0 0 0 0 0 0 0 0 0 0 0 0 1 14 13 23 29 23 2 7 1 0 0 0 0 0 0 0
0 0 0 0 0 0 0 0 0 0 0 0 0 0 0 0 0 0 0 0 0 0 0 0 0 0 0 2 4 1 1 0 0 0 0 0 0 0 0 0 0 0 1
0 0 0 0 0 0 0 0 0 0 0 0 0 0 0 0 0 0 0 0 0 0 0 0 0 0 0 0 0 0 0 0 0 0 0 0 0 0 0 0 0 0 6
0 0 0 0 0 0 0 0 0 0 0 0 0 0 0 0 0 0 0 0 0 0 0 0 0 0 0 0 0 0 0 0 0 0 0 0 0 0 0 0 0 0 0
0 0 0 0 0 0 0 0 0 0 0 0 0 0 0 0 0 0 0 0 0 0 0 0 0 0 0 0 0 0 0 0 0 0 0 0 0 0 0 0 0 0 0

GFSGL_con_mlcape_132.txt.gz
CAPE
421 354 380 324 384 594 532 751 949 752 1028 622 739 940 893 1050 952 1103 1235 1152 1071 929 778 559 521 503 728 560 595 369 447 256 92 103 389 278 47 0 0 65 22 0 0
454 493 467 570 447 410 610 762 953 920 767 919 831 870 750 749 917 1038 977 1021 799 723 679 555 513 564 386 263 390 294 272 479 327 73 119 95 6 14 25 61 22 0 0
470 463 494 548 598 429 544 633 597 563 598 632 530 708 812 916 905 955 957 875 804 760 692 601 571 584 502 397 332 220 211 324 208 143 54 7 17 130 30 1 0 0 0
607 490 413 439 468 460 412 508 504 489 498 560 723 728 821 796 767 744 788 778 694 748 708 634 607 566 303 259 396 342 289 246 181 65 33 8 34 38 79 5 0 0 0
344 364 408 418 406 369 341 388 572 557 503 747 683 839 851 626 471 594 604 623 574 535 472 381 465 476 453 308 269 240 262 222 141 73 17 19 0 0 5 7 12 17 0
224 193 92 47 268 591 536 498 570 553 502 444 550 597 668 372 181 300 353 433 377 341 283 276 256 125 74 63 23 6 46 119 104 84 39 10 1 3 2 0 0 27 5
4 69 33 2 0 323 586 492 621 574 679 474 562 359 106 0 0 0 0 22 47 66 56 71 74 32 32 10 0 0 0 0 0 7 0 11 3 1 0 0 9 4 12
0 0 0 0 0 145 413 349 417 495 321 380 379 15 0 0 0 0 0 0 8 0 0 0 0 0 0 0 4 20 0 0 0 0 1 7 0 0 0 0 0 0 1
1 1 0 0 71 269 262 331 332 218 146 67 0 0 0 0 0 0 0 1 0 0 0 0 0 0 0 0 0 0 0 0 0 0 0 0 0 0 0 0 0 0 1
0 0 0 0 203 241 146 91 0 0 0 0 0 3 1 1 0 0 0 0 0 0 0 0 0 0 0 0 0 0 0 0 0 0 0 0 0 0 0 0 0 0 0
3 14 5 1 40 7 0 0 0 0 2 1 1 3 0 0 0 0 0 0 0 0 0 0 0 0 0 0 0 0 0 0 0 0 1 2 6 0 0 0 0 0 0
1 2 2 2 3 1 0 1 3 1 1 3 3 3 4 4 1 0 0 0 0 0 0 0 0 0 0 0 0 0 0 0 0 0 0 0 0 0 0 0 0 0 0
0 1 0 0 0 0 0 1 1 2 0 2 1 1 1 1 0 0 0 0 0 0 0 0 0 0 0 0 0 0 0 0 0 0 0 0 0 0 0 0 0 0 0
0 9 2 0 2 3 2 1 0 2 2 1 0 0 0 2 0 0 0 0 0 0 0 0 0 0 0 0 0 0 0 0 0 0 0 0 0 0 0 0 0 0 0
0 4 0 0 0 0 0 0 0 0 0 0 0 0 0 0 0 0 0 0 0 0 0 0 0 0 0 0 0 0 0 0 0 0 0 0 0 0 0 0 0 0 0
0 0 0 0 0 0 0 0 0 0 0 0 0 0 0 0 0 0 0 0 0 0 0 0 0 0 0 0 0 0 0 0 0 0 0 0 0 0 0 0 0 0 0
0 0 0 0 0 0 0 0 0 0 0 0 0 0 0 0 0 0 0 0 0 0 0 0 0 0 0 0 0 0 0 0 0 0 0 0 0 0 0 0 0 0 0
0 0 0 0 0 0 0 0 0 0 0 0 0 0 0 0 0 0 0 0 0 0 0 0 0 0 0 0 0 0 0 0 0 0 0 0 0 0 0 0 0 0 0
0 0 0 0 0 0 0 0 0 0 0 0 0 0 0 0 0 0 0 0 0 0 0 0 0 0 0 0 0 0 0 0 0 0 0 0 0 0 0 0 0 0 0
0 0 0 0 0 0 0 0 0 0 0 0 0 0 0 0 0 0 0 0 0 0 0 0 0 0 0 0 0 0 0 0 0 0 0 0 0 0 0 0 0 0 0
0 0 0 0 0 0 0 0 0 0 0 0 0 0 0 0 0 0 0 0 0 0 0 0 0 0 0 0 0 0 0 0 0 0 0 0 0 0 0 0 0 0 0
0 0 0 0 0 0 0 0 0 0 0 0 0 0 0 0 0 0 0 0 0 0 0 0 0 0 0 0 0 0 0 0 0 0 0 1 0 0 0 0 0 0 0
0 0 0 0 0 0 0 0 0 0 0 0 0 0 0 0 0 0 0 0 0 0 0 0 0 0 0 0 0 0 0 0 0 0 0 0 0 0 0 0 0 0 0
0 0 0 0 0 0 0 0 0 0 0 0 0 0 0 0 0 0 0 0 0 0 0 0 0 0 0 0 0 0 0 0 0 0 0 0 0 0 0 0 0 0 0
0 0 0 0 0 0 0 0 0 0 0 0 0 0 0 0 0 0 0 0 0 0 0 0 0 0 0 0 0 0 0 0 0 0 0 0 0 0 0 0 0 0 0
0 0 0 0 0 0 0 0 0 0 0 0 0 0 0 0 0 0 0 0 0 0 0 0 0 0 0 0 0 0 0 0 0 0 0 0 0 0 0 0 0 0 0